[[{"header":{"parameterUnit":"m.s-1","parameterCategory":1,"la1":30.6,"la2":29.2853,"lo1":-89.7004,"lo2":-87.6739,"dy":0.0162,"dx":0.0183,"nx":112,"ny":82,"refTime":"2023-08-16T06:00:00:Z","depth":0,"parameterNumber":2,"parameterNumberName":"U-component_of_WINDS"},"data":[0.0,0.0,0.0,0.0,0.0,0.0,0.0,0.0,0.0,0.0,0.0,0.0,0.0,0.0,0.0,0.0,0.0,0.0,0.0,0.0,0.0,0.0,0.0,0.0,0.0,0.0,0.0,0.0,0.0,0.0,0.0,0.0,0.0,0.0,0.0,0.0,0.0,0.0,0.0,0.0,0.0,0.0,0.0,0.0,0.0,0.0,0.0,0.0,0.0,0.0,0.0,0.0,0.0,0.0,0.0,0.0,0.0,0.0,0.0,0.0,0.0,0.0,0.0,0.0,0.0,0.0,0.0,0.0,0.0,0.0,0.0,0.0,0.0,0.0,0.0,0.0,0.0,0.0,0.0,0.0,0.0,0.0,0.0,0.0,0.0,0.0,0.0,0.0,0.0,0.0,0.1969,0.2436,0.282,0.3366,0.421,0.5556,0.6796,0.779,0.0,0.0,0.0,0.0,0.0,0.0,0.0,0.0,0.0,0.0,0.0,0.0,0.0,0.0,0.0,0.0,0.0,0.0,0.0,0.0,0.0,0.0,0.0,0.0,0.0,0.0,0.0,0.0,0.0,0.0,0.0,0.0,0.0,0.0,0.0,0.0,0.0,0.0,0.0,0.0,0.0,0.0,0.0,0.0,0.0,0.0,0.0,0.0,0.0,0.0,0.0,0.0,0.0,0.0,0.0,0.0,0.0,0.0,0.0,0.0,0.0,0.0,0.0,0.0,0.0,0.0,0.0,0.0,0.0,0.0,0.0,0.0,0.0,0.0,0.0,0.0,0.0,0.0,0.0,0.0,0.0,0.0,0.0,0.0,0.0,0.0,0.0,0.0,0.0,0.0,0.0,0.0,0.0,0.0,0.0,0.0,0.0,0.0,0.0,0.0,0.0,0.0,0.0,0.0,0.3408,0.2062,0.266,0.3323,0.3699,0.5566,0.6878,0.7219,0.0,0.0,0.0,0.0,0.0,0.0,0.0,0.0,0.0,0.0,0.0,0.0,0.0,0.0,0.0,0.0,0.0,0.0,0.0,0.0,0.0,0.0,0.0,0.0,0.0,0.0,0.0,0.0,0.0,0.0,0.0,0.0,0.0,0.0,0.0,0.0,0.0,0.0,0.0,0.0,0.0,0.0,0.0,0.0,0.0,0.0,0.0,0.0,0.0,0.0,0.0,0.0,0.0,0.0,0.0,0.0,0.0,0.0,0.0,0.0,0.0,0.0,0.0,0.0,0.0,0.0,0.0,0.0,0.0,0.0,0.0,0.0,0.0,0.0,0.0,0.0,0.0,0.0,0.0,0.0,0.0,0.0,0.0,0.0,0.0,0.0,0.0,0.0,0.0,0.0,0.0,0.0,0.0,0.0,0.0,0.0,0.0,0.0,0.0,0.0,0.0,0.0,0.0,0.2977,0.2458,0.1658,0.2106,0.2752,0.3534,0.4603,0.5758,0.7032,0.7353,0.0,0.0,0.0,0.0,0.0,0.0,0.0,0.0,0.0,0.0,0.0,0.0,0.0,0.0,0.0,0.0,0.0,0.0,0.0,0.0,0.0,0.0,0.0,0.0,0.0,0.0,0.0,0.0,0.0,0.0,0.0,0.0,0.0,0.0,0.0,0.0,0.0,0.0,0.0,0.0,0.0,0.0,0.0,0.0,0.0,0.0,0.0,0.0,0.0,0.0,0.0,0.0,0.0,0.0,0.0,0.0,0.0,0.0,0.0,0.0,0.0,0.0,0.0,0.0,0.0,0.0,0.0,0.0,0.0,0.0,0.0,0.0,0.0,0.0,0.0,0.0,0.0,0.0,0.0,0.0,0.0,0.0,0.0,0.0,0.0,0.0,0.0,0.0,0.0,0.0,0.0,0.0,0.0,0.0,0.0,0.0,0.0,0.0,0.0,0.0,0.0,0.0,0.157,0.1458,0.157,0.1705,0.222,0.3247,0.3693,0.4714,0.665,0.6988,0.0,0.0,0.0,0.0,0.0,0.0,0.0,0.0,0.0,0.0,0.0,0.0,0.0,0.0,0.0,0.0,0.0,0.0,0.0,0.0,0.0,0.0,0.0,0.0,0.0,0.0,0.0,0.0,0.0,0.0,0.0,0.0,0.0,0.0,0.0,0.0,0.0,0.0,0.0,0.0,0.0,0.0,0.0,0.0,0.0,0.0,0.0,0.0,0.0,0.0,0.0,0.0,0.0,0.0,0.0,0.0,0.0,0.0,0.0,0.0,0.0,0.0,0.0,0.0,0.0,0.0,0.0,0.0,0.0,0.0,0.0,0.0,0.0,0.0,0.0,0.0,0.0,0.0,0.0,0.0,0.0,0.0,0.0,0.0,0.0,0.0,0.0,0.0,0.0,0.0,0.0,0.0,0.0,0.0,0.0,0.0,0.0,0.0,0.0,0.0,0.0,0.0,0.2086,0.1592,0.2087,0.1929,0.2018,0.2536,0.3381,0.4451,0.5719,0.6605,0.0,0.0,0.0,0.0,0.0,0.0,0.0,0.0,0.0,0.0,0.0,0.0,0.0,0.0,0.0,0.0,0.0,0.0,0.0,0.0,0.0,0.0,0.0,0.0,0.0,0.0,0.0,0.0,0.0,0.0,0.0,0.0,0.0,0.0,0.0,0.0,0.0,0.0,0.0,0.0,0.0,0.0,0.0,0.0,0.0,0.0,0.0,0.0,0.0,0.0,0.0,0.0,0.0,0.0,0.0,0.0,0.0,0.0,0.0,0.0,0.0,0.0,0.0,0.0,0.0,0.0,0.0,0.0,0.0,0.0,0.0,0.0,0.0,0.0,0.0,0.0,0.0,0.0,0.0,0.0,0.0,0.0,0.0,0.0,0.0,0.0,0.0,0.0,0.0,0.0,0.0,0.0,0.0,0.0,0.0,0.0,0.0,0.0,0.0,0.0,0.0,0.0,0.1682,0.148,0.1682,0.1615,0.1749,0.2267,0.2645,0.3403,0.4741,0.0,0.0,0.0,0.0,0.0,0.0,0.0,0.0,0.0,0.0,0.0,0.0,0.0,0.0,0.0,0.0,0.0,0.0,0.0,0.0,0.0,0.0,0.0,0.0,0.0,0.0,0.0,0.0,0.0,0.0,0.0,0.0,0.0,0.0,0.0,0.0,0.0,0.0,0.0,0.0,0.0,0.0,0.0,0.0,0.0,0.0,0.0,0.0,0.0,0.0,0.0,0.0,0.0,0.0,0.0,0.0,0.0,0.0,0.0,0.0,0.0,0.0,0.0,0.0,0.0,0.0,0.0,0.0,0.0,0.0,0.0,0.0,0.0,0.0,0.0,0.0,0.0,0.0,0.0,0.0,0.0,0.0,0.0,0.0,0.0,0.0,0.0,0.0,0.0,0.0,0.0,0.0,0.0,0.0,0.0,0.0,0.0,0.0,0.0,0.0,0.0,0.0,0.1615,0.1458,0.1458,0.1637,0.166,0.1794,0.2177,0.2334,0.2914,0.4099,0.0,0.0,0.0,0.0,0.0,0.0,0.0,0.0,0.0,0.0,0.0,0.0,0.0,0.0,0.0,0.0,0.0,0.0,0.0,0.0,0.0,0.0,0.0,0.0,0.0,0.0,0.0,0.0,0.0,0.0,0.0,0.0,0.0,0.0,0.0,0.0,0.0,0.0,0.0,0.0,0.0,0.0,0.0,0.0,0.0,0.0,0.0,0.0,0.0,0.0,0.0,0.0,0.0,0.0,0.0,0.0,0.0,0.0,0.0,0.0,0.0,0.0,0.0,0.0,0.0,0.0,0.0,0.0,0.0,0.0,0.0,0.0,0.0,0.0,0.0,0.0,0.0,0.0,0.0,0.0,0.0,0.0,0.0,0.0,0.0,0.0,0.0,0.0,0.0,0.0,0.0,0.0,0.0,0.0,0.0,0.0,0.0,0.0,0.0,0.0,0.0,0.0,0.1772,0.157,0.1592,0.2132,0.22,0.22,0.22,0.2626,0.3186,0.0,0.0,0.0,0.0,0.0,0.0,0.0,0.0,0.0,0.0,0.0,0.0,0.0,0.0,0.0,0.0,0.0,0.0,0.0,0.0,0.0,0.0,0.0,0.0,0.0,0.0,0.0,0.0,0.0,0.0,0.0,0.0,0.0,0.0,0.0,0.0,0.0,0.0,0.0,0.0,0.0,0.0,0.0,0.0,0.0,0.0,0.0,0.0,0.0,0.0,0.0,0.0,0.0,0.0,0.0,0.0,0.0,0.0,0.0,0.0,0.0,0.0,0.0,0.0,0.0,0.0,0.0,0.0,0.0,0.0,0.0,0.0,0.0,0.0,0.0,0.0,0.0,0.0,0.0,0.0,0.0,0.0,0.0,0.0,0.0,0.0,0.0,0.0,0.0,0.0,0.0,0.0,0.0,0.0,0.0,0.0,0.0,0.0,0.0,0.0,0.0,0.0,0.0,0.1503,0.1458,0.1458,0.1615,0.1637,0.1794,0.2177,0.2334,0.2626,0.3163,0.0,0.0,0.0,0.0,0.0,0.0,0.0,0.0,0.0,0.0,0.0,0.0,0.0,0.0,0.0,0.0,0.0,0.0,0.0,0.0,0.0,0.0,0.0,0.0,0.0,0.0,0.0,0.0,0.0,0.0,0.0,0.0,0.0,0.0,0.0,0.0,0.0,0.0,0.0,0.0,0.0,0.0,0.0,0.0,0.0,0.0,0.0,0.0,0.0,0.0,0.0,0.0,0.0,0.0,0.0,0.0,0.0,0.0,0.0,0.0,0.0,0.0,0.0,0.0,0.0,0.0,0.0,0.0,0.0,0.0,0.0,0.0,0.0,0.0,0.0,0.0,0.0,0.0,0.0,0.0,0.0,0.0,0.0,0.0,0.0,0.0,0.0,0.0,0.0,0.0,0.0,0.0,0.0,0.0,0.0,0.0,0.0,0.0,0.0,0.0,0.0,0.0,0.1391,0.1422,0.1431,0.1431,0.1533,0.1679,0.1909,0.2183,0.2438,0.2647,0.0,0.0,0.0,0.0,0.0,0.0,0.0,0.0,0.0,0.0,0.0,0.0,0.0,0.0,0.0,0.0,0.0,0.0,0.0,0.0,0.0,0.0,0.0,0.0,0.0,0.0,0.0,0.0,0.0,0.0,0.0,0.0,0.0,0.0,0.0,0.0,0.0,0.0,0.0,0.0,0.0,0.0,0.0,0.0,0.0,0.0,0.0,0.0,0.0,0.0,0.0,0.0,0.0,0.0,0.0,0.0,0.0,0.0,0.0,0.0,0.0,0.0,0.0,0.0,0.0,0.0,0.0,0.0,0.0,0.0,0.0,0.0,0.0,0.0,0.0,0.0,0.0,0.0,0.0,0.0,0.0,0.0,0.0,0.0,0.0,0.0,0.0,0.0,0.0,0.0,0.0,0.0,0.0,0.0,0.0,0.0,0.0,0.0,0.0,0.0,0.0,0.0,0.1417,0.1466,0.1508,0.1508,0.1723,0.1789,0.1597,0.2192,0.2526,0.2385,0.0,0.0,0.0,0.0,0.0,0.0,0.0,0.0,0.0,0.0,0.0,0.0,0.0,0.0,0.0,0.0,0.0,0.0,0.0,0.0,0.0,0.0,0.0,0.0,0.0,0.0,0.0,0.0,0.0,0.0,0.0,0.0,0.0,0.0,0.0,0.0,0.0,0.0,0.0,0.0,0.0,0.0,0.0,0.0,0.0,0.0,0.0,0.0,0.0,0.0,0.0,0.0,0.0,0.0,0.0,0.0,0.0,0.0,0.0,0.0,0.742,0.7623,0.0,0.0,0.0,0.0,0.0,0.0,0.0,0.0,0.0,0.0,0.0,0.0,0.0,0.0,0.0,0.0,0.0,0.0,0.0,0.0,0.0,0.0,0.0,0.0,0.0,0.0,0.0,0.0,0.0,0.0,0.0,0.0,0.0,0.0,0.0,0.0,0.0,0.0,0.0,0.0,0.1471,0.1497,0.1492,0.1492,0.1547,0.1741,0.2099,0.2266,0.2528,0.2906,0.2979,0.0,0.0,0.0,0.0,0.0,0.0,0.0,0.0,0.0,0.0,0.0,0.0,0.0,0.0,0.0,0.0,0.0,0.0,0.0,0.0,0.0,0.0,0.0,0.0,0.0,0.0,0.0,0.0,0.0,0.0,0.0,0.0,0.0,0.0,0.0,0.0,0.0,0.0,0.0,0.0,0.0,0.0,0.0,0.0,0.0,0.0,0.0,0.0,0.0,0.0,0.0,0.0,0.0,0.0,0.0,0.0,0.0,0.0,0.0,0.6855,0.7379,0.0,0.0,0.0,0.0,0.0,0.0,0.0,0.0,0.0,0.0,0.0,0.0,0.0,0.0,0.0,0.0,0.0,0.0,0.0,0.0,0.0,0.0,0.0,0.0,0.0,0.0,0.0,0.0,0.0,0.0,0.0,0.0,0.0,0.0,0.0,0.0,0.0,0.0,0.0,0.0,0.1502,0.153,0.1547,0.1547,0.1537,0.1669,0.1938,0.2206,0.2476,0.2742,0.2985,0.0,0.0,0.0,0.0,0.0,0.0,0.0,0.0,0.0,0.0,0.0,0.0,0.0,0.0,0.0,0.0,0.0,0.0,0.0,0.0,0.0,0.0,0.0,0.0,0.0,0.0,0.0,0.0,0.0,0.0,0.0,0.0,0.0,0.0,0.0,0.0,0.0,0.0,0.0,0.0,0.0,0.0,0.0,0.0,0.0,0.0,0.0,0.0,0.0,0.0,0.0,0.0,0.0,0.6281,0.5888,0.5141,0.5924,0.5399,0.4008,0.6296,0.6958,0.644,0.6487,0.0,0.0,0.0,0.0,0.0,0.0,0.0,0.0,0.0,0.0,0.0,0.0,0.0,0.0,0.0,0.0,0.0,0.0,0.0,0.0,0.0,0.0,0.2706,0.194,0.1742,0.1679,0.1473,0.0,0.0,0.0,0.0,0.0,0.0,0.0,0.0,0.0,0.0,0.0,0.1518,0.1573,0.162,0.162,0.1617,0.1632,0.1683,0.2089,0.2394,0.2496,0.2921,0.3148,0.0,0.0,0.0,0.0,0.0,0.0,0.0,0.0,0.0,0.0,0.0,0.0,0.0,0.0,0.0,0.0,0.0,0.0,0.0,0.0,0.0,0.0,0.0,0.0,0.0,0.0,0.0,0.0,0.0,0.0,0.0,0.0,0.666,0.7307,0.0,0.0,0.0,0.0,0.0,0.0,0.0,0.0,0.0,0.0,0.0,0.0,0.0,0.4189,0.4189,0.4359,0.4445,0.4445,0.4568,0.4564,0.4427,0.4564,0.4475,0.4255,0.4625,0.0,0.4239,0.4406,0.0,0.0,0.0,0.0,0.0,0.0,0.0,0.0,0.0,0.0,0.0,0.0,0.0,0.0,0.0,0.0,0.0,0.0,0.0,0.0,0.0,0.0,0.1682,0.1567,0.1542,0.1538,0.1491,0.1493,0.1498,0.1498,0.1495,0.1491,0.0,0.0,0.0,0.0,0.0,0.0,0.1579,0.1652,0.1686,0.1686,0.169,0.1772,0.201,0.209,0.2354,0.2885,0.2921,0.3047,0.3271,0.3271,0.0,0.0,0.0,0.0,0.0,0.0,0.0,0.0,0.0,0.0,0.0,0.0,0.0,0.0,0.0,0.0,0.0,0.0,0.0,0.0,0.0,0.0,0.0,0.0,0.0,0.0,0.0,0.0,0.0,0.7341,0.6954,0.6965,0.6762,0.6627,0.0,0.0,0.0,0.0,0.0,0.0,0.0,0.0,0.0,0.4086,0.4086,0.4086,0.4086,0.417,0.4212,0.4212,0.4271,0.4024,0.3534,0.4065,0.3708,0.2707,0.3266,0.3099,0.2548,0.3736,0.4166,0.409,0.0,0.0,0.0,0.0,0.4425,0.438,0.4091,0.3979,0.389,0.3377,0.0,0.0,0.0,0.0,0.0,0.0,0.0,0.1602,0.1486,0.1472,0.134,0.0752,0.0591,0.0428,-0.0167,-0.0337,0.0024,0.1252,0.1494,0.1512,0.1546,0.1553,0.0,0.0,0.0,0.1666,0.1666,0.1689,0.1704,0.1704,0.1704,0.1757,0.1864,0.2185,0.2504,0.277,0.3041,0.3239,0.3347,0.3347,0.3331,0.0,0.0,0.0,0.0,0.0,0.0,0.0,0.0,0.0,0.0,0.0,0.0,0.0,0.0,0.0,0.0,0.0,0.0,0.0,0.0,0.0,0.0,0.0,0.0,0.0,0.0,0.0,0.0,0.7444,0.727,0.6805,0.6547,0.6413,0.0,0.0,0.0,0.0,0.0,0.0,0.3805,0.3879,0.3823,0.3578,0.3552,0.3552,0.3552,0.3552,0.3552,0.3552,0.3552,0.3199,0.2531,0.3243,0.2782,0.1469,0.2214,0.2107,0.1526,0.2964,0.3552,0.3552,0.3552,0.3552,0.3552,0.3552,0.3552,0.3489,0.2953,0.2756,0.2645,0.1956,0.1869,0.1937,0.155,0.0,0.0,0.0,0.0,0.143,0.1168,0.108,0.0798,-0.029,-0.056,-0.0784,-0.1568,-0.1778,-0.134,0.0341,0.0634,0.0644,0.0687,0.0716,0.0,0.0769,0.0801,0.0803,0.0803,0.0807,0.0809,0.0809,0.1079,0.1269,0.1269,0.197,0.2457,0.2619,0.2999,0.3296,0.3458,0.3458,0.3436,0.339,0.0,0.0,0.0,0.0,0.0,0.0,0.0,0.0,0.0,0.0,0.0,0.0,0.0,0.0,0.0,0.0,0.0,0.0,0.0,0.0,0.0,0.0,0.0,0.0,0.0,0.0,0.0,0.0,0.0,0.6877,0.6114,0.0,0.0,0.0,0.0,0.4342,0.4324,0.3905,0.3017,0.2978,0.2531,0.1569,0.1546,0.1546,0.1546,0.1546,0.1546,0.1546,0.1546,0.1525,0.148,0.1525,0.1518,0.1501,0.1547,0.1541,0.1494,0.1527,0.1546,0.1546,0.1546,0.1546,0.1546,0.1546,0.1546,0.1551,0.1583,0.1593,0.1576,0.1535,0.1521,0.1521,0.1498,0.1499,0.0,0.0,0.1502,0.1263,0.0238,-0.0073,-0.0377,-0.1458,-0.1754,-0.1824,-0.1877,-0.1906,-0.1837,-0.1672,-0.1679,-0.172,-0.1722,0.0,-0.1724,-0.1727,-0.1672,-0.1635,-0.1635,-0.1631,-0.162,-0.162,-0.0587,0.0084,0.0084,0.1175,0.2099,0.2658,0.2714,0.2994,0.3578,0.3578,0.3578,0.3575,0.3518,0.0,0.0,0.0,0.0,0.0,0.0,0.0,0.0,0.0,0.0,0.0,0.0,0.0,0.0,0.0,0.0,0.0,0.0,0.0,0.0,0.0,0.0,0.0,0.0,0.0,0.0,0.0,0.0,0.6103,0.5303,0.0,0.4799,0.3957,0.34,0.34,0.2797,0.2283,0.1949,0.1927,0.1772,0.1413,0.1432,0.1464,0.1464,0.146,0.1471,0.1471,0.1471,0.1471,0.1471,0.1471,0.1476,0.151,0.151,0.1492,0.15,0.1479,0.1471,0.1471,0.1471,0.1471,0.1471,0.1471,0.1471,0.1472,0.1483,0.151,0.1512,0.1499,0.1502,0.1506,0.155,0.1569,0.1415,0.0678,0.0483,0.0205,-0.0947,-0.1265,-0.1566,-0.2637,-0.29,-0.3111,-0.3801,-0.3999,-0.4014,-0.3993,-0.287,-0.1893,-0.1835,-0.1838,-0.1845,-0.1838,-0.1842,-0.1861,-0.1861,-0.1944,-0.1991,-0.1991,-0.1618,-0.1358,-0.1358,0.0029,0.0983,0.1214,0.2198,0.2952,0.3385,0.3414,0.3501,0.3732,0.3713,0.3702,0.0,0.0,0.0,0.0,0.0,0.0,0.0,0.0,0.0,0.0,0.0,0.0,0.0,0.0,0.0,0.0,0.0,0.0,0.0,0.0,0.0,0.0,0.0,0.0,0.0,0.5491,0.5124,0.522,0.4403,0.3823,0.3823,0.2956,0.2397,0.2397,0.177,0.1417,0.1428,0.1428,0.1432,0.1443,0.1486,0.1495,0.1495,0.1492,0.1502,0.1502,0.1512,0.1542,0.1542,0.1527,0.1538,0.1572,0.1572,0.1577,0.1561,0.1561,0.1561,0.1558,0.1518,0.1502,0.1502,0.1502,0.1508,0.1545,0.1565,0.1579,0.1561,0.1561,0.1561,0.149,0.1132,0.1019,0.0773,-0.0391,-0.0712,-0.0985,-0.2126,-0.2455,-0.2735,-0.3811,-0.4118,-0.4368,-0.5079,-0.5289,-0.5322,-0.5322,-0.414,-0.3094,-0.3047,-0.3066,-0.3089,-0.3068,-0.3131,-0.3152,-0.3152,-0.324,-0.3289,-0.3289,-0.2937,-0.2702,-0.2702,-0.0911,0.0323,0.0559,0.1971,0.3002,0.3445,0.3474,0.3563,0.3798,0.3798,0.3798,0.3798,0.0,0.0,0.0,0.0,0.0,0.0,0.0,0.0,0.0,0.0,0.0,0.0,0.0,0.0,0.0,0.0,0.0,0.0,0.0,0.0,0.0,0.0,0.0,0.4287,0.4265,0.4265,0.4265,0.3422,0.2844,0.2844,0.1973,0.1414,0.1414,0.1393,0.1428,0.1504,0.1505,0.1495,0.1502,0.1504,0.1504,0.1504,0.1507,0.1507,0.1508,0.1562,0.1601,0.1602,0.1606,0.1636,0.1689,0.1689,0.1706,0.1704,0.1704,0.1704,0.1693,0.1553,0.1507,0.1507,0.1507,0.1526,0.1559,0.1566,0.1576,0.1598,0.1598,0.1598,0.1358,0.0213,-0.016,-0.0399,-0.1624,-0.1944,-0.2211,-0.3281,-0.3617,-0.3935,-0.4955,-0.5358,-0.5512,-0.5512,-0.5553,-0.5614,-0.5614,-0.5545,-0.5516,-0.5512,-0.5557,-0.5614,-0.5614,-0.5618,0.0,-0.5618,-0.5622,-0.5622,-0.5622,-0.4624,-0.3977,-0.3974,-0.1678,0.0059,0.0736,0.2003,0.3036,0.3715,0.3774,0.3803,0.3803,0.3803,0.3803,0.3801,0.0,0.0,0.0,0.0,0.0,0.0,0.0,0.0,0.0,0.0,0.0,0.0,0.0,0.0,0.0,0.0,0.0,0.0,0.0,0.0,0.0,0.3448,0.3534,0.4198,0.3712,0.3291,0.3291,0.2419,0.1815,0.1815,0.1614,0.1468,0.1468,0.1465,0.1482,0.149,0.149,0.1494,0.1502,0.1545,0.1567,0.1567,0.1609,0.1655,0.1655,0.1663,0.1667,0.1667,0.1677,0.1685,0.1693,0.1693,0.1697,0.1704,0.1704,0.1704,0.1701,0.1667,0.1655,0.1655,0.1655,0.1116,0.0235,-0.0605,-0.09,-0.0904,-0.0904,-0.0904,-0.0959,-0.1242,-0.1328,-0.1575,-0.2804,-0.3172,-0.3485,-0.4638,-0.5009,-0.5127,-0.5418,-0.554,-0.5577,-0.5577,-0.5597,-0.5614,-0.5614,-0.5676,-0.5684,-0.5589,-0.5597,-0.5614,-0.5614,-0.567,-0.5741,-0.5741,-0.5802,-0.5813,-0.5813,-0.5594,-0.5391,-0.5361,-0.3899,-0.2706,-0.1977,0.0,0.1553,0.2467,0.3199,0.3686,0.3872,0.3872,0.3877,0.0,0.0,0.0,0.0,0.0,0.0,0.0,0.0,0.0,0.0,0.0,0.0,0.0,0.0,0.0,0.0,0.0,0.0,0.0,0.0,0.0,0.0,0.2573,0.2497,0.306,0.2633,0.2271,0.2313,0.1794,0.1436,0.1449,0.1465,0.15,0.15,0.1528,0.155,0.1539,0.1576,0.1588,0.1575,0.1609,0.1654,0.1654,0.1686,0.1704,0.1704,0.1718,0.175,0.1723,0.122,0.1252,0.1715,0.1206,0.0962,0.0935,0.0942,0.0611,0.0166,0.0,0.0,0.0,0.0,-0.0215,-0.0916,-0.1626,-0.1884,-0.1894,-0.1894,-0.1931,-0.2085,-0.2526,-0.2675,-0.2934,-0.4101,-0.4459,-0.4666,-0.5359,-0.5573,-0.5614,-0.5614,-0.5642,-0.567,-0.567,-0.5703,-0.5727,-0.5727,-0.58,0.0,-0.5792,-0.5752,-0.5727,-0.5727,-0.5802,-0.5839,-0.5839,-0.5886,-0.585,-0.5567,-0.558,-0.5484,-0.5123,-0.3986,0.0,0.0,0.0,0.0971,0.2118,0.274,0.0,0.0,0.0,0.3901,0.3897,0.3897,0.0,0.0,0.3814,0.3812,0.0,0.0,0.0,0.0,0.0,0.0,0.0,0.0,0.0,0.0,0.0,0.0,0.0,0.0,0.0,0.0,0.2038,0.1509,0.1509,0.144,0.1433,0.1482,0.1509,0.1497,0.1499,0.1508,0.1512,0.1512,0.1568,0.1623,0.16,0.1678,0.0,0.0,0.0,0.1711,0.1714,0.1718,0.1722,0.1725,0.1779,0.1738,0.1545,0.0476,0.0479,0.1297,0.0229,-0.0259,-0.0317,-0.0321,-0.1116,-0.2161,-0.0855,-0.0323,-0.0459,-0.1615,-0.2036,-0.2069,-0.2185,0.0,0.0,-0.2331,-0.2411,-0.2702,-0.376,-0.4086,-0.4291,-0.5321,-0.5622,-0.563,-0.563,-0.5638,-0.5646,-0.5646,-0.5745,-0.581,-0.581,-0.5884,-0.5945,-0.5945,-0.5983,-0.6036,-0.6036,-0.5967,-0.5945,-0.5945,-0.5945,-0.5945,-0.5945,-0.5987,-0.5784,-0.521,-0.512,0.0,-0.419,-0.3035,-0.2164,-0.1771,-0.0483,0.0865,0.2183,0.2246,0.2641,0.3536,0.3691,0.3753,0.3753,0.3877,0.3908,0.3908,0.3907,0.391,0.0,0.0,0.0,0.0,0.0,0.0,0.0,0.0,0.0,0.0,0.0,0.0,0.0,0.0,0.0,0.1884,0.1614,0.1494,0.1494,0.1488,0.1487,0.1492,0.1494,0.1496,0.1502,0.1546,0.1574,0.1574,0.1648,0.1681,0.1686,0.1693,0.1699,0.1704,0.1754,0.1781,0.1778,0.1773,0.1798,0.1851,0.1886,0.0,0.0261,0.0029,-0.0553,-0.1368,-0.1605,-0.1695,-0.1724,-0.1701,-0.2438,-0.3435,-0.2201,-0.17,-0.1846,-0.3067,-0.3509,-0.3624,-0.4538,-0.4871,-0.4885,-0.4885,-0.4896,-0.4965,-0.5203,-0.5262,0.0,-0.5526,-0.5666,-0.5753,-0.5753,-0.581,-0.5833,-0.5833,-0.5902,-0.5971,-0.5971,-0.6068,-0.6129,-0.6129,-0.6145,-0.6157,-0.6157,-0.6141,-0.6129,-0.6129,-0.6129,-0.6129,-0.6129,-0.6145,-0.6125,-0.5994,-0.549,-0.5089,-0.4901,-0.4202,-0.3493,-0.2775,-0.1257,0.0064,0.1156,0.1188,0.1282,0.1471,0.2332,0.2779,0.2779,0.3643,0.4061,0.4058,0.3999,0.3977,0.0,0.0,0.0,0.0,0.0,0.0,0.0,0.0,0.0,0.0,0.0,0.3319,0.2367,0.0,0.2042,0.1574,0.1528,0.1549,0.1549,0.1575,0.1588,0.1549,0.1547,0.1558,0.1588,0.1643,0.166,0.166,0.1701,0.1754,0.1754,0.1756,0.1745,0.1745,0.1802,0.1854,0.184,0.1855,0.1519,0.0912,0.0912,0.0206,-0.1116,-0.1733,-0.2027,-0.2144,-0.2696,-0.3002,-0.3094,-0.3747,-0.4364,-0.4847,-0.4241,-0.3931,-0.3936,-0.4526,-0.476,-0.4822,-0.5409,-0.5646,-0.5712,-0.5712,-0.5715,-0.5752,-0.5752,-0.5752,-0.5752,-0.5752,-0.5817,-0.5886,-0.5886,-0.5982,-0.6047,-0.6047,-0.6084,-0.6085,-0.6085,-0.6149,-0.6214,-0.6214,-0.6219,-0.6247,-0.6247,-0.6321,-0.6321,-0.6226,-0.6214,-0.6214,-0.6214,-0.6219,-0.6118,-0.5728,-0.5145,-0.4576,-0.4182,-0.3581,-0.3021,-0.2638,-0.1845,-0.092,0.0098,0.0163,0.039,0.0903,0.1418,0.1707,0.1707,0.2224,0.2514,0.2514,0.2514,0.3049,0.0,0.0,0.0,0.0,0.0,0.0,0.0,0.529,0.4723,0.322,0.2749,0.2395,0.1628,0.1515,0.1511,0.1511,0.1565,0.1614,0.1614,0.1661,0.1689,0.1644,0.1637,0.1652,0.17,0.171,0.1715,0.1722,0.1778,0.1797,0.1832,0.1823,0.182,0.182,0.1609,0.1504,0.1539,0.1271,0.0592,-0.0475,-0.0475,-0.1157,-0.2489,-0.347,-0.35,-0.2877,-0.3817,-0.4265,-0.4449,-0.5487,-0.5886,-0.589,-0.5906,-0.5821,-0.5661,-0.5675,-0.5666,-0.5666,-0.5666,-0.5715,-0.581,-0.5827,-0.5884,-0.5914,-0.5965,-0.597,-0.597,-0.597,-0.5991,-0.6044,-0.6044,-0.6129,-0.6214,-0.6214,-0.6194,-0.6206,-0.6206,-0.6255,-0.6267,-0.6267,-0.6292,-0.6341,-0.6341,-0.6307,-0.6269,-0.6255,-0.6267,-0.6267,-0.6267,-0.6296,-0.6045,-0.532,-0.4672,-0.3964,-0.3094,-0.2524,-0.2189,-0.2189,-0.2189,-0.1808,-0.096,-0.0926,-0.0526,0.0293,0.052,0.0618,0.0618,0.0845,0.0943,0.0943,0.0987,0.1903,0.5852,0.5248,0.4621,0.4621,0.4621,0.4576,0.0,0.381,0.3155,0.2948,0.2249,0.1616,0.1521,0.1546,0.1591,0.1591,0.1639,0.1678,0.1678,0.1706,0.1708,0.1758,0.1738,0.1697,0.1704,0.1756,0.1783,0.1783,0.1785,0.1813,0.1898,0.1877,0.188,0.188,0.0735,0.0148,0.021,-0.096,-0.1631,-0.1775,-0.1775,-0.2448,-0.3702,-0.3824,-0.4471,-0.5487,-0.5621,-0.5686,-0.5686,-0.5851,-0.5886,-0.5894,-0.5975,-0.5964,-0.5936,-0.5886,-0.5857,-0.5857,-0.5857,-0.5861,-0.5886,-0.5967,-0.5968,-0.602,-0.6129,-0.6149,-0.6149,-0.6149,-0.6157,-0.6166,-0.6166,-0.6206,-0.6214,-0.6214,-0.6243,-0.63,-0.63,-0.6399,-0.6456,-0.6456,-0.6464,-0.6473,-0.6473,-0.5945,-0.5744,-0.636,-0.6456,-0.6456,-0.6456,-0.6464,-0.6205,-0.5469,-0.4736,-0.3765,-0.2423,-0.2256,-0.2189,-0.2189,-0.2189,-0.2153,-0.2016,-0.2016,-0.1979,-0.1843,-0.0871,-0.0335,-0.0335,0.0602,0.107,0.107,0.1072,0.1165,0.4892,0.4603,0.431,0.431,0.4306,0.4165,0.3597,0.3219,0.28,0.2212,0.1794,0.1553,0.1553,0.1617,0.1649,0.1649,0.1685,0.1713,0.1713,0.1739,0.1763,0.1802,0.177,0.1755,0.1755,0.1795,0.1814,0.1846,0.1859,0.1873,0.1885,0.1903,0.1553,0.0805,0.0241,-0.0394,-0.1158,-0.1707,-0.2426,-0.3211,-0.3211,-0.3914,-0.5241,-0.5241,-0.5528,-0.6072,-0.6072,-0.6072,-0.6072,-0.6072,-0.6072,-0.6076,-0.6112,-0.6129,-0.6121,-0.6084,-0.6072,-0.6072,-0.6072,-0.6072,-0.6076,-0.6117,-0.6129,-0.6133,-0.617,-0.6214,-0.6214,-0.6214,-0.6219,-0.6259,-0.6259,-0.6333,-0.6374,-0.6374,-0.6403,-0.6431,-0.6431,-0.646,-0.6388,-0.5949,-0.5852,-0.5714,-0.5309,-0.4973,-0.4873,-0.5175,-0.5208,-0.5208,-0.5208,-0.5208,-0.494,-0.4202,-0.3833,-0.3262,-0.2289,-0.2189,-0.2189,-0.2189,-0.2189,-0.2189,-0.2189,-0.2189,-0.2189,-0.2189,-0.1717,-0.1481,-0.1481,-0.1043,-0.0807,-0.0807,-0.0807,-0.0838,0.3578,0.3525,0.3519,0.3519,0.3526,0.335,0.2679,0.2557,0.2402,0.1682,0.1562,0.1612,0.162,0.1659,0.1691,0.1699,0.1724,0.1716,0.1716,0.1769,0.1793,0.1801,0.1813,0.1818,0.1834,0.1829,0.1836,0.1896,0.1898,0.1753,0.1402,0.1388,0.079,-0.0549,-0.0924,-0.1614,-0.2586,-0.296,-0.3664,-0.4687,-0.4687,-0.5224,-0.6214,-0.6214,-0.6214,-0.6214,-0.6214,-0.6214,-0.6214,-0.6214,-0.6214,-0.6214,-0.6206,-0.6219,-0.6223,-0.628,-0.6255,-0.6214,-0.6214,-0.6214,-0.6218,-0.621,-0.6219,-0.6223,-0.628,-0.6288,-0.6288,-0.6288,-0.6304,-0.6353,-0.6353,-0.6436,-0.6489,-0.6489,-0.6351,-0.6187,-0.6187,-0.6049,-0.5748,-0.5211,-0.5111,-0.494,-0.44,-0.4132,-0.3998,-0.3998,-0.383,-0.3866,-0.4266,-0.4132,-0.3799,-0.3262,-0.3026,-0.2726,-0.2256,-0.2189,-0.2189,-0.2189,-0.2189,-0.2189,-0.2189,-0.2189,-0.2189,-0.2189,-0.2189,-0.2189,-0.2189,-0.2189,-0.2189,-0.2189,-0.2189,-0.2189,0.1748,0.1524,0.1595,0.1595,0.1596,0.1572,0.1548,0.1597,0.1644,0.1595,0.1594,0.1625,0.1679,0.1686,0.1697,0.1699,0.1756,0.1802,0.1802,0.1803,0.1805,0.1805,0.181,0.1834,0.1892,0.1902,0.1896,0.1898,0.1899,0.1365,0.0123,0.0062,-0.0589,-0.1979,-0.3302,-0.4023,-0.4147,-0.5433,-0.611,-0.6142,-0.6142,-0.6146,-0.6214,-0.6214,-0.6214,-0.6214,-0.6214,-0.6214,-0.6214,-0.6214,-0.6214,-0.6222,-0.6276,-0.6313,-0.6325,-0.6448,-0.6366,-0.6214,-0.6214,-0.6214,-0.6194,-0.6284,-0.6313,-0.6329,-0.6452,-0.6481,-0.6481,-0.6481,-0.6481,-0.6485,-0.6485,-0.6485,-0.6489,-0.6489,-0.5949,-0.545,-0.545,-0.4873,-0.4367,-0.4333,-0.4333,-0.4333,-0.43,-0.3698,-0.3228,-0.3228,-0.2692,-0.2759,-0.4132,-0.3665,-0.3228,-0.3194,-0.2625,-0.2223,-0.2189,-0.2189,-0.2189,-0.2189,-0.2189,-0.2189,-0.2189,-0.2189,-0.2189,-0.2189,-0.2189,-0.2189,-0.2189,-0.2189,-0.2189,-0.2189,-0.2189,-0.2189,0.1554,0.1489,0.1509,0.1506,0.1534,0.1555,0.1555,0.158,0.1602,0.1602,0.1626,0.1675,0.1686,0.1747,0.1777,0.176,0.1787,0.1807,0.1807,0.1806,0.18,0.181,0.1847,0.1879,0.1899,0.1892,0.1928,0.1959,0.1133,0.0431,-0.0031,-0.0907,-0.2045,-0.3447,-0.3928,-0.4609,-0.5504,-0.5985,-0.621,-0.6272,-0.6366,-0.6395,-0.6395,-0.6395,-0.6395,-0.6395,-0.6395,-0.6395,-0.6395,-0.6395,-0.6395,-0.6399,-0.6427,-0.644,-0.6444,-0.6477,-0.6448,-0.6395,-0.6395,-0.6395,-0.6399,-0.6431,-0.644,-0.6448,-0.6477,-0.6489,-0.6489,-0.6489,-0.6489,-0.6489,-0.6489,-0.615,-0.5785,-0.5785,-0.5211,-0.4672,-0.4672,-0.447,-0.4166,-0.3665,-0.3564,-0.343,-0.2995,-0.2692,-0.2524,-0.2524,-0.2356,-0.2356,-0.286,-0.2692,-0.2524,-0.2524,-0.2322,-0.2189,-0.2189,-0.2189,-0.2189,-0.2189,-0.2189,-0.2189,-0.2189,-0.2189,-0.2189,-0.2189,-0.2189,-0.2189,-0.2189,-0.2189,-0.2189,-0.2189,-0.2189,-0.2189,0.1479,0.1512,0.1541,0.1538,0.1565,0.1612,0.1612,0.1611,0.1633,0.1633,0.1682,0.1707,0.1718,0.1778,0.1808,0.1792,0.1791,0.181,0.181,0.1809,0.1832,0.1843,0.1877,0.1906,0.1947,0.1467,0.1201,0.1243,0.0466,-0.0469,-0.1523,-0.238,-0.3481,-0.4894,-0.4962,-0.5397,-0.6312,-0.6312,-0.6341,-0.6366,-0.646,-0.6489,-0.6489,-0.6489,-0.6489,-0.6489,-0.6489,-0.6489,-0.6489,-0.6489,-0.6489,-0.6489,-0.6489,-0.6489,-0.6489,-0.6489,-0.6489,-0.6489,-0.6489,-0.6489,-0.6489,-0.6489,-0.6489,-0.6489,-0.6489,-0.6489,-0.6451,-0.6187,-0.612,-0.6049,-0.5781,-0.5379,-0.501,-0.501,-0.4437,-0.39,-0.39,-0.3732,-0.3396,-0.2928,-0.286,-0.2692,-0.2289,-0.2189,-0.2189,-0.2189,-0.2189,-0.2189,-0.2189,-0.2189,-0.2189,-0.2189,-0.2189,-0.2189,-0.2189,-0.2189,-0.2189,-0.2189,-0.2189,-0.2189,-0.2189,-0.2189,-0.2189,-0.2189,-0.2189,-0.2189,-0.2189,-0.2189,-0.2189,-0.2189,-0.2189,-0.2189,0.1494,0.1552,0.1596,0.1598,0.1595,0.1592,0.1594,0.1641,0.1689,0.1691,0.1713,0.1715,0.1799,0.1805,0.1789,0.179,0.1792,0.1812,0.1812,0.1868,0.1899,0.1898,0.1903,0.1914,0.1911,0.0688,-0.0158,-0.0284,-0.0316,-0.146,-0.4056,-0.4283,-0.493,-0.6255,-0.6325,-0.6366,-0.6485,-0.6489,-0.6489,-0.6489,-0.6489,-0.6489,-0.6489,-0.6489,-0.6489,-0.6489,-0.6489,-0.6489,-0.6489,-0.6489,-0.6489,-0.6489,-0.6489,-0.6489,-0.6489,-0.6489,-0.6489,-0.6489,-0.6489,-0.6489,-0.6489,-0.6489,-0.6489,-0.6489,-0.6489,-0.6489,-0.6288,-0.558,-0.5379,-0.5178,-0.447,-0.4266,-0.4233,-0.4233,-0.3698,-0.3161,-0.3161,-0.2658,-0.2189,-0.2189,-0.2189,-0.2189,-0.2189,-0.2189,-0.2189,-0.2189,-0.2189,-0.2189,-0.2189,-0.2189,-0.2189,-0.2189,-0.2189,-0.2189,-0.2189,-0.2189,-0.2189,-0.2189,-0.2189,-0.2189,-0.2189,-0.2189,-0.2189,-0.2189,-0.2189,-0.2189,-0.2189,-0.2189,-0.2189,-0.2189,-0.2189,-0.2189,0.1572,0.1577,0.1602,0.1599,0.1611,0.1622,0.1671,0.1682,0.1695,0.1689,0.1745,0.1768,0.1802,0.1796,0.1814,0.1794,0.1792,0.1812,0.1812,0.1856,0.1892,0.19,0.1951,0.1598,0.0617,0.0125,-0.095,-0.3007,-0.3169,-0.3479,-0.4248,-0.5233,-0.596,-0.6448,-0.6452,-0.6464,-0.6489,-0.6489,-0.6489,-0.6489,-0.6489,-0.6489,-0.6489,-0.6489,-0.6489,-0.6489,-0.6489,-0.6489,-0.6489,-0.6489,-0.6489,-0.6489,-0.6489,-0.6489,-0.6489,-0.6489,-0.6489,-0.6489,-0.6489,-0.6489,-0.6489,-0.6489,-0.6489,-0.6489,-0.6489,-0.6116,-0.5647,-0.545,-0.501,-0.4537,-0.4333,-0.39,-0.3497,-0.3497,-0.2961,-0.2457,-0.2457,-0.2322,-0.2189,-0.2189,-0.2189,-0.2189,-0.2189,-0.2189,-0.2189,-0.2189,-0.2189,-0.2189,-0.2189,-0.2189,-0.2189,-0.2189,-0.2189,-0.2189,-0.2189,-0.2189,-0.2189,-0.2189,-0.2189,-0.2189,-0.2189,-0.2189,-0.2189,-0.2189,-0.2189,-0.2189,-0.2189,-0.2189,-0.2189,-0.2189,-0.2189,-0.2189,0.1591,0.1594,0.1595,0.1588,0.1626,0.1641,0.1685,0.1735,0.1732,0.1747,0.1775,0.1797,0.1797,0.1811,0.18,0.1813,0.1812,0.1836,0.1849,0.1891,0.1738,0.1127,0.1105,0.0587,-0.0777,-0.1513,-0.2559,-0.4123,-0.4255,-0.4544,-0.5241,-0.5977,-0.6431,-0.6485,-0.6489,-0.6489,-0.6489,-0.6489,-0.6489,-0.6489,-0.6489,-0.6489,-0.6489,-0.6489,-0.6489,-0.6489,-0.6489,-0.6489,-0.6489,-0.6489,-0.6489,-0.6489,-0.6489,-0.6489,-0.6489,-0.6489,-0.6489,-0.6489,-0.6489,-0.6288,-0.6087,-0.6388,-0.6288,-0.6016,-0.6016,-0.5513,-0.4842,-0.454,-0.4135,-0.3765,-0.3463,-0.306,-0.2759,-0.2759,-0.249,-0.2189,-0.2189,-0.2189,-0.2189,-0.2189,-0.2189,-0.2189,-0.2189,-0.2189,-0.2189,-0.2189,-0.2189,-0.2189,-0.2189,-0.2189,-0.2189,-0.2189,-0.2189,-0.2189,-0.2189,-0.2189,-0.2189,-0.2189,-0.2189,-0.2189,-0.2189,-0.2189,-0.2189,-0.2189,-0.2189,-0.2189,-0.2189,-0.2189,-0.2189,-0.2189,-0.2189,-0.2189,0.1609,0.1596,0.1592,0.1592,0.164,0.1689,0.1693,0.1763,0.1805,0.1809,0.1804,0.1795,0.1795,0.1795,0.1805,0.1806,0.1866,0.1896,0.1896,0.1803,0.1296,0.0123,-0.0154,-0.0805,-0.2232,-0.3477,-0.4306,-0.4532,-0.458,-0.5139,-0.6414,-0.6489,-0.6489,-0.6489,-0.6489,-0.6489,-0.6489,-0.6489,-0.6489,-0.6489,-0.6489,-0.6489,-0.6489,-0.6489,-0.6489,-0.6489,-0.6489,-0.6489,-0.6489,-0.6489,-0.6489,-0.6489,-0.6489,-0.6489,-0.6489,-0.6489,-0.6489,-0.6489,-0.6489,-0.6016,-0.5513,-0.615,-0.5848,-0.5245,-0.5245,-0.4739,-0.4034,-0.3396,-0.3127,-0.2928,-0.2356,-0.2189,-0.2189,-0.2189,-0.2189,-0.2189,-0.2189,-0.2189,-0.2189,-0.2189,-0.2189,-0.2189,-0.2189,-0.2189,-0.2189,-0.2189,-0.2189,-0.2189,-0.2189,-0.2189,-0.2189,-0.2189,-0.2189,-0.2189,-0.2189,-0.2189,-0.2189,-0.2189,-0.2189,-0.2189,-0.2189,-0.2189,-0.2189,-0.2189,-0.2189,-0.2189,-0.2189,-0.2189,-0.2189,-0.2189,-0.2189,-0.2189,0.161,0.1588,0.1592,0.1592,0.164,0.1695,0.1692,0.1751,0.0,0.181,0.1791,0.1795,0.1795,0.1795,0.1805,0.1806,0.1866,0.1896,0.1896,0.1008,0.0247,0.0031,-0.0985,-0.2197,-0.3614,-0.4021,-0.4694,-0.585,-0.6055,-0.6235,-0.6485,-0.6489,-0.6489,-0.6489,-0.6489,-0.6489,-0.6489,-0.6489,-0.6489,-0.6489,-0.6489,-0.6489,-0.6489,-0.6489,-0.6489,-0.6489,-0.6489,-0.6489,-0.6489,-0.6489,-0.6489,-0.6489,-0.6489,-0.6489,-0.6489,-0.6489,-0.6489,-0.6489,-0.6489,-0.6016,-0.5416,-0.555,-0.5077,-0.4504,-0.4504,-0.3967,-0.3362,-0.3228,-0.2793,-0.2356,-0.2223,-0.2189,-0.2189,-0.2189,-0.2189,-0.2189,-0.2189,-0.2189,-0.2189,-0.2189,-0.2189,-0.2189,-0.2189,-0.2189,-0.2189,-0.2189,-0.2189,-0.2189,-0.2189,-0.2189,-0.2189,-0.2189,-0.2189,-0.2189,-0.2189,-0.2189,-0.2189,-0.2189,-0.2189,-0.2189,-0.2189,-0.2189,-0.2189,-0.2189,-0.2189,-0.2189,-0.2189,-0.2189,-0.2189,-0.2189,-0.2189,-0.2189,0.1592,0.1592,0.1596,0.1636,0.1689,0.1718,0.1749,0.0,0.0,0.1791,0.1795,0.1795,0.1795,0.1808,0.18,0.1859,0.1889,0.1919,0.1951,0.1413,0.0524,-0.0863,-0.1643,-0.2882,-0.4991,-0.5261,-0.5599,-0.6349,-0.646,-0.6489,-0.6489,-0.6489,-0.6489,-0.6489,-0.6489,-0.6489,-0.6489,-0.6489,-0.6489,-0.6489,-0.6489,-0.6489,-0.6489,-0.6489,-0.6489,-0.6489,-0.6489,-0.6489,-0.6489,-0.6489,-0.6288,-0.5915,-0.5915,-0.5681,-0.5342,-0.5342,-0.5342,-0.5342,-0.5342,-0.4873,-0.4269,-0.4269,-0.4,-0.3732,-0.3732,-0.3228,-0.2692,-0.2692,-0.2457,-0.2189,-0.2189,-0.2189,-0.2189,-0.2189,-0.2189,-0.2189,-0.2189,-0.2189,-0.2189,-0.2189,-0.2189,-0.2189,-0.2189,-0.2189,-0.2189,-0.2189,-0.2189,-0.2189,-0.2189,-0.2189,-0.2189,-0.2189,-0.2189,-0.2189,-0.2189,-0.2189,-0.2189,-0.2189,-0.2189,-0.2189,-0.2189,-0.2189,-0.2189,-0.2189,-0.2189,-0.2189,-0.2189,-0.2189,-0.2189,-0.2189,-0.2189,-0.2189,0.1592,0.1622,0.1632,0.1682,0.1715,0.1747,0.1798,0.1801,0.1795,0.1795,0.1795,0.1795,0.1795,0.1792,0.1821,0.1881,0.1911,0.1911,0.2003,0.1759,0.0679,-0.1731,-0.2312,-0.3487,-0.5973,-0.6276,-0.6353,-0.6481,-0.6489,-0.6489,-0.6489,-0.6489,-0.6489,-0.6489,-0.6489,-0.6489,-0.6489,-0.6489,-0.6489,-0.6489,-0.6489,-0.6489,-0.6489,-0.6489,-0.6489,-0.6489,-0.6489,-0.6422,-0.6254,-0.6254,-0.5815,-0.5178,-0.5178,-0.4806,-0.43,-0.43,-0.43,-0.43,-0.43,-0.383,-0.3194,-0.3194,-0.3094,-0.2993,-0.2993,-0.2625,-0.2189,-0.2189,-0.2189,-0.2189,-0.2189,-0.2189,-0.2189,-0.2189,-0.2189,-0.2189,-0.2189,-0.2189,-0.2189,-0.2189,-0.2189,-0.2189,-0.2189,-0.2189,-0.2189,-0.2189,-0.2189,-0.2189,-0.2189,-0.2189,-0.2189,-0.2189,-0.2189,-0.2189,-0.2189,-0.2189,-0.2189,-0.2189,-0.2189,-0.2189,-0.2189,-0.2189,-0.2189,-0.2189,-0.2189,-0.2189,-0.2189,-0.2189,-0.2192,-0.2199,-0.2199,-0.2201,0.1592,0.1637,0.1685,0.1688,0.1757,0.1801,0.1804,0.0,0.1795,0.1795,0.1795,0.1795,0.1795,0.1792,0.1821,0.0,0.0,0.1911,0.2003,0.0956,-0.0372,-0.1914,-0.3177,-0.455,-0.6125,-0.6313,-0.6353,-0.6481,-0.6489,-0.6489,-0.6489,-0.6489,-0.6489,-0.6489,-0.6489,-0.6489,-0.6489,-0.6489,-0.6489,-0.6489,-0.6489,-0.6489,-0.6489,-0.6489,-0.6489,-0.6489,-0.6489,-0.6116,-0.5513,-0.5513,-0.5074,-0.44,-0.44,-0.4367,-0.43,-0.43,-0.43,-0.43,-0.43,-0.383,-0.3194,-0.3194,-0.2793,-0.2289,-0.2289,-0.2256,-0.2189,-0.2189,-0.2189,-0.2189,-0.2189,-0.2189,-0.2189,-0.2189,-0.2189,-0.2189,-0.2189,-0.2189,-0.2189,-0.2189,-0.2189,-0.2189,-0.2189,-0.2189,-0.2189,-0.2189,-0.2189,-0.2189,-0.2189,-0.2189,-0.2189,-0.2189,-0.2189,-0.2189,-0.2189,-0.2189,-0.2189,-0.2189,-0.2189,-0.2189,-0.2189,-0.2189,-0.2189,-0.2189,-0.2189,-0.2189,-0.2189,-0.2189,-0.2203,-0.2196,-0.2196,-0.221,0.1592,0.1639,0.1692,0.171,0.1746,0.1809,0.18,0.0,0.1795,0.1795,0.1795,0.1801,0.179,0.1847,0.1877,0.0,0.0,0.0,0.0801,-0.0404,-0.1782,-0.3145,-0.3837,-0.4774,-0.6177,-0.6366,-0.6448,-0.6485,-0.6489,-0.6489,-0.6489,-0.6489,-0.6489,-0.6489,-0.6489,-0.6489,-0.6489,-0.6489,-0.6489,-0.6489,-0.6489,-0.6489,-0.6489,-0.6049,-0.5848,-0.5815,-0.5376,-0.5007,-0.4739,-0.4739,-0.4303,-0.3631,-0.3631,-0.3396,-0.3026,-0.3026,-0.3026,-0.3026,-0.3026,-0.286,-0.2591,-0.2591,-0.2423,-0.2189,-0.2189,-0.2189,-0.2189,-0.2189,-0.2189,-0.2189,-0.2189,-0.2189,-0.2189,-0.2189,-0.2189,-0.2189,-0.2189,-0.2189,-0.2189,-0.2189,-0.2189,-0.2189,-0.2189,-0.2189,-0.2189,-0.2189,-0.2189,-0.2189,-0.2189,-0.2189,-0.2189,-0.2189,-0.2189,-0.2189,-0.2189,-0.2189,-0.2189,-0.2189,-0.2189,-0.2189,-0.2189,-0.2206,-0.2215,-0.2215,-0.22,-0.2208,-0.2208,-0.2208,-0.2215,-0.2193,-0.2193,-0.2199,0.1592,0.1645,0.1706,0.1699,0.1761,0.1796,0.0,0.0,0.1795,0.1795,0.1795,0.1805,0.1806,0.1865,0.1896,0.0,0.0,0.0,0.0,-0.1216,-0.2616,-0.3957,-0.4244,-0.4843,-0.6221,-0.6448,-0.6489,-0.6489,-0.6489,-0.6489,-0.6489,-0.6489,-0.6489,-0.6489,-0.6489,-0.6489,-0.6489,-0.6489,-0.6388,-0.6187,-0.6187,-0.6049,-0.5848,-0.5312,-0.5077,-0.5044,-0.4537,-0.4166,-0.3964,-0.3964,-0.3564,-0.2892,-0.2892,-0.2625,-0.2189,-0.2189,-0.2189,-0.2189,-0.2189,-0.2189,-0.2189,-0.2189,-0.2189,-0.2189,-0.2189,-0.2189,-0.2189,-0.2189,-0.2189,-0.2189,-0.2189,-0.2189,-0.2189,-0.2189,-0.2189,-0.2189,-0.2189,-0.2189,-0.2189,-0.2189,-0.2189,-0.2189,-0.2189,-0.2189,-0.2192,-0.22,-0.2201,-0.2206,-0.2214,-0.2215,-0.2215,-0.2215,-0.2215,-0.2211,-0.2203,-0.2201,-0.2206,-0.2215,-0.2215,-0.2215,-0.2215,-0.2202,-0.2214,-0.2214,-0.2199,-0.221,-0.221,-0.221,-0.2214,-0.2224,-0.2224,-0.2228,0.1592,0.1659,0.1704,0.1704,0.1749,0.1794,0.1795,0.1795,0.1795,0.1795,0.1795,0.1805,0.1806,0.1865,0.1896,0.1896,0.0,0.0,0.0,-0.1216,-0.2627,-0.4048,-0.4269,-0.4895,-0.6343,-0.6485,-0.6489,-0.6489,-0.6489,-0.6489,-0.6489,-0.6489,-0.6489,-0.6489,-0.6489,-0.6489,-0.6489,-0.6489,-0.6116,-0.5413,-0.5413,-0.5044,-0.4333,-0.43,-0.43,-0.43,-0.43,-0.39,-0.3194,-0.3194,-0.2827,-0.2223,-0.2223,-0.2223,-0.2189,-0.2189,-0.2189,-0.2189,-0.2189,-0.2189,-0.2189,-0.2189,-0.2189,-0.2189,-0.2189,-0.2189,-0.2189,-0.2189,-0.2189,-0.2189,-0.2189,-0.2189,-0.2189,-0.2189,-0.2189,-0.2189,-0.2189,-0.2189,-0.2189,-0.2189,-0.2189,-0.2189,-0.2189,-0.2189,-0.2199,-0.2195,-0.22,-0.221,-0.2205,-0.2209,-0.2209,-0.2209,-0.2209,-0.2197,-0.2202,-0.22,-0.2213,-0.2208,-0.2209,-0.2209,-0.2209,-0.221,-0.221,-0.221,-0.221,-0.221,-0.221,-0.221,-0.2225,-0.229,-0.229,-0.2305,0.1592,0.1659,0.1704,0.1704,0.175,0.1795,0.1795,0.1795,0.1795,0.1795,0.1812,0.1806,0.1866,0.1896,0.1625,0.0733,-0.0491,0.0,-0.2652,-0.402,-0.5077,-0.5577,-0.5723,-0.5986,-0.6451,-0.6489,-0.6288,-0.5781,-0.5748,-0.5513,-0.5007,-0.5007,-0.5242,-0.5714,-0.5748,-0.5513,-0.5007,-0.5007,-0.4873,-0.4638,-0.4638,-0.4537,-0.4266,-0.3765,-0.3564,-0.353,-0.306,-0.2726,-0.2524,-0.2524,-0.2389,-0.2189,-0.2189,-0.2189,-0.2189,-0.2189,-0.2189,-0.2189,-0.2189,-0.2189,-0.2189,-0.2189,-0.2189,-0.2189,-0.2189,-0.2189,-0.2189,-0.2189,-0.2189,-0.2189,-0.2189,-0.2189,-0.2189,-0.2189,-0.2189,-0.2189,-0.2189,-0.2206,-0.2185,-0.2185,-0.2203,-0.2217,-0.2217,-0.2217,-0.2185,-0.2195,-0.2197,-0.2199,-0.2209,-0.221,-0.221,-0.221,-0.221,-0.2206,-0.2197,-0.2197,-0.2201,-0.221,-0.221,-0.221,-0.221,-0.223,-0.2277,-0.2277,-0.226,-0.2269,-0.2269,-0.2269,-0.2273,-0.2283,-0.2283,-0.2288,0.1681,0.1773,0.1867,0.1773,0.1841,0.1936,0.1823,0.1795,0.1795,0.1795,0.179,0.185,0.2056,0.2089,0.1666,0.04,-0.0924,-0.2258,-0.3517,-0.4912,-0.5742,-0.5558,-0.5615,-0.5681,-0.5681,-0.5681,-0.548,-0.501,-0.4977,-0.4772,-0.4333,-0.43,-0.437,-0.4574,-0.4842,-0.4772,-0.43,-0.43,-0.4166,-0.39,-0.39,-0.3765,-0.3497,-0.3026,-0.2827,-0.2793,-0.2389,-0.2189,0.0,-0.2189,-0.2189,-0.2189,-0.2189,-0.2189,-0.2189,-0.2189,-0.2189,-0.2189,-0.2189,-0.2189,-0.2189,-0.2189,-0.2189,-0.219,-0.2203,-0.2197,-0.2189,-0.2189,-0.2189,-0.2192,-0.2203,-0.2206,-0.2208,-0.2187,-0.2189,-0.2189,-0.2189,-0.2204,-0.2217,-0.2217,-0.2198,-0.221,-0.221,-0.221,-0.2214,-0.2225,-0.2228,-0.223,-0.2241,-0.2242,-0.2242,-0.2242,-0.2242,-0.2242,-0.2242,-0.2233,-0.2232,-0.2242,-0.2242,-0.2242,-0.2242,-0.226,-0.2307,-0.2307,-0.2287,-0.2296,-0.2296,-0.2296,-0.2296,-0.2296,-0.2296,-0.2296,0.0,0.2001,0.2167,0.1906,0.2021,0.216,0.1908,0.1851,0.0,0.1826,0.1823,0.1939,0.2325,0.2391,0.197,0.0646,-0.0555,-0.1736,-0.2927,-0.422,-0.4861,-0.4353,-0.43,-0.43,-0.43,-0.43,-0.4266,-0.4233,-0.4233,-0.4199,-0.4166,-0.4166,-0.383,-0.3161,-0.3799,-0.4166,-0.4166,-0.4166,-0.3799,-0.3127,-0.3127,-0.2793,-0.2189,-0.2189,-0.2189,-0.2189,-0.2189,-0.2189,-0.2189,-0.2189,-0.2189,-0.2189,-0.2189,-0.2189,-0.2189,-0.2189,-0.2189,-0.2189,-0.2189,-0.219,-0.2192,-0.2195,-0.2195,-0.22,-0.2195,-0.2215,-0.2192,-0.2195,-0.2195,-0.2201,-0.2196,-0.2203,-0.221,-0.2204,-0.221,-0.221,-0.221,-0.2212,-0.2213,-0.2213,-0.2216,-0.2217,-0.2217,-0.2217,-0.2226,-0.2289,-0.2294,-0.2304,-0.2293,-0.2296,-0.2296,-0.2296,-0.2296,-0.2296,-0.2296,-0.2309,-0.2305,-0.2295,-0.2296,-0.2296,-0.2296,-0.2296,-0.2296,-0.2296,-0.2296,-0.2296,-0.2296,-0.2296,-0.2296,-0.2296,-0.2296,-0.2296,0.2442,0.0,0.2434,0.2178,0.2355,0.2552,0.0,0.23,0.2112,0.2167,0.2028,0.1972,0.2331,0.2428,0.1872,0.0031,0.0155,-0.0535,-0.3422,-0.4226,-0.4436,-0.4331,-0.43,-0.43,-0.43,-0.43,-0.4065,-0.3497,-0.3463,-0.3228,-0.2726,-0.2692,-0.2625,-0.2423,-0.2591,-0.2692,-0.2692,-0.2692,-0.2591,-0.2423,-0.2423,-0.2356,-0.2189,-0.2189,-0.2189,-0.2189,-0.2189,-0.2189,-0.2189,-0.2189,-0.2189,-0.2189,-0.2189,-0.2189,-0.2189,-0.2189,-0.2189,-0.2189,-0.2189,-0.2204,-0.2193,-0.2217,-0.2189,-0.219,-0.2198,-0.2214,-0.2193,-0.2183,-0.2189,-0.2191,-0.2198,-0.2199,-0.2202,-0.2209,-0.221,-0.221,-0.221,-0.2228,-0.2279,-0.2279,-0.2261,-0.2276,-0.2276,-0.2276,-0.2279,-0.2285,-0.2287,-0.2289,-0.2296,-0.2296,-0.2296,-0.2296,-0.2296,-0.2296,-0.2296,-0.2291,-0.2289,-0.2296,-0.2296,-0.2296,-0.2296,-0.2296,-0.2296,-0.2296,-0.2296,-0.2296,-0.2296,-0.2296,-0.2296,-0.2296,-0.2296,-0.2296,0.283,0.277,0.2735,0.2502,0.2646,0.2861,0.272,0.2596,0.2474,0.2524,0.2431,0.2447,0.2798,0.2899,0.2404,0.0708,0.053,-0.0412,-0.3243,-0.345,-0.3329,-0.3329,-0.3329,-0.3329,-0.3329,-0.3329,-0.3161,-0.2759,-0.2726,-0.2591,-0.2223,-0.2189,-0.2189,-0.2189,-0.2189,-0.2189,-0.2189,-0.2189,-0.2189,-0.2189,-0.2189,-0.2189,-0.2189,-0.2189,-0.2189,-0.2189,-0.2189,-0.2189,-0.2189,-0.2189,-0.2189,-0.2189,-0.2189,-0.2189,-0.219,-0.2204,-0.221,-0.2211,-0.2191,-0.2207,-0.2189,-0.2205,-0.221,-0.2213,-0.2226,-0.2255,-0.2243,-0.221,-0.221,-0.2213,-0.2228,-0.223,-0.2234,-0.2246,-0.225,-0.225,-0.225,-0.2263,-0.2309,-0.2309,-0.2285,-0.2296,-0.2296,-0.2296,-0.2296,-0.2296,-0.2296,-0.2296,-0.2296,-0.2296,-0.2296,-0.2296,-0.2296,-0.2296,-0.2296,-0.2296,-0.2296,-0.2296,-0.2296,-0.2296,-0.2296,-0.2296,-0.2296,-0.2296,-0.2296,-0.2296,-0.2296,-0.2296,-0.2296,-0.2296,-0.2296,-0.2296,0.3104,0.307,0.3019,0.2811,0.2973,0.3113,0.29,0.2845,0.2877,0.289,0.2899,0.3015,0.3356,0.3455,0.3086,0.1853,0.0689,-0.0704,-0.2468,-0.2405,-0.2189,-0.2189,-0.2189,-0.2189,-0.2189,-0.2189,-0.2189,-0.2189,-0.2189,-0.2189,-0.2189,-0.2189,-0.2189,-0.2189,-0.2189,-0.2189,-0.2189,-0.2189,-0.2189,-0.2189,-0.2189,-0.2189,-0.2189,-0.2189,-0.2189,-0.2189,-0.2189,-0.2192,-0.2196,-0.2196,-0.2199,-0.2203,-0.2203,-0.2203,-0.2206,-0.2198,-0.2207,-0.2211,-0.2206,-0.2217,-0.2218,-0.2222,-0.2224,-0.2228,-0.2289,-0.2297,-0.2292,-0.223,-0.2224,-0.2229,-0.229,-0.2297,-0.2304,-0.2291,-0.2296,-0.2296,-0.2296,-0.2296,-0.2296,-0.2296,-0.2296,-0.2296,-0.2296,-0.2296,-0.2296,-0.2296,-0.2296,-0.2296,-0.2296,-0.2296,-0.2296,-0.2296,-0.2296,-0.2296,-0.2296,-0.2296,-0.2296,-0.2296,-0.2296,-0.2296,-0.2296,-0.2296,-0.2296,-0.2296,-0.2296,-0.2296,-0.2296,-0.2296,-0.2296,-0.2296,-0.2296,-0.2296,0.3342,0.3393,0.3362,0.3096,0.3278,0.3515,0.354,0.3327,0.3185,0.3274,0.3093,0.3026,0.3403,0.3481,0.3253,0.2541,0.0836,-0.0527,-0.087,-0.1647,-0.2189,-0.2189,-0.2189,-0.2189,-0.2189,-0.2189,-0.2189,-0.2189,-0.2189,-0.2189,-0.2189,-0.2189,-0.2189,-0.2189,-0.2189,-0.2189,-0.2189,-0.2189,-0.2189,-0.2189,-0.2189,-0.2189,-0.2189,-0.2189,-0.2189,-0.2189,-0.2189,-0.2203,-0.2193,-0.2193,-0.2208,-0.2197,-0.2197,-0.2197,-0.2197,-0.2202,-0.2204,-0.2208,-0.2274,-0.2283,-0.2288,-0.2275,-0.2283,-0.2284,-0.2288,-0.2289,-0.2289,-0.2284,-0.2283,-0.2284,-0.2288,-0.2289,-0.2291,-0.2295,-0.2296,-0.2296,-0.2296,-0.2296,-0.2296,-0.2296,-0.2296,-0.2296,-0.2296,-0.2296,-0.2296,-0.2296,-0.2296,-0.2296,-0.2296,-0.2296,-0.2296,-0.2296,-0.2296,-0.2296,-0.2296,-0.2296,-0.2296,-0.2296,-0.2296,-0.2296,-0.2296,-0.2296,-0.2296,-0.2296,-0.2296,-0.2296,-0.2296,-0.2296,-0.2296,-0.2296,-0.2296,-0.2296,0.3403,0.3477,0.3525,0.3413,0.3474,0.363,0.3694,0.3616,0.3547,0.3662,0.355,0.3488,0.3669,0.3758,0.3334,0.1963,0.0457,-0.0761,-0.1344,-0.1885,-0.2189,-0.2189,-0.2189,-0.2189,-0.2189,-0.2189,-0.2189,-0.2189,-0.2189,-0.2189,-0.2189,-0.2189,-0.2189,-0.2189,-0.2189,-0.2189,-0.2189,-0.2189,-0.2189,-0.2189,-0.2189,-0.2189,-0.2189,-0.2189,-0.2197,-0.2213,-0.2213,-0.2196,-0.219,-0.219,-0.2198,-0.221,-0.221,-0.221,-0.2213,-0.2229,-0.2244,-0.2259,-0.2272,-0.2313,-0.2316,-0.2292,-0.2296,-0.2296,-0.2296,-0.2296,-0.2296,-0.2296,-0.2296,-0.2296,-0.2296,-0.2296,-0.2296,-0.2296,-0.2296,-0.2296,-0.2296,-0.2296,-0.2296,-0.2296,-0.2296,-0.2296,-0.2296,-0.2296,-0.2296,-0.2296,-0.2296,-0.2296,-0.2296,-0.2296,-0.2296,-0.2296,-0.2296,-0.2296,-0.2296,-0.2296,-0.2296,-0.2296,-0.2296,-0.2296,-0.2296,-0.2296,-0.2296,-0.2296,-0.2296,-0.2296,-0.2296,-0.2296,-0.2296,-0.2296,-0.2296,-0.2296,0.3428,0.3507,0.3591,0.3633,0.3636,0.3652,0.3715,0.3776,0.3836,0.3899,0.3888,0.3892,0.3905,0.3776,0.3081,0.128,0.0099,-0.0964,-0.205,-0.2189,-0.2189,-0.2189,-0.2189,-0.2189,-0.2189,-0.2189,-0.2189,-0.2189,-0.2189,-0.2189,-0.2189,-0.2189,-0.2189,-0.2189,-0.2189,-0.2189,-0.2189,-0.2189,-0.2189,-0.2189,-0.2189,-0.2192,-0.2199,-0.2199,-0.2215,-0.221,-0.221,-0.2193,-0.2221,-0.2221,-0.2225,-0.223,-0.223,-0.223,-0.2233,-0.2292,-0.2315,-0.2296,-0.2296,-0.2296,-0.2296,-0.2296,-0.2296,-0.2296,-0.2296,-0.2296,-0.2296,-0.2296,-0.2296,-0.2296,-0.2296,-0.2296,-0.2296,-0.2296,-0.2296,-0.2296,-0.2296,-0.2296,-0.2296,-0.2296,-0.2296,-0.2296,-0.2296,-0.2296,-0.2296,-0.2296,-0.2296,-0.2296,-0.2296,-0.2296,-0.2296,-0.2296,-0.2296,-0.2296,-0.2296,-0.2296,-0.2299,-0.2307,-0.23,-0.2296,-0.2296,-0.2296,-0.2296,-0.2296,-0.2296,-0.2296,-0.2296,-0.2296,-0.2296,-0.2296,-0.2303,-0.2307,0.3477,0.3537,0.3628,0.3685,0.3702,0.3715,0.3779,0.3839,0.3899,0.3901,0.3887,0.3905,0.3988,0.3284,0.2332,0.1186,0.0167,-0.0908,-0.2053,-0.2189,-0.2189,-0.2189,-0.2189,-0.2189,-0.2189,-0.2189,-0.2189,-0.2189,-0.2189,-0.2189,-0.2189,-0.2189,-0.2189,-0.2189,-0.2189,-0.2189,-0.2189,-0.2189,-0.2189,-0.2189,-0.2189,-0.2203,-0.2196,-0.2196,-0.2214,-0.2208,-0.2208,-0.2224,-0.2288,-0.2288,-0.2303,-0.2289,-0.2289,-0.2289,-0.2291,-0.2292,-0.2295,-0.2296,-0.2296,-0.2296,-0.2296,-0.2296,-0.2296,-0.2296,-0.2296,-0.2296,-0.2296,-0.2296,-0.2296,-0.2296,-0.2296,-0.2296,-0.2296,-0.2296,-0.2296,-0.2296,-0.2296,-0.2296,-0.2296,-0.2296,-0.2296,-0.2296,-0.2296,-0.2296,-0.2296,-0.2296,-0.2296,-0.2296,-0.2296,-0.2296,-0.2296,-0.2296,-0.2296,-0.2296,-0.2296,-0.2296,-0.2345,-0.2373,-0.2349,-0.2296,-0.2296,-0.2296,-0.2296,-0.2296,-0.2296,-0.2296,-0.2296,-0.2296,-0.2296,-0.2297,-0.2361,-0.2375,0.3491,0.3542,0.3602,0.3691,0.3735,0.3781,0.3842,0.3872,0.3908,0.3907,0.3889,0.3947,0.4042,0.2728,0.1486,0.1132,-0.0402,-0.1717,-0.2154,-0.2189,-0.2189,-0.2189,-0.2189,-0.2189,-0.2189,-0.2189,-0.2189,-0.2189,-0.2189,-0.2189,-0.2189,-0.2189,-0.2189,-0.2189,-0.2189,-0.2189,-0.2189,-0.2189,-0.2197,-0.2217,-0.2217,-0.2189,-0.22,-0.2185,-0.221,-0.2274,-0.2274,-0.229,-0.2318,-0.2318,-0.2287,-0.2296,-0.2296,-0.2296,-0.2296,-0.2296,-0.2296,-0.2296,-0.2296,-0.2296,-0.2296,-0.2296,-0.2296,-0.2296,-0.2296,-0.2296,-0.2296,-0.2296,-0.2296,-0.2296,-0.2296,-0.2296,-0.2296,-0.2296,-0.2296,-0.2296,-0.2296,-0.2296,-0.2296,-0.2296,-0.2296,-0.2296,-0.2296,-0.2296,-0.2296,-0.2296,-0.2296,-0.2296,-0.2296,-0.2296,-0.2296,-0.2296,-0.2349,-0.2369,-0.235,-0.2352,-0.2356,-0.2406,-0.2378,-0.2369,-0.2351,-0.2352,-0.2352,-0.2352,-0.2352,-0.2352,-0.2352,-0.2352,-0.2352,-0.2352,-0.2401,-0.2406,0.3521,0.357,0.3658,0.3721,0.3781,0.3845,0.3905,0.3888,0.3899,0.3912,0.395,0.391,0.3682,0.2199,0.0931,0.0638,-0.0976,-0.2189,-0.2189,-0.2189,-0.2189,-0.2189,-0.2189,-0.2189,-0.2189,-0.2189,-0.2189,-0.2189,-0.2189,-0.2189,-0.2189,-0.2189,-0.2189,-0.2189,-0.2189,-0.2189,-0.2189,-0.2197,-0.2214,-0.22,-0.2219,-0.2229,-0.2229,-0.2216,-0.224,-0.2304,-0.2304,-0.2315,-0.2296,-0.2296,-0.2296,-0.2296,-0.2296,-0.2296,-0.2296,-0.2296,-0.2296,-0.2296,-0.2296,-0.2296,-0.2296,-0.2296,-0.2296,-0.2296,-0.2296,-0.2296,-0.2296,-0.2296,-0.2296,-0.2296,-0.2296,-0.2296,-0.2296,-0.2296,-0.2296,-0.2296,-0.2296,-0.2296,-0.2296,-0.2296,-0.2296,-0.2296,-0.2296,-0.2296,-0.2296,-0.2296,-0.2296,-0.23,-0.2346,-0.2348,-0.2314,-0.2323,-0.238,-0.2401,-0.2383,-0.2386,-0.2428,-0.2438,-0.2418,-0.2412,-0.2385,-0.2386,-0.2386,-0.2386,-0.2386,-0.2386,-0.2386,-0.2386,-0.2386,-0.2386,-0.2433,-0.2438,0.3572,0.3661,0.3721,0.3784,0.3845,0.3908,0.3907,0.3889,0.3889,0.3889,0.3981,0.3789,0.2757,0.1765,0.074,-0.0336,-0.1447,-0.2189,-0.2189,-0.2189,-0.2189,-0.2189,-0.2189,-0.2189,-0.2189,-0.2189,-0.2189,-0.2189,-0.2189,-0.2189,-0.2189,-0.2189,-0.2189,-0.2189,-0.2189,-0.2189,-0.2189,-0.2185,-0.22,-0.2202,-0.2262,-0.229,-0.229,-0.2292,-0.2307,-0.2296,-0.2296,-0.2296,-0.2296,-0.2296,-0.2296,-0.2296,-0.2296,-0.2296,-0.2296,-0.2296,-0.2296,-0.2296,-0.2296,-0.2296,-0.2296,-0.2296,-0.2296,-0.2296,-0.2296,-0.2296,-0.2296,-0.2296,-0.2296,-0.2296,-0.2296,-0.2296,-0.2296,-0.2296,-0.2296,-0.2296,-0.2296,-0.2296,-0.2296,-0.2296,-0.2296,-0.2296,-0.2296,-0.2296,-0.2296,-0.2296,-0.2297,-0.2308,-0.2375,-0.2416,-0.239,-0.2383,-0.2386,-0.2386,-0.2386,-0.2386,-0.2438,-0.2506,-0.2507,-0.2457,-0.2387,-0.2386,-0.2386,-0.2386,-0.2386,-0.2386,-0.2386,-0.2386,-0.2386,-0.2387,-0.2455,-0.2507,0.3663,0.3694,0.3732,0.3836,0.3878,0.3908,0.3907,0.395,0.3771,0.3046,0.297,0.2719,0.1679,0.0666,-0.0135,-0.0438,-0.1447,-0.2189,-0.2189,-0.2189,-0.2189,-0.2189,-0.2189,-0.2189,-0.2189,-0.2189,-0.2189,-0.2189,-0.2189,-0.2189,-0.2189,-0.2189,-0.2189,-0.2189,-0.2189,-0.2199,-0.2187,-0.2195,-0.2222,-0.2264,-0.2282,-0.229,-0.2292,-0.2311,-0.2288,-0.2296,-0.2296,-0.2296,-0.2296,-0.2296,-0.2296,-0.2296,-0.2296,-0.2296,-0.2296,-0.2296,-0.2296,-0.2296,-0.2296,-0.2296,-0.2296,-0.2296,-0.2296,-0.2296,-0.2296,-0.2296,-0.2296,-0.2296,-0.2296,-0.2296,-0.2296,-0.2296,-0.2296,-0.2296,-0.2296,-0.2296,-0.2296,-0.2296,-0.2296,-0.2296,-0.2296,-0.2296,-0.2296,-0.235,-0.2364,-0.2364,-0.2383,-0.2362,-0.2409,-0.241,-0.2421,-0.2453,-0.2455,-0.2463,-0.2485,-0.2488,-0.2491,-0.25,-0.25,-0.2497,-0.2488,-0.2488,-0.2488,-0.2488,-0.2488,-0.2488,-0.2488,-0.2488,-0.2488,-0.2488,-0.2496,-0.25,0.3691,0.3724,0.3768,0.3867,0.3908,0.3796,0.3436,0.3682,0.3704,0.2696,0.254,0.2143,0.0664,-0.01,-0.064,-0.1111,-0.175,-0.2189,-0.2189,-0.2189,-0.2189,-0.2189,-0.2189,-0.2189,-0.2189,-0.2189,-0.2189,-0.2189,-0.2189,-0.2189,-0.2189,-0.2189,-0.2189,-0.2189,-0.22,-0.2215,-0.22,-0.2223,-0.2255,-0.229,-0.2303,-0.2308,-0.2308,-0.2288,-0.2296,-0.2296,-0.2296,-0.2296,-0.2296,-0.2296,-0.2296,-0.2296,-0.2296,-0.2296,-0.2296,-0.2296,-0.2296,-0.2296,-0.2296,-0.2296,-0.2296,-0.2296,-0.2296,-0.2296,-0.2296,-0.2296,-0.2296,-0.2296,-0.2296,-0.2296,-0.2296,-0.2296,-0.2296,-0.2296,-0.2296,-0.2296,-0.2296,-0.2296,-0.2296,-0.2296,-0.2305,-0.235,-0.235,-0.2376,-0.2397,-0.2397,-0.2423,-0.2442,-0.2442,-0.2453,-0.2466,-0.2485,-0.2487,-0.2495,-0.2512,-0.2514,-0.2514,-0.2514,-0.2514,-0.2514,-0.2514,-0.2514,-0.2514,-0.2514,-0.2514,-0.2514,-0.2514,-0.2514,-0.2514,-0.2514,-0.2514,-0.2514,0.3696,0.3757,0.3814,0.3883,0.3821,0.3551,0.2684,0.3124,0.3431,0.2449,0.2287,0.1721,-0.0302,-0.064,-0.101,-0.2019,-0.2189,-0.2189,-0.2189,-0.2189,-0.2189,-0.2189,-0.2189,-0.2189,-0.2189,-0.2189,-0.2189,-0.2189,-0.2189,-0.2189,-0.2189,-0.2189,-0.2189,-0.2189,-0.2184,-0.2202,-0.2204,-0.2262,-0.2292,-0.2294,-0.2284,-0.2296,-0.2296,-0.2296,-0.2296,-0.2296,-0.2296,-0.2296,-0.2296,-0.2296,-0.2296,-0.2296,-0.2296,-0.2296,-0.2296,-0.2296,-0.2296,-0.2296,-0.2296,-0.2296,-0.2296,-0.2296,-0.2296,-0.2296,-0.2296,-0.2296,-0.2296,-0.2296,-0.2296,-0.2296,-0.2296,-0.2299,-0.23,-0.23,-0.2299,-0.2297,-0.23,-0.23,-0.2301,-0.2304,-0.2364,-0.2383,-0.2383,-0.2408,-0.2391,-0.2393,-0.2455,-0.2512,-0.2512,-0.2497,-0.2514,-0.2514,-0.2514,-0.2514,-0.2514,-0.2514,-0.2514,-0.2514,-0.2514,-0.2514,-0.2514,-0.2514,-0.2514,-0.2514,-0.2514,-0.2514,-0.2514,-0.2514,-0.2514,-0.2514,-0.2514,-0.2514,0.3748,0.379,0.3825,0.3874,0.3293,0.2672,0.2469,0.2028,0.1376,0.0366,0.0167,-0.0235,-0.1581,-0.1818,-0.1918,-0.2154,-0.2189,-0.2189,-0.2189,-0.2189,-0.2189,-0.2189,-0.2189,-0.2189,-0.2189,-0.2189,-0.2189,-0.2189,-0.2189,-0.2189,-0.2189,-0.2189,-0.2189,-0.2189,-0.2184,-0.2211,-0.2201,-0.2273,-0.2303,-0.2287,-0.2293,-0.2296,-0.2296,-0.2296,-0.2296,-0.2296,-0.2296,-0.2296,-0.2296,-0.2296,-0.2296,-0.2296,-0.2296,-0.2296,-0.2296,-0.2296,-0.2296,-0.2296,-0.2296,-0.2296,-0.2296,-0.2296,-0.2296,-0.2296,-0.2296,-0.2296,-0.2296,-0.2296,-0.2296,-0.2296,-0.2296,-0.235,-0.2368,-0.2368,-0.235,-0.2303,-0.2363,-0.2368,-0.2375,-0.2362,-0.2371,-0.2414,-0.2414,-0.2439,-0.2467,-0.2491,-0.25,-0.2504,-0.2504,-0.251,-0.2514,-0.2514,-0.2514,-0.2514,-0.2514,-0.2514,-0.2514,-0.2514,-0.2514,-0.2514,-0.2514,-0.2514,-0.2514,-0.2514,-0.2514,-0.2514,-0.2514,-0.2514,-0.2514,-0.2514,-0.2514,-0.2514,0.3773,0.382,0.3864,0.3896,0.3153,0.2276,0.1782,0.094,-0.0066,-0.1107,-0.0875,-0.0842,-0.1986,-0.2189,-0.2189,-0.2189,-0.2189,-0.2189,-0.2189,-0.2189,-0.2189,-0.2189,-0.2189,-0.2189,-0.2189,-0.2189,-0.2189,-0.2189,-0.2189,-0.2189,-0.2189,-0.2189,-0.2195,-0.221,-0.2206,-0.2201,-0.2232,-0.2296,-0.2283,-0.2296,-0.2296,-0.2296,-0.2296,-0.2296,-0.2296,-0.2296,-0.2296,-0.2296,-0.2296,-0.2296,-0.2296,-0.2296,-0.2296,-0.2296,-0.2296,-0.2296,-0.2296,-0.2296,-0.2296,-0.2296,-0.2296,-0.2296,-0.2296,-0.2296,-0.2296,-0.2296,-0.2296,-0.2296,-0.2307,-0.2354,-0.2354,-0.2378,-0.2399,-0.2399,-0.2388,-0.2343,-0.2397,-0.2399,-0.2405,-0.2382,-0.2435,-0.2446,-0.2446,-0.247,-0.2496,-0.2512,-0.2514,-0.2514,-0.2514,-0.2514,-0.2514,-0.2514,-0.2514,-0.2514,-0.2514,-0.2514,-0.2514,-0.2514,-0.2514,-0.2514,-0.2514,-0.2514,-0.2514,-0.2514,-0.2514,-0.2514,-0.2514,-0.2514,-0.2514,-0.2514,-0.2514,-0.2514,0.3781,0.3853,0.3891,0.392,0.3164,0.2161,0.1161,0.0131,-0.0896,-0.1981,-0.1447,-0.1077,-0.2019,-0.2189,-0.2189,-0.2189,-0.2189,-0.2189,-0.2189,-0.2189,-0.2189,-0.2189,-0.2189,-0.2189,-0.2189,-0.2189,-0.2189,-0.2189,-0.2189,-0.2189,-0.2189,-0.2189,-0.2203,-0.2199,-0.2195,-0.2225,-0.229,-0.2283,-0.2296,-0.2296,-0.2296,-0.2296,-0.2296,-0.2296,-0.2296,-0.2296,-0.2296,-0.2296,-0.2296,-0.2296,-0.2296,-0.2296,-0.2296,-0.2296,-0.2296,-0.2296,-0.2296,-0.2296,-0.2296,-0.2296,-0.2296,-0.2296,-0.2296,-0.2296,-0.2296,-0.23,-0.2304,-0.2304,-0.2363,-0.2386,-0.2386,-0.2409,-0.2431,-0.2431,-0.2435,-0.2399,-0.2432,-0.2431,-0.2433,-0.2399,-0.2459,-0.2516,-0.2516,-0.2497,-0.2514,-0.2514,-0.2514,-0.2514,-0.2514,-0.2514,-0.2514,-0.2514,-0.2514,-0.2514,-0.2514,-0.2519,-0.2522,-0.2522,-0.2526,-0.2529,-0.2529,-0.2529,-0.2529,-0.2529,-0.2525,-0.2525,-0.2529,-0.2529,-0.2529,-0.2529,-0.2529,-0.2529,0.3781,0.3853,0.392,0.3977,0.3241,0.2225,0.1212,0.0199,-0.0839,-0.1952,-0.2087,-0.2019,-0.2188,-0.2189,-0.2189,-0.2189,-0.2189,-0.2189,-0.2189,-0.2189,-0.2189,-0.2189,-0.2189,-0.2189,-0.2189,-0.2189,-0.2189,-0.2189,-0.2189,-0.2189,-0.2189,-0.2189,-0.2203,-0.2199,-0.2195,-0.2225,-0.229,-0.2283,-0.2296,-0.2296,-0.2296,-0.2296,-0.2296,-0.2296,-0.2296,-0.2296,-0.2296,-0.2296,-0.2296,-0.2296,-0.2296,-0.2296,-0.2296,-0.2296,-0.2296,-0.2296,-0.2296,-0.2296,-0.2296,-0.2296,-0.2296,-0.2296,-0.2296,-0.2296,-0.2296,-0.2352,-0.2372,-0.2372,-0.2394,-0.2417,-0.2417,-0.244,-0.2502,-0.2502,-0.2482,-0.2495,-0.2469,-0.2502,-0.247,-0.2497,-0.2506,-0.2508,-0.2508,-0.2511,-0.2514,-0.2514,-0.2514,-0.2514,-0.2514,-0.2514,-0.2514,-0.2514,-0.2514,-0.2514,-0.2514,-0.2538,-0.2593,-0.2593,-0.2577,-0.259,-0.259,-0.259,-0.259,-0.259,-0.2606,-0.2606,-0.259,-0.259,-0.259,-0.259,-0.259,-0.259,0.3845,0.388,0.3903,0.3991,0.3249,0.2231,0.1215,0.0233,-0.0808,-0.1952,-0.2189,-0.2189,-0.2189,-0.2189,-0.2189,-0.2189,-0.2189,-0.2189,-0.2189,-0.2189,-0.2189,-0.2189,-0.2189,-0.2189,-0.2189,-0.2189,-0.2189,-0.2189,-0.2189,-0.2189,-0.2189,-0.2204,-0.2193,-0.219,-0.222,-0.2285,-0.2313,-0.2289,-0.2296,-0.2296,-0.2296,-0.2296,-0.2296,-0.2296,-0.2296,-0.2296,-0.2296,-0.2296,-0.2296,-0.2296,-0.2296,-0.2296,-0.2296,-0.2296,-0.2296,-0.2296,-0.2296,-0.2296,-0.2296,-0.2296,-0.2296,-0.2296,-0.2308,-0.2358,-0.2358,-0.2379,-0.2403,-0.2403,-0.2425,-0.2448,-0.2448,-0.2472,-0.2495,-0.2495,-0.2504,-0.2511,-0.2497,-0.2495,-0.2499,-0.2512,-0.2514,-0.2514,-0.2514,-0.2514,-0.2514,-0.2514,-0.2514,-0.2514,-0.2514,-0.2514,-0.2521,-0.2538,-0.254,-0.2547,-0.2562,-0.2575,-0.2583,-0.2583,-0.2594,-0.2601,-0.2601,-0.2601,-0.2609,-0.2586,-0.2598,-0.2589,-0.2601,-0.2601,-0.2601,-0.2601,-0.2601,-0.2601,0.389,0.39,0.3955,0.4012,0.3461,0.26,0.132,0.0434,-0.0505,-0.1918,-0.2189,-0.2189,-0.2189,-0.2189,-0.2189,-0.2189,-0.2189,-0.2189,-0.2189,-0.2189,-0.2189,-0.2189,-0.2189,-0.2189,-0.2189,-0.2189,-0.2189,-0.2189,-0.2189,-0.2192,-0.22,-0.2188,-0.2218,-0.2221,-0.2279,-0.2304,-0.2296,-0.2296,-0.2296,-0.2296,-0.2296,-0.2296,-0.2296,-0.2296,-0.2296,-0.2296,-0.2296,-0.2296,-0.2296,-0.2296,-0.2296,-0.2296,-0.2296,-0.2296,-0.2296,-0.2296,-0.2296,-0.2296,-0.2296,-0.2296,-0.2297,-0.2305,-0.236,-0.2416,-0.2387,-0.2412,-0.2435,-0.2435,-0.2457,-0.2518,-0.2518,-0.2497,-0.2514,-0.2514,-0.2514,-0.2514,-0.2514,-0.2514,-0.2514,-0.2514,-0.2514,-0.2514,-0.2514,-0.2514,-0.2514,-0.2514,-0.2514,-0.2517,-0.2525,-0.2526,-0.2537,-0.2607,-0.261,-0.262,-0.26,-0.2608,-0.2613,-0.2613,-0.262,-0.2624,-0.2624,-0.2624,-0.2635,-0.2617,-0.2637,-0.2624,-0.2624,-0.2624,-0.2624,-0.2624,-0.2624,-0.2624,0.3901,0.3958,0.4015,0.4074,0.4101,0.3564,0.1539,0.1041,0.0403,-0.175,-0.2189,-0.2189,-0.2189,-0.2189,-0.2189,-0.2189,-0.2189,-0.2189,-0.2189,-0.2189,-0.2189,-0.2189,-0.2189,-0.2189,-0.2189,-0.2189,-0.2189,-0.2189,-0.2189,-0.2201,-0.2196,-0.2199,-0.2228,-0.2286,-0.229,-0.2304,-0.2296,-0.2296,-0.2296,-0.2296,-0.2296,-0.2296,-0.2296,-0.2296,-0.2296,-0.2296,-0.2296,-0.2296,-0.2296,-0.2296,-0.2296,-0.2296,-0.2296,-0.2296,-0.2296,-0.2296,-0.2296,-0.2296,-0.2296,-0.2296,-0.2301,-0.2367,-0.2413,-0.2383,-0.2413,-0.2443,-0.2505,-0.2505,-0.2488,-0.2512,-0.2512,-0.2514,-0.2514,-0.2514,-0.2514,-0.2514,-0.2514,-0.2514,-0.2514,-0.2514,-0.2514,-0.2514,-0.2514,-0.2514,-0.2514,-0.2514,-0.2514,-0.2525,-0.2593,-0.2597,-0.2608,-0.2597,-0.26,-0.26,-0.2601,-0.2587,-0.2603,-0.2603,-0.2672,-0.2687,-0.2687,-0.2687,-0.2688,-0.269,-0.2688,-0.2687,-0.2687,-0.2687,-0.2687,-0.2687,-0.2687,-0.2687,0.3915,0.3961,0.4018,0.4077,0.4139,0.3668,0.1574,0.1109,0.0471,-0.175,-0.2189,-0.2189,-0.2189,-0.2189,-0.2189,-0.2189,-0.2189,-0.2189,-0.2189,-0.2189,-0.2189,-0.2189,-0.2189,-0.2189,-0.2189,-0.2189,-0.2189,-0.2189,-0.2189,-0.2201,-0.2199,-0.2183,-0.2248,-0.2289,-0.2308,-0.2287,-0.2296,-0.2296,-0.2296,-0.2296,-0.2296,-0.2296,-0.2296,-0.2296,-0.2296,-0.2296,-0.2296,-0.2296,-0.2296,-0.2296,-0.2296,-0.2296,-0.2296,-0.2296,-0.2296,-0.2296,-0.2296,-0.2299,-0.2356,-0.2361,-0.2367,-0.2398,-0.242,-0.2477,-0.245,-0.2474,-0.2497,-0.2497,-0.2506,-0.2514,-0.2514,-0.2514,-0.2514,-0.2514,-0.2514,-0.2514,-0.2514,-0.2514,-0.2514,-0.2514,-0.2514,-0.2514,-0.2514,-0.2514,-0.2514,-0.2514,-0.2532,-0.2588,-0.2599,-0.2615,-0.2598,-0.2586,-0.259,-0.2597,-0.2658,-0.2669,-0.2676,-0.2676,-0.2687,-0.2692,-0.2692,-0.2692,-0.2692,-0.2692,-0.2692,-0.2692,-0.2692,-0.2692,-0.2692,-0.2692,-0.2692,-0.2692,0.4225,0.4474,0.4677,0.45,0.4512,0.409,0.2079,0.1647,0.1009,-0.1178,-0.1616,-0.175,-0.212,-0.2189,-0.2189,-0.2189,-0.2189,-0.2189,-0.2189,-0.2189,-0.2189,-0.2189,-0.2189,-0.2189,-0.2189,-0.2189,-0.2189,-0.2189,-0.2197,-0.2184,-0.2214,-0.2209,-0.2238,-0.2304,-0.2287,-0.2296,-0.2296,-0.2296,-0.2296,-0.2296,-0.2296,-0.2296,-0.2296,-0.2296,-0.2296,-0.2296,-0.2296,-0.2296,-0.2296,-0.2296,-0.2296,-0.2296,-0.2296,-0.2296,-0.2297,-0.2308,-0.2348,-0.2352,-0.2383,-0.2394,-0.2398,-0.2429,-0.2453,-0.2509,-0.2481,-0.2499,-0.2514,-0.2514,-0.2514,-0.2514,-0.2514,-0.2514,-0.2514,-0.2514,-0.2514,-0.2514,-0.2514,-0.2514,-0.2514,-0.2514,-0.2514,-0.2514,-0.2514,-0.2522,-0.253,-0.253,-0.2555,-0.2618,-0.2587,-0.2605,-0.2628,-0.2617,-0.2621,-0.2671,-0.2691,-0.2692,-0.2692,-0.2692,-0.2692,-0.2692,-0.2692,-0.2692,-0.2692,-0.2692,-0.2692,-0.2692,-0.2692,-0.2692,-0.2692,-0.2692,-0.2692,-0.2692,0.0,0.0,0.0,0.5312,0.5267,0.4943,0.3161,0.2724,0.2118,-0.0067,-0.0505,-0.0842,-0.1986,-0.2189,-0.2189,-0.2189,-0.2189,-0.2189,-0.2189,-0.2189,-0.2189,-0.2189,-0.2189,-0.2189,-0.2189,-0.2189,-0.2189,-0.2189,-0.2217,-0.2214,-0.2209,-0.2275,-0.2304,-0.2296,-0.2296,-0.2296,-0.2296,-0.2296,-0.2296,-0.2296,-0.2296,-0.2296,-0.2296,-0.2296,-0.2296,-0.2296,-0.2296,-0.2296,-0.2296,-0.2296,-0.2296,-0.2296,-0.2296,-0.2297,-0.2301,-0.2367,-0.2416,-0.2384,-0.2414,-0.2387,-0.2429,-0.2461,-0.2509,-0.2514,-0.2506,-0.2514,-0.2514,-0.2514,-0.2514,-0.2514,-0.2514,-0.2514,-0.2514,-0.2514,-0.2514,-0.2514,-0.2514,-0.2514,-0.2514,-0.2514,-0.2514,-0.2515,-0.2515,-0.254,-0.26,-0.26,-0.2585,-0.2613,-0.2602,-0.2606,-0.2618,-0.269,-0.2692,-0.2692,-0.2692,-0.2692,-0.2692,-0.2692,-0.2692,-0.2692,-0.2692,-0.2692,-0.2692,-0.2692,-0.2692,-0.2692,-0.2692,-0.2692,-0.2692,-0.2692,-0.2692,-0.2692,0.5632,0.0,0.0,0.0,0.0,0.0,0.3897,0.3495,0.2721,0.0067,-0.0505,-0.0842,-0.1986,-0.2189,-0.2189,-0.2189,-0.2189,-0.2189,-0.2189,-0.2189,-0.2189,-0.2189,-0.2189,-0.2189,-0.2189,-0.2189,-0.2189,-0.2189,-0.2217,-0.2214,-0.2209,-0.2257,-0.2288,-0.2296,-0.2296,-0.2296,-0.2296,-0.2296,-0.2296,-0.2296,-0.2296,-0.2296,-0.2296,-0.2296,-0.2296,-0.2296,-0.2296,-0.2296,-0.2296,-0.2296,-0.2296,-0.2296,-0.2296,-0.2346,-0.2367,-0.2375,-0.2393,-0.2416,-0.2446,-0.2457,-0.2461,-0.2492,-0.2502,-0.2503,-0.2512,-0.2514,-0.2514,-0.2514,-0.2514,-0.2514,-0.2514,-0.2514,-0.2514,-0.2514,-0.2514,-0.2514,-0.2514,-0.2514,-0.2514,-0.2514,-0.2514,-0.2521,-0.2584,-0.2595,-0.2607,-0.2587,-0.2615,-0.2597,-0.2605,-0.2625,-0.2683,-0.2691,-0.2692,-0.2692,-0.2692,-0.2692,-0.2692,-0.2692,-0.2692,-0.2692,-0.2692,-0.2692,-0.2692,-0.2692,-0.2692,-0.2692,-0.2692,-0.2692,-0.2692,-0.2692,-0.2692,-0.2692,0.0,0.0,0.0,0.6711,0.0,0.0,0.4836,0.447,0.3662,0.0773,0.0168,-0.0303,-0.1918,-0.2189,-0.2189,-0.2189,-0.2189,-0.2189,-0.2189,-0.2189,-0.2189,-0.2189,-0.2189,-0.2189,-0.2189,-0.2189,-0.2193,-0.2207,-0.2202,-0.2202,-0.2244,-0.2279,-0.2296,-0.2296,-0.2296,-0.2296,-0.2296,-0.2296,-0.2296,-0.2296,-0.2296,-0.2296,-0.2296,-0.2296,-0.2296,-0.2296,-0.2296,-0.2303,-0.2352,-0.2352,-0.2352,-0.2352,-0.2352,-0.2371,-0.2399,-0.2449,-0.2428,-0.2447,-0.2477,-0.2488,-0.2491,-0.2508,-0.2514,-0.2514,-0.2514,-0.2514,-0.2514,-0.2514,-0.2514,-0.2514,-0.2514,-0.2514,-0.2514,-0.2514,-0.2514,-0.2514,-0.2514,-0.2525,-0.2533,-0.2533,-0.2533,-0.2542,-0.2613,-0.2587,-0.2601,-0.2617,-0.2605,-0.2624,-0.2624,-0.2682,-0.2692,-0.2692,-0.2692,-0.2692,-0.2692,-0.2692,-0.2692,-0.2692,-0.2692,-0.2692,-0.2692,-0.2692,-0.2692,-0.2692,-0.2692,-0.2692,-0.2692,-0.2692,-0.2692,-0.2692,-0.2692,-0.2692,0.0,0.0,0.0,0.0,0.7507,0.0,0.5949,0.5647,0.4839,0.2083,0.1512,0.0874,-0.1211,-0.1615,-0.1682,-0.1885,-0.1885,-0.1986,-0.2188,-0.2189,-0.2189,-0.2189,-0.2189,-0.2189,-0.2189,-0.2189,-0.2201,-0.2198,-0.2197,-0.2238,-0.2293,-0.2296,-0.2296,-0.2296,-0.2296,-0.2296,-0.2296,-0.2296,-0.2296,-0.2296,-0.2296,-0.2296,-0.2296,-0.2296,-0.2296,-0.2296,-0.23,-0.2353,-0.2416,-0.2382,-0.2383,-0.2383,-0.2383,-0.2402,-0.2432,-0.2498,-0.251,-0.2517,-0.2504,-0.2514,-0.2514,-0.2514,-0.2514,-0.2514,-0.2514,-0.2514,-0.2514,-0.2514,-0.2514,-0.2514,-0.2514,-0.2514,-0.2514,-0.2514,-0.2514,-0.2515,-0.2518,-0.2541,-0.2602,-0.2608,-0.2607,-0.2614,-0.2601,-0.2589,-0.2606,-0.261,-0.2675,-0.2692,-0.2692,-0.2692,-0.2692,-0.2692,-0.2692,-0.2692,-0.2692,-0.2692,-0.2692,-0.2692,-0.2692,-0.2692,-0.2692,-0.2692,-0.2692,-0.2692,-0.2692,-0.2692,-0.2692,-0.2692,-0.2692,-0.2692,-0.2692,-0.2692,0.0,0.0,0.0,0.0,0.8272,0.0,0.7283,0.7083,0.651,0.4495,0.4093,0.3691,0.2382,0.2146,0.1678,0.0202,-0.0034,-0.0538,-0.1986,-0.2189,-0.2189,-0.2189,-0.2189,-0.2189,-0.2189,-0.2189,-0.2201,-0.2198,-0.2251,-0.2297,-0.2295,-0.2296,-0.2296,-0.2296,-0.2296,-0.2296,-0.2296,-0.2296,-0.2296,-0.2296,-0.2296,-0.2296,-0.2296,-0.2296,-0.2296,-0.2297,-0.2358,-0.2372,-0.2417,-0.2405,-0.2414,-0.2414,-0.2414,-0.2433,-0.2499,-0.2506,-0.2484,-0.2506,-0.2512,-0.2514,-0.2514,-0.2514,-0.2514,-0.2514,-0.2514,-0.2514,-0.2514,-0.2514,-0.2514,-0.2514,-0.2514,-0.2514,-0.2514,-0.2514,-0.2514,-0.2521,-0.2585,-0.2596,-0.2614,-0.2579,-0.2611,-0.2602,-0.2591,-0.2602,-0.2614,-0.268,-0.2688,-0.2692,-0.2692,-0.2692,-0.2692,-0.2692,-0.2692,-0.2692,-0.2692,-0.2692,-0.2692,-0.2692,-0.2692,-0.2692,-0.2692,-0.2692,-0.2692,-0.2692,-0.2692,-0.2692,-0.2692,-0.2692,-0.2692,-0.2692,-0.2692,-0.2692,0.0,0.0,0.0,0.8486,0.8546,0.0,0.0,0.7512,0.6978,0.5168,0.48,0.4462,0.3385,0.3184,0.2682,0.1075,0.0638,-0.0067,-0.1683,-0.2087,-0.2189,-0.2189,-0.2189,-0.2189,-0.2189,-0.2189,-0.2207,-0.2185,-0.2278,-0.2318,-0.2296,-0.2296,-0.2296,-0.2296,-0.2296,-0.2296,-0.2296,-0.2296,-0.2296,-0.2296,-0.2296,-0.2296,-0.2296,-0.2296,-0.2304,-0.2356,-0.2372,-0.2433,-0.2463,-0.244,-0.2455,-0.2467,-0.2453,-0.2465,-0.2492,-0.2492,-0.2502,-0.2514,-0.2514,-0.2514,-0.2514,-0.2514,-0.2514,-0.2514,-0.2514,-0.2514,-0.2514,-0.2514,-0.2514,-0.2514,-0.2514,-0.2514,-0.2518,-0.2533,-0.2537,-0.2545,-0.2574,-0.2593,-0.2612,-0.2601,-0.2647,-0.2652,-0.2667,-0.2669,-0.2675,-0.269,-0.2692,-0.2692,-0.2692,-0.2692,-0.2692,-0.2692,-0.2692,-0.2692,-0.2692,-0.2692,-0.2692,-0.2692,-0.2692,-0.2692,-0.2692,-0.2692,-0.2692,-0.2692,-0.2692,-0.2692,-0.2692,-0.2692,-0.2692,-0.2692,-0.2692,-0.2692,0.8367,0.8432,0.8475,0.8562,0.859,0.8451,0.0,0.0,0.0,0.5837,0.5536,0.5265,0.4389,0.4255,0.3751,0.2241,0.1508,0.0604,-0.0905,-0.168,-0.212,-0.2189,-0.2189,-0.2189,-0.2189,-0.2199,-0.2195,-0.2214,-0.2267,-0.2296,-0.2296,-0.2296,-0.2296,-0.2296,-0.2296,-0.2296,-0.2296,-0.2296,-0.2296,-0.2296,-0.2296,-0.2299,-0.2305,-0.2305,-0.2358,-0.2387,-0.243,-0.2462,-0.2507,-0.2514,-0.2492,-0.2512,-0.2488,-0.2492,-0.2514,-0.2514,-0.2514,-0.2514,-0.2514,-0.2514,-0.2514,-0.2514,-0.2514,-0.2514,-0.2514,-0.2514,-0.2514,-0.2514,-0.2514,-0.2514,-0.2514,-0.2518,-0.2529,-0.2593,-0.2604,-0.2615,-0.2604,-0.2589,-0.2607,-0.2613,-0.2676,-0.2692,-0.2692,-0.2692,-0.2692,-0.2692,-0.2692,-0.2692,-0.2692,-0.2692,-0.2692,-0.2692,-0.2692,-0.2692,-0.2692,-0.2692,-0.2692,-0.2692,-0.2692,-0.2692,-0.2692,-0.2692,-0.2692,-0.2692,-0.2692,-0.2692,-0.2692,-0.2692,-0.2692,-0.2692,-0.2692,-0.2692,0.8443,0.8492,0.8573,0.8584,0.859,0.8584,0.8484,0.0,0.8418,0.8218,0.0,0.8117,0.8012,0.0,0.0,0.5474,0.419,0.2772,0.0892,-0.0701,-0.1784,-0.2154,-0.2189,-0.2189,-0.2189,-0.2203,-0.2214,-0.2283,-0.2279,-0.2296,-0.2296,-0.2296,-0.2296,-0.2296,-0.2296,-0.2296,-0.2296,-0.2296,-0.2296,-0.2296,-0.2296,-0.2346,-0.2373,-0.2373,-0.239,-0.242,-0.2447,-0.25,-0.251,-0.2497,-0.2511,-0.2514,-0.251,-0.2511,-0.2514,-0.2514,-0.2514,-0.2514,-0.2514,-0.2514,-0.2514,-0.2514,-0.2514,-0.2514,-0.2514,-0.2514,-0.2514,-0.2514,-0.2514,-0.2514,-0.2514,-0.2534,-0.2596,-0.2599,-0.2618,-0.2605,-0.2594,-0.2603,-0.2614,-0.2682,-0.269,-0.2692,-0.2692,-0.2692,-0.2692,-0.2692,-0.2692,-0.2692,-0.2692,-0.2692,-0.2692,-0.2692,-0.2692,-0.2692,-0.2692,-0.2692,-0.2692,-0.2692,-0.2692,-0.2692,-0.2692,-0.2692,-0.2692,-0.2692,-0.2692,-0.2692,-0.2692,-0.2692,-0.2692,-0.2692,-0.2692,-0.2692,0.853,0.8253,0.8051,0.8484,0.8284,0.8084,0.8484,0.859,0.859,0.859,0.0,0.0,0.0,0.0,0.0,0.0,0.4812,0.3214,0.1533,-0.0201,-0.1447,-0.1818,-0.2053,-0.2196,-0.2214,-0.2185,-0.2222,-0.2289,-0.2318,-0.2296,-0.2296,-0.2296,-0.2296,-0.2296,-0.2296,-0.2296,-0.2296,-0.2296,-0.2296,-0.2296,-0.235,-0.2365,-0.2416,-0.2397,-0.2421,-0.245,-0.2502,-0.2517,-0.2496,-0.2508,-0.2514,-0.2514,-0.2514,-0.2514,-0.2514,-0.2514,-0.2514,-0.2514,-0.2514,-0.2514,-0.2514,-0.2514,-0.2514,-0.2514,-0.2514,-0.2514,-0.2514,-0.2514,-0.2514,-0.2518,-0.2536,-0.259,-0.2608,-0.2602,-0.2619,-0.2595,-0.2667,-0.2673,-0.2677,-0.269,-0.2692,-0.2692,-0.2692,-0.2692,-0.2692,-0.2692,-0.2692,-0.2692,-0.2692,-0.2692,-0.2692,-0.2692,-0.2692,-0.2692,-0.2692,-0.2692,-0.2692,-0.2692,-0.2692,-0.2692,-0.2692,-0.2692,-0.2692,-0.2692,-0.2692,-0.2692,-0.2692,-0.2692,-0.2692,-0.2692,-0.2692,-0.2692,0.8284,0.7917,0.7679,0.8418,0.8184,0.7951,0.8484,0.859,0.859,0.859,0.859,0.0,0.0,0.0,0.0,0.0,0.0,0.355,0.244,0.0436,-0.1111,-0.1548,-0.1952,-0.22,-0.2198,-0.2193,-0.2222,-0.2289,-0.2318,-0.2296,-0.2296,-0.2296,-0.2296,-0.2296,-0.2296,-0.2296,-0.2296,-0.2296,-0.2296,-0.2296,-0.2364,-0.2383,-0.2391,-0.2423,-0.2453,-0.2481,-0.2481,-0.2493,-0.2514,-0.2514,-0.2514,-0.2514,-0.2514,-0.2514,-0.2514,-0.2514,-0.2514,-0.2514,-0.2514,-0.2514,-0.2514,-0.2514,-0.2514,-0.2514,-0.2514,-0.2514,-0.2514,-0.2514,-0.2514,-0.2521,-0.2592,-0.2606,-0.2585,-0.2594,-0.2611,-0.2624,-0.2687,-0.2692,-0.2692,-0.2692,-0.2692,-0.2692,-0.2692,-0.2692,-0.2692,-0.2692,-0.2692,-0.2692,-0.2692,-0.2692,-0.2692,-0.2692,-0.2692,-0.2692,-0.2692,-0.2692,-0.2692,-0.2692,-0.2692,-0.2692,-0.2692,-0.2692,-0.2692,-0.2692,-0.2692,-0.2692,-0.2692,-0.2692,-0.2692,-0.2692,-0.2692,-0.2692,0.755,0.7512,0.7679,0.8418,0.859,0.8584,0.859,0.859,0.859,0.859,0.0,0.0,0.0,0.0,0.0,0.0,0.0,0.0,0.0,0.1399,-0.0774,-0.1515,-0.1952,-0.22,-0.2198,-0.2193,-0.2222,-0.2289,-0.2318,-0.2296,-0.2296,-0.2296,-0.2296,-0.2296,-0.2296,-0.2296,-0.2296,-0.2296,-0.2296,-0.2296,-0.2364,-0.2394,-0.2385,-0.2454,-0.2484,-0.2512,-0.2512,-0.2514,-0.2514,-0.2514,-0.2514,-0.2514,-0.2514,-0.2514,-0.2514,-0.2514,-0.2514,-0.2514,-0.2514,-0.2514,-0.2514,-0.2514,-0.2514,-0.2514,-0.2514,-0.2514,-0.2514,-0.2514,-0.2514,-0.2521,-0.2592,-0.2579,-0.2608,-0.2598,-0.2669,-0.2691,-0.2692,-0.2692,-0.2692,-0.2692,-0.2692,-0.2692,-0.2692,-0.2692,-0.2692,-0.2692,-0.2692,-0.2692,-0.2692,-0.2692,-0.2692,-0.2692,-0.2692,-0.2692,-0.2692,-0.2692,-0.2692,-0.2692,-0.2692,-0.2692,-0.2692,-0.2692,-0.2692,-0.2692,-0.2692,-0.2692,-0.2692,-0.2692,-0.2692,-0.2692,-0.2692,-0.2692,0.8218,0.7884,0.7679,0.8418,0.8218,0.8017,0.8484,0.859,0.859,0.859,0.0,0.0,0.0,0.0,0.0,0.0,0.0,0.0,0.0,0.1507,-0.0606,-0.0842,-0.1414,-0.1835,-0.1877,-0.2065,-0.223,-0.2279,-0.2291,-0.2296,-0.2296,-0.2296,-0.2296,-0.2296,-0.2296,-0.2296,-0.2296,-0.2296,-0.2307,-0.2363,-0.2394,-0.2424,-0.2455,-0.2485,-0.2504,-0.2514,-0.2514,-0.2514,-0.2514,-0.2514,-0.2514,-0.2514,-0.2514,-0.2514,-0.2514,-0.2514,-0.2514,-0.2514,-0.2514,-0.2514,-0.2514,-0.2514,-0.2514,-0.2514,-0.2514,-0.2514,-0.2514,-0.2514,-0.2529,-0.259,-0.2579,-0.2609,-0.2598,-0.2669,-0.2686,-0.2692,-0.2692,-0.2692,-0.2692,-0.2692,-0.2692,-0.2692,-0.2692,-0.2692,-0.2692,-0.2692,-0.2692,-0.2692,-0.2692,-0.2692,-0.2692,-0.2692,-0.2692,-0.2692,-0.2692,-0.2692,-0.2692,-0.2692,-0.2692,-0.2692,-0.2692,-0.2692,-0.2692,-0.2692,-0.2692,-0.2692,-0.2692,-0.2692,-0.2692,-0.2692,-0.2692,-0.2692,0.8218,0.7851,0.7679,0.8418,0.7851,0.7379,0.8384,0.8184,0.7817,0.7817,0.0,0.0,0.0,0.0,0.0,0.0,0.0,0.0,0.0,0.0975,-0.0337,-0.0337,-0.1077,-0.1562,-0.1494,-0.1819,-0.2053,-0.2097,-0.2109,-0.2187,-0.2296,-0.2296,-0.2296,-0.2296,-0.2296,-0.2296,-0.2296,-0.2307,-0.2358,-0.2416,-0.242,-0.245,-0.2509,-0.25,-0.2514,-0.2514,-0.2514,-0.2514,-0.2514,-0.2514,-0.2514,-0.2514,-0.2514,-0.2514,-0.2514,-0.2514,-0.2514,-0.2514,-0.2514,-0.2514,-0.2514,-0.2514,-0.2514,-0.2514,-0.2514,-0.2514,-0.2512,-0.2502,-0.2567,-0.2604,-0.2582,-0.2616,-0.2613,-0.2686,-0.2692,-0.2692,-0.2692,-0.2692,-0.2692,-0.2692,-0.2692,-0.2692,-0.2692,-0.2692,-0.2692,-0.2692,-0.2692,-0.2692,-0.2692,-0.2692,-0.2692,-0.2692,-0.2692,-0.2692,-0.2692,-0.2692,-0.2692,-0.2692,-0.2692,-0.2692,-0.2692,-0.2692,-0.2692,-0.2692,-0.2692,-0.2692,-0.2692,-0.2692,-0.2692,-0.2692,-0.2692,-0.2692]},{"header":{"parameterUnit":"m.s-1","parameterCategory":1,"la1":30.6,"la2":29.2853,"lo1":-89.7004,"lo2":-87.6739,"dy":0.0162,"dx":0.0183,"nx":112,"ny":82,"refTime":"2023-08-16T06:00:00:Z","depth":0,"parameterNumber":3,"parameterNumberName":"V-component_of_WINDS"},"data":[0.0,0.0,0.0,0.0,0.0,0.0,0.0,0.0,0.0,0.0,0.0,0.0,0.0,0.0,0.0,0.0,0.0,0.0,0.0,0.0,0.0,0.0,0.0,0.0,0.0,0.0,0.0,0.0,0.0,0.0,0.0,0.0,0.0,0.0,0.0,0.0,0.0,0.0,0.0,0.0,0.0,0.0,0.0,0.0,0.0,0.0,0.0,0.0,0.0,0.0,0.0,0.0,0.0,0.0,0.0,0.0,0.0,0.0,0.0,0.0,0.0,0.0,0.0,0.0,0.0,0.0,0.0,0.0,0.0,0.0,0.0,0.0,0.0,0.0,0.0,0.0,0.0,0.0,0.0,0.0,0.0,0.0,0.0,0.0,0.0,0.0,0.0,0.0,0.0,0.0,3.8778,3.8791,3.8804,3.8721,3.8638,3.8468,3.8665,3.9274,0.0,0.0,0.0,0.0,0.0,0.0,0.0,0.0,0.0,0.0,0.0,0.0,0.0,0.0,0.0,0.0,0.0,0.0,0.0,0.0,0.0,0.0,0.0,0.0,0.0,0.0,0.0,0.0,0.0,0.0,0.0,0.0,0.0,0.0,0.0,0.0,0.0,0.0,0.0,0.0,0.0,0.0,0.0,0.0,0.0,0.0,0.0,0.0,0.0,0.0,0.0,0.0,0.0,0.0,0.0,0.0,0.0,0.0,0.0,0.0,0.0,0.0,0.0,0.0,0.0,0.0,0.0,0.0,0.0,0.0,0.0,0.0,0.0,0.0,0.0,0.0,0.0,0.0,0.0,0.0,0.0,0.0,0.0,0.0,0.0,0.0,0.0,0.0,0.0,0.0,0.0,0.0,0.0,0.0,0.0,0.0,0.0,0.0,0.0,0.0,0.0,0.0,0.0,0.0,3.9698,4.0612,4.0577,4.0528,4.0495,4.0242,4.0157,4.0296,0.0,0.0,0.0,0.0,0.0,0.0,0.0,0.0,0.0,0.0,0.0,0.0,0.0,0.0,0.0,0.0,0.0,0.0,0.0,0.0,0.0,0.0,0.0,0.0,0.0,0.0,0.0,0.0,0.0,0.0,0.0,0.0,0.0,0.0,0.0,0.0,0.0,0.0,0.0,0.0,0.0,0.0,0.0,0.0,0.0,0.0,0.0,0.0,0.0,0.0,0.0,0.0,0.0,0.0,0.0,0.0,0.0,0.0,0.0,0.0,0.0,0.0,0.0,0.0,0.0,0.0,0.0,0.0,0.0,0.0,0.0,0.0,0.0,0.0,0.0,0.0,0.0,0.0,0.0,0.0,0.0,0.0,0.0,0.0,0.0,0.0,0.0,0.0,0.0,0.0,0.0,0.0,0.0,0.0,0.0,0.0,0.0,0.0,0.0,0.0,0.0,0.0,0.0,4.0359,4.055,4.106,4.104,4.0962,4.0902,4.0796,4.0649,4.0527,3.9676,0.0,0.0,0.0,0.0,0.0,0.0,0.0,0.0,0.0,0.0,0.0,0.0,0.0,0.0,0.0,0.0,0.0,0.0,0.0,0.0,0.0,0.0,0.0,0.0,0.0,0.0,0.0,0.0,0.0,0.0,0.0,0.0,0.0,0.0,0.0,0.0,0.0,0.0,0.0,0.0,0.0,0.0,0.0,0.0,0.0,0.0,0.0,0.0,0.0,0.0,0.0,0.0,0.0,0.0,0.0,0.0,0.0,0.0,0.0,0.0,0.0,0.0,0.0,0.0,0.0,0.0,0.0,0.0,0.0,0.0,0.0,0.0,0.0,0.0,0.0,0.0,0.0,0.0,0.0,0.0,0.0,0.0,0.0,0.0,0.0,0.0,0.0,0.0,0.0,0.0,0.0,0.0,0.0,0.0,0.0,0.0,0.0,0.0,0.0,0.0,0.0,0.0,4.1103,4.1107,4.1103,4.1097,4.1073,4.0965,4.0927,4.0783,4.0552,4.0535,0.0,0.0,0.0,0.0,0.0,0.0,0.0,0.0,0.0,0.0,0.0,0.0,0.0,0.0,0.0,0.0,0.0,0.0,0.0,0.0,0.0,0.0,0.0,0.0,0.0,0.0,0.0,0.0,0.0,0.0,0.0,0.0,0.0,0.0,0.0,0.0,0.0,0.0,0.0,0.0,0.0,0.0,0.0,0.0,0.0,0.0,0.0,0.0,0.0,0.0,0.0,0.0,0.0,0.0,0.0,0.0,0.0,0.0,0.0,0.0,0.0,0.0,0.0,0.0,0.0,0.0,0.0,0.0,0.0,0.0,0.0,0.0,0.0,0.0,0.0,0.0,0.0,0.0,0.0,0.0,0.0,0.0,0.0,0.0,0.0,0.0,0.0,0.0,0.0,0.0,0.0,0.0,0.0,0.0,0.0,0.0,0.0,0.0,0.0,0.0,0.0,0.0,4.108,4.1102,4.1119,4.1087,4.1083,4.1094,4.0954,4.0852,4.0694,4.0559,0.0,0.0,0.0,0.0,0.0,0.0,0.0,0.0,0.0,0.0,0.0,0.0,0.0,0.0,0.0,0.0,0.0,0.0,0.0,0.0,0.0,0.0,0.0,0.0,0.0,0.0,0.0,0.0,0.0,0.0,0.0,0.0,0.0,0.0,0.0,0.0,0.0,0.0,0.0,0.0,0.0,0.0,0.0,0.0,0.0,0.0,0.0,0.0,0.0,0.0,0.0,0.0,0.0,0.0,0.0,0.0,0.0,0.0,0.0,0.0,0.0,0.0,0.0,0.0,0.0,0.0,0.0,0.0,0.0,0.0,0.0,0.0,0.0,0.0,0.0,0.0,0.0,0.0,0.0,0.0,0.0,0.0,0.0,0.0,0.0,0.0,0.0,0.0,0.0,0.0,0.0,0.0,0.0,0.0,0.0,0.0,0.0,0.0,0.0,0.0,0.0,0.0,4.1098,4.1106,4.1098,4.1101,4.1095,4.1109,4.1048,4.0953,4.0819,0.0,0.0,0.0,0.0,0.0,0.0,0.0,0.0,0.0,0.0,0.0,0.0,0.0,0.0,0.0,0.0,0.0,0.0,0.0,0.0,0.0,0.0,0.0,0.0,0.0,0.0,0.0,0.0,0.0,0.0,0.0,0.0,0.0,0.0,0.0,0.0,0.0,0.0,0.0,0.0,0.0,0.0,0.0,0.0,0.0,0.0,0.0,0.0,0.0,0.0,0.0,0.0,0.0,0.0,0.0,0.0,0.0,0.0,0.0,0.0,0.0,0.0,0.0,0.0,0.0,0.0,0.0,0.0,0.0,0.0,0.0,0.0,0.0,0.0,0.0,0.0,0.0,0.0,0.0,0.0,0.0,0.0,0.0,0.0,0.0,0.0,0.0,0.0,0.0,0.0,0.0,0.0,0.0,0.0,0.0,0.0,0.0,0.0,0.0,0.0,0.0,0.0,4.1101,4.1107,4.1107,4.11,4.1099,4.1094,4.1114,4.1106,4.1029,4.0928,0.0,0.0,0.0,0.0,0.0,0.0,0.0,0.0,0.0,0.0,0.0,0.0,0.0,0.0,0.0,0.0,0.0,0.0,0.0,0.0,0.0,0.0,0.0,0.0,0.0,0.0,0.0,0.0,0.0,0.0,0.0,0.0,0.0,0.0,0.0,0.0,0.0,0.0,0.0,0.0,0.0,0.0,0.0,0.0,0.0,0.0,0.0,0.0,0.0,0.0,0.0,0.0,0.0,0.0,0.0,0.0,0.0,0.0,0.0,0.0,0.0,0.0,0.0,0.0,0.0,0.0,0.0,0.0,0.0,0.0,0.0,0.0,0.0,0.0,0.0,0.0,0.0,0.0,0.0,0.0,0.0,0.0,0.0,0.0,0.0,0.0,0.0,0.0,0.0,0.0,0.0,0.0,0.0,0.0,0.0,0.0,0.0,0.0,0.0,0.0,0.0,0.0,4.1095,4.1103,4.1102,4.1117,4.1113,4.1113,4.1113,4.1088,4.1048,0.0,0.0,0.0,0.0,0.0,0.0,0.0,0.0,0.0,0.0,0.0,0.0,0.0,0.0,0.0,0.0,0.0,0.0,0.0,0.0,0.0,0.0,0.0,0.0,0.0,0.0,0.0,0.0,0.0,0.0,0.0,0.0,0.0,0.0,0.0,0.0,0.0,0.0,0.0,0.0,0.0,0.0,0.0,0.0,0.0,0.0,0.0,0.0,0.0,0.0,0.0,0.0,0.0,0.0,0.0,0.0,0.0,0.0,0.0,0.0,0.0,0.0,0.0,0.0,0.0,0.0,0.0,0.0,0.0,0.0,0.0,0.0,0.0,0.0,0.0,0.0,0.0,0.0,0.0,0.0,0.0,0.0,0.0,0.0,0.0,0.0,0.0,0.0,0.0,0.0,0.0,0.0,0.0,0.0,0.0,0.0,0.0,0.0,0.0,0.0,0.0,0.0,0.0,4.1105,4.1107,4.1107,4.1101,4.11,4.1094,4.1114,4.1106,4.1088,4.105,0.0,0.0,0.0,0.0,0.0,0.0,0.0,0.0,0.0,0.0,0.0,0.0,0.0,0.0,0.0,0.0,0.0,0.0,0.0,0.0,0.0,0.0,0.0,0.0,0.0,0.0,0.0,0.0,0.0,0.0,0.0,0.0,0.0,0.0,0.0,0.0,0.0,0.0,0.0,0.0,0.0,0.0,0.0,0.0,0.0,0.0,0.0,0.0,0.0,0.0,0.0,0.0,0.0,0.0,0.0,0.0,0.0,0.0,0.0,0.0,0.0,0.0,0.0,0.0,0.0,0.0,0.0,0.0,0.0,0.0,0.0,0.0,0.0,0.0,0.0,0.0,0.0,0.0,0.0,0.0,0.0,0.0,0.0,0.0,0.0,0.0,0.0,0.0,0.0,0.0,0.0,0.0,0.0,0.0,0.0,0.0,0.0,0.0,0.0,0.0,0.0,0.0,4.1109,4.1382,4.1616,4.1616,4.1925,4.2154,4.2144,4.2092,4.2117,4.2143,0.0,0.0,0.0,0.0,0.0,0.0,0.0,0.0,0.0,0.0,0.0,0.0,0.0,0.0,0.0,0.0,0.0,0.0,0.0,0.0,0.0,0.0,0.0,0.0,0.0,0.0,0.0,0.0,0.0,0.0,0.0,0.0,0.0,0.0,0.0,0.0,0.0,0.0,0.0,0.0,0.0,0.0,0.0,0.0,0.0,0.0,0.0,0.0,0.0,0.0,0.0,0.0,0.0,0.0,0.0,0.0,0.0,0.0,0.0,0.0,0.0,0.0,0.0,0.0,0.0,0.0,0.0,0.0,0.0,0.0,0.0,0.0,0.0,0.0,0.0,0.0,0.0,0.0,0.0,0.0,0.0,0.0,0.0,0.0,0.0,0.0,0.0,0.0,0.0,0.0,0.0,0.0,0.0,0.0,0.0,0.0,0.0,0.0,0.0,0.0,0.0,0.0,4.1226,4.1967,4.2512,4.2512,4.3247,4.3713,4.3682,4.3656,4.3638,4.3685,0.0,0.0,0.0,0.0,0.0,0.0,0.0,0.0,0.0,0.0,0.0,0.0,0.0,0.0,0.0,0.0,0.0,0.0,0.0,0.0,0.0,0.0,0.0,0.0,0.0,0.0,0.0,0.0,0.0,0.0,0.0,0.0,0.0,0.0,0.0,0.0,0.0,0.0,0.0,0.0,0.0,0.0,0.0,0.0,0.0,0.0,0.0,0.0,0.0,0.0,0.0,0.0,0.0,0.0,0.0,0.0,0.0,0.0,0.0,0.0,3.4444,3.3519,0.0,0.0,0.0,0.0,0.0,0.0,0.0,0.0,0.0,0.0,0.0,0.0,0.0,0.0,0.0,0.0,0.0,0.0,0.0,0.0,0.0,0.0,0.0,0.0,0.0,0.0,0.0,0.0,0.0,0.0,0.0,0.0,0.0,0.0,0.0,0.0,0.0,0.0,0.0,0.0,4.2123,4.2864,4.3412,4.3412,4.3605,4.3715,4.37,4.3691,4.3677,4.3614,4.2944,0.0,0.0,0.0,0.0,0.0,0.0,0.0,0.0,0.0,0.0,0.0,0.0,0.0,0.0,0.0,0.0,0.0,0.0,0.0,0.0,0.0,0.0,0.0,0.0,0.0,0.0,0.0,0.0,0.0,0.0,0.0,0.0,0.0,0.0,0.0,0.0,0.0,0.0,0.0,0.0,0.0,0.0,0.0,0.0,0.0,0.0,0.0,0.0,0.0,0.0,0.0,0.0,0.0,0.0,0.0,0.0,0.0,0.0,0.0,3.6431,3.577,0.0,0.0,0.0,0.0,0.0,0.0,0.0,0.0,0.0,0.0,0.0,0.0,0.0,0.0,0.0,0.0,0.0,0.0,0.0,0.0,0.0,0.0,0.0,0.0,0.0,0.0,0.0,0.0,0.0,0.0,0.0,0.0,0.0,0.0,0.0,0.0,0.0,0.0,0.0,0.0,4.3021,4.3801,4.4309,4.4309,4.47,4.4969,4.4958,4.4907,4.4893,4.4838,4.4431,0.0,0.0,0.0,0.0,0.0,0.0,0.0,0.0,0.0,0.0,0.0,0.0,0.0,0.0,0.0,0.0,0.0,0.0,0.0,0.0,0.0,0.0,0.0,0.0,0.0,0.0,0.0,0.0,0.0,0.0,0.0,0.0,0.0,0.0,0.0,0.0,0.0,0.0,0.0,0.0,0.0,0.0,0.0,0.0,0.0,0.0,0.0,0.0,0.0,0.0,0.0,0.0,0.0,3.8435,3.8537,3.8565,3.8492,3.8569,3.8738,3.8393,3.812,3.7973,3.8124,0.0,0.0,0.0,0.0,0.0,0.0,0.0,0.0,0.0,0.0,0.0,0.0,0.0,0.0,0.0,0.0,0.0,0.0,0.0,0.0,0.0,0.0,4.1279,4.1322,4.1448,4.1568,4.1536,0.0,0.0,0.0,0.0,0.0,0.0,0.0,0.0,0.0,0.0,0.0,4.4154,4.5051,4.5674,4.5674,4.63,4.6729,4.6727,4.6672,4.6657,4.6652,4.651,4.6103,0.0,0.0,0.0,0.0,0.0,0.0,0.0,0.0,0.0,0.0,0.0,0.0,0.0,0.0,0.0,0.0,0.0,0.0,0.0,0.0,0.0,0.0,0.0,0.0,0.0,0.0,0.0,0.0,0.0,0.0,0.0,0.0,3.4162,3.4748,0.0,0.0,0.0,0.0,0.0,0.0,0.0,0.0,0.0,0.0,0.0,0.0,0.0,3.8248,3.8248,3.9015,3.9398,3.9398,4.0092,4.0446,4.0422,4.0446,4.0456,4.048,4.04,0.0,3.8321,3.9049,0.0,0.0,0.0,0.0,0.0,0.0,0.0,0.0,0.0,0.0,0.0,0.0,0.0,0.0,0.0,0.0,0.0,0.0,0.0,0.0,0.0,0.0,4.2232,4.2236,4.2824,4.3371,4.3373,4.2747,4.2239,4.2239,4.2825,4.3373,0.0,0.0,0.0,0.0,0.0,0.0,4.5949,4.7315,4.8291,4.8291,4.8408,4.8483,4.8474,4.847,4.8458,4.8469,4.7762,4.7285,4.7152,4.7152,0.0,0.0,0.0,0.0,0.0,0.0,0.0,0.0,0.0,0.0,0.0,0.0,0.0,0.0,0.0,0.0,0.0,0.0,0.0,0.0,0.0,0.0,0.0,0.0,0.0,0.0,0.0,0.0,0.0,3.51,3.5776,3.6688,3.7163,3.7584,0.0,0.0,0.0,0.0,0.0,0.0,0.0,0.0,0.0,3.9712,3.9712,3.9712,3.9712,4.0096,4.0288,4.0288,4.0635,4.0857,4.0902,4.0814,4.0848,4.0965,4.0924,4.0507,3.988,4.0178,4.0057,3.9751,0.0,0.0,0.0,0.0,4.0815,4.082,4.085,4.0861,4.087,4.0915,0.0,0.0,0.0,0.0,0.0,0.0,0.0,4.2548,4.2552,4.2826,4.3104,4.3079,4.3355,4.3631,4.3632,4.41,4.4258,4.3302,4.3451,4.3997,4.4973,4.5169,0.0,0.0,0.0,4.7705,4.7705,4.8369,4.8798,4.8798,4.8798,4.8796,4.8792,4.8818,4.8803,4.8788,4.842,4.8212,4.8243,4.8243,4.8009,0.0,0.0,0.0,0.0,0.0,0.0,0.0,0.0,0.0,0.0,0.0,0.0,0.0,0.0,0.0,0.0,0.0,0.0,0.0,0.0,0.0,0.0,0.0,0.0,0.0,0.0,0.0,0.0,3.6794,3.7186,3.8227,3.8351,3.8453,0.0,0.0,0.0,0.0,0.0,0.0,3.9975,4.0518,4.0876,4.0898,4.0861,4.0861,4.0861,4.0861,4.0861,4.0861,4.0861,4.093,4.1016,4.0926,4.1078,4.1419,4.1386,4.1509,4.173,4.1104,4.0861,4.0861,4.0861,4.0861,4.0861,4.0861,4.0861,4.0906,4.1262,4.1353,4.14,4.1673,4.1755,4.1752,4.1768,0.0,0.0,0.0,0.0,4.3687,4.3695,4.401,4.4329,4.4296,4.4606,4.4915,4.4894,4.5903,4.6348,4.4686,4.4683,4.5386,4.6675,4.6908,0.0,4.8588,4.8978,4.9095,4.9095,4.929,4.9446,4.9446,4.9441,4.9476,4.9476,4.9453,4.947,4.9462,4.9479,4.946,4.9449,4.9449,4.9138,4.8475,0.0,0.0,0.0,0.0,0.0,0.0,0.0,0.0,0.0,0.0,0.0,0.0,0.0,0.0,0.0,0.0,0.0,0.0,0.0,0.0,0.0,0.0,0.0,0.0,0.0,0.0,0.0,0.0,0.0,3.9127,3.9293,0.0,0.0,0.0,0.0,4.0667,4.0708,4.079,4.0904,4.0986,4.1016,4.1064,4.1065,4.1065,4.1065,4.1065,4.1065,4.1065,4.1065,4.1104,4.1106,4.1104,4.1535,4.2317,4.2315,4.2785,4.3451,4.1769,4.1065,4.1065,4.1065,4.1065,4.1065,4.1065,4.1065,4.1182,4.204,4.2314,4.2471,4.3293,4.3567,4.3567,4.3568,4.3607,0.0,0.0,4.3685,4.3693,4.3632,4.4844,4.6053,4.6071,4.7272,4.8442,4.844,4.8517,4.809,4.6415,4.7353,4.8485,4.8563,0.0,4.8602,4.868,4.9425,4.9934,4.9934,5.0677,5.1185,5.1185,5.1247,5.1289,5.1289,5.1275,5.1285,5.1259,5.1256,5.1241,5.1164,5.1164,5.1164,5.1125,5.0307,0.0,0.0,0.0,0.0,0.0,0.0,0.0,0.0,0.0,0.0,0.0,0.0,0.0,0.0,0.0,0.0,0.0,0.0,0.0,0.0,0.0,0.0,0.0,0.0,0.0,0.0,0.0,0.0,4.0085,4.0277,0.0,4.0734,4.0863,4.0914,4.0914,4.0959,4.0991,4.1047,4.1048,4.1095,4.1108,4.1655,4.1927,4.1927,4.2475,4.2787,4.2787,4.2787,4.2787,4.2787,4.2787,4.2943,4.3255,4.3255,4.3412,4.3646,4.3021,4.2787,4.2787,4.2787,4.2787,4.2787,4.2787,4.2787,4.2826,4.3138,4.3255,4.3294,4.3607,4.3685,4.3802,4.4387,4.4933,4.5486,4.6011,4.656,4.6953,4.6904,4.7327,4.7826,4.7818,4.8272,4.869,4.8641,4.9095,4.929,4.8704,4.8665,4.8869,4.9458,4.9536,4.9731,5.0279,5.1139,5.1685,5.1685,5.2386,5.2892,5.2892,5.2944,5.2951,5.2951,5.2969,5.2999,5.2994,5.3001,5.3004,5.2978,5.2976,5.297,5.2954,5.2682,5.2526,0.0,0.0,0.0,0.0,0.0,0.0,0.0,0.0,0.0,0.0,0.0,0.0,0.0,0.0,0.0,0.0,0.0,0.0,0.0,0.0,0.0,0.0,0.0,0.0,0.0,3.9858,4.0104,4.0682,4.0818,4.0876,4.0876,4.0987,4.1024,4.1024,4.1056,4.1226,4.1538,4.1538,4.1655,4.1967,4.2552,4.2825,4.2825,4.3412,4.3685,4.3685,4.3997,4.4153,4.4153,4.4427,4.4739,4.5012,4.5012,4.5168,4.5403,4.5403,4.5403,4.5325,4.4154,4.3685,4.3685,4.3685,4.388,4.4231,4.4816,4.5207,4.5403,4.5403,4.5403,4.5522,4.6119,4.6708,4.7259,4.7772,4.8315,4.8779,4.8703,4.8884,4.9103,4.911,4.9556,4.9926,4.9898,5.0584,5.1169,5.1169,5.0494,5.0139,5.0729,5.1041,5.1431,5.2019,5.2602,5.2953,5.2953,5.3456,5.3767,5.3767,5.3787,5.3799,5.3799,5.3859,5.3905,5.3903,5.3909,5.3901,5.3913,5.3911,5.3906,5.389,5.389,5.389,5.389,0.0,0.0,0.0,0.0,0.0,0.0,0.0,0.0,0.0,0.0,0.0,0.0,0.0,0.0,0.0,0.0,0.0,0.0,0.0,0.0,0.0,0.0,0.0,4.0791,4.0793,4.0793,4.0793,4.0912,4.0995,4.0995,4.1085,4.1147,4.1147,4.1187,4.1538,4.2395,4.2434,4.2825,4.3685,4.3763,4.3763,4.3763,4.3841,4.3841,4.388,4.4738,4.5128,4.5167,4.5987,4.6846,4.7626,4.7626,4.8095,4.8798,4.8798,4.8798,4.8486,4.5169,4.3841,4.3841,4.3841,4.4388,4.5364,4.7044,4.8138,4.8802,4.8802,4.8802,4.8809,4.8828,4.8828,4.8826,4.8801,4.8789,4.8817,4.8835,4.9399,5.0002,5.0029,5.1244,5.2445,5.2445,5.3109,5.3692,5.3692,5.3031,5.2484,5.2445,5.3148,5.3692,5.3692,5.373,0.0,5.373,5.3769,5.3769,5.3769,5.3864,5.3916,5.3877,5.3958,5.3984,5.3979,5.3986,5.3977,5.3974,5.397,5.3968,5.3968,5.3968,5.3968,5.3929,0.0,0.0,0.0,0.0,0.0,0.0,0.0,0.0,0.0,0.0,0.0,0.0,0.0,0.0,0.0,0.0,0.0,0.0,0.0,0.0,0.0,4.0949,4.0902,4.08,4.0886,4.0962,4.0962,4.1022,4.1054,4.1054,4.1648,4.2045,4.2045,4.2631,4.3099,4.3334,4.3334,4.3451,4.3685,4.4934,4.5598,4.5598,4.6808,4.7393,4.7393,4.7627,4.7744,4.7744,4.8017,4.8252,4.8486,4.8486,4.8603,4.8798,4.8798,4.8798,4.872,4.7744,4.7393,4.7393,4.7393,4.7565,4.7812,4.8238,4.8546,4.8742,4.8742,4.8742,4.8858,4.9476,4.967,4.978,5.0352,5.0956,5.1445,5.1393,5.2025,5.2641,5.2652,5.2992,5.3342,5.3342,5.3536,5.3692,5.3692,5.3999,5.4077,5.3458,5.3536,5.3692,5.3692,5.4235,5.4621,5.4621,5.5204,5.5595,5.5595,5.6167,5.6305,5.568,5.6193,5.6341,5.5746,5.5742,5.5799,5.5805,5.5807,5.5777,5.5803,5.5803,5.545,0.0,0.0,0.0,0.0,0.0,0.0,0.0,0.0,0.0,0.0,0.0,0.0,0.0,0.0,0.0,0.0,0.0,0.0,0.0,0.0,0.0,0.0,4.1326,4.1566,4.1489,4.1205,4.1187,4.1537,4.1602,4.1772,4.2162,4.2631,4.2942,4.2942,4.3762,4.4387,4.4778,4.5129,4.548,4.5832,4.6808,4.7354,4.7354,4.8291,4.8798,4.8798,4.9189,4.9344,4.9345,4.9711,4.9906,4.9892,5.0259,5.0381,5.0421,5.0772,5.0934,5.0742,0.0,0.0,0.0,0.0,4.9296,4.9366,4.9661,5.0043,5.0316,5.0316,5.0549,5.0934,5.1422,5.1571,5.1674,5.2104,5.2624,5.2998,5.2932,5.3303,5.3692,5.3692,5.3964,5.4235,5.4235,5.4546,5.4779,5.4779,5.5479,0.0,5.5401,5.5013,5.4779,5.4779,5.5204,5.5553,5.5553,5.6295,5.6848,5.6837,5.7621,5.7944,5.7467,5.791,0.0,0.0,0.0,5.7414,5.707,5.7043,0.0,0.0,0.0,5.6232,5.5723,5.5723,0.0,0.0,5.4123,5.4084,0.0,0.0,0.0,0.0,0.0,0.0,0.0,0.0,0.0,0.0,0.0,0.0,0.0,0.0,0.0,0.0,4.1943,4.2551,4.2551,4.1889,4.1694,4.2435,4.2551,4.2864,4.3607,4.388,4.3997,4.3997,4.4894,4.5752,4.6535,4.7314,0.0,0.0,0.0,4.8993,4.9072,4.9189,4.9306,4.9384,5.0164,5.0556,5.0562,5.1326,5.1677,5.1702,5.2421,5.2734,5.2811,5.3554,5.3855,5.3511,5.054,4.9374,4.9451,5.0169,5.0428,5.0544,5.1321,0.0,0.0,5.2722,5.3227,5.3799,5.3775,5.379,5.3774,5.3721,5.3769,5.3847,5.3847,5.3925,5.4002,5.4002,5.466,5.5281,5.5281,5.5981,5.6563,5.6563,5.7227,5.7732,5.7732,5.7072,5.6563,5.6563,5.6563,5.6563,5.6563,5.7266,5.7758,5.7734,5.8526,0.0,5.8992,5.9141,5.9179,5.9036,5.906,5.8743,5.7967,5.7964,5.7596,5.6804,5.6794,5.679,5.679,5.6782,5.678,5.678,5.5879,5.5918,0.0,0.0,0.0,0.0,0.0,0.0,0.0,0.0,0.0,0.0,0.0,0.0,0.0,0.0,0.0,4.2106,4.286,4.3451,4.3451,4.3295,4.3256,4.3412,4.3451,4.3529,4.3685,4.4973,4.5793,4.5793,4.7198,4.8135,4.8291,4.8486,4.8642,4.8798,4.9461,5.0203,5.0906,5.1571,5.2313,5.3014,5.317,0.0,5.3163,5.3359,5.3395,5.3342,5.3491,5.3567,5.3566,5.3762,5.3812,5.3757,5.3079,5.2824,5.2858,5.2997,5.3087,5.3079,5.3205,5.3333,5.3488,5.3488,5.3605,5.3716,5.3733,5.3727,0.0,5.3701,5.4197,5.4737,5.4737,5.5281,5.579,5.579,5.645,5.711,5.711,5.7729,5.8311,5.8311,5.8467,5.8583,5.8583,5.8428,5.8311,5.8311,5.8311,5.8311,5.8311,5.8467,5.8587,5.8561,5.9395,5.9666,5.8976,5.9618,5.9781,5.9114,5.9088,5.9023,5.8856,5.8855,5.8775,5.8614,5.8547,5.8528,5.8528,5.8519,5.8531,5.8492,5.7635,5.7323,0.0,0.0,0.0,0.0,0.0,0.0,0.0,0.0,0.0,0.0,0.0,4.1586,4.1691,0.0,4.2998,4.3057,4.3762,4.4348,4.4348,4.509,4.548,4.5051,4.5012,4.5325,4.6184,4.7042,4.7549,4.7549,4.872,4.9461,4.9461,5.0282,5.0751,5.0751,5.1609,5.2272,5.2702,5.3132,5.3533,5.3937,5.3937,5.3906,5.3855,5.3839,5.3829,5.3824,5.4269,5.4448,5.4482,5.4872,5.5062,5.506,5.5032,5.4507,5.3762,5.3755,5.3735,5.3768,5.3713,5.4002,5.4349,5.4349,5.4663,5.5013,5.5013,5.5013,5.5013,5.5013,5.5634,5.6295,5.6295,5.6913,5.7535,5.7535,5.7884,5.8198,5.8198,5.8506,5.8813,5.8813,5.9166,5.9438,5.9438,5.9823,5.9823,5.893,5.8813,5.8813,5.8813,5.9166,5.9452,5.949,6.0328,6.0687,6.0285,6.0715,6.0823,6.0411,6.0401,6.0227,5.9765,5.9765,5.9569,5.9095,5.9084,5.9038,5.9038,5.906,5.9048,5.9048,5.9048,5.8788,0.0,0.0,0.0,0.0,0.0,0.0,0.0,4.087,4.1057,4.1202,4.1941,4.2589,4.2625,4.3372,4.3958,4.3958,4.4816,4.5518,4.5518,4.6845,4.7626,4.7081,4.6885,4.7315,4.8681,4.8954,4.9111,4.9306,5.0125,5.0671,5.0865,5.2195,5.2937,5.2937,5.3609,5.4041,5.4236,5.4204,5.4254,5.4373,5.4373,5.4363,5.4279,5.4303,5.4301,5.4338,5.5024,5.5344,5.5368,5.6021,5.6295,5.6333,5.6489,5.5673,5.4433,5.4274,5.4197,5.4197,5.4197,5.4663,5.5281,5.5437,5.5981,5.6567,5.6758,5.6796,5.6796,5.6796,5.7305,5.781,5.781,5.8311,5.8813,5.8813,5.8933,5.905,5.905,5.9202,5.9318,5.9318,5.9865,6.0332,6.0332,6.0964,6.0928,5.9516,5.9318,5.9318,5.9318,5.9904,6.0362,6.043,6.1071,6.1513,6.1602,6.1667,6.1719,6.1719,6.1719,6.1379,6.0695,6.0657,6.031,5.9609,5.9607,5.9606,5.9606,5.9603,5.9602,5.9602,6.0304,6.0126,4.0675,4.0718,4.0754,4.0754,4.0754,4.0759,0.0,4.1466,4.2148,4.2163,4.291,4.3564,4.3567,4.427,4.4855,4.4855,4.6221,4.7314,4.7314,4.8095,4.8915,4.9578,4.8993,4.8603,4.8798,4.95,5.0281,5.1063,5.1922,5.2742,5.3521,5.3756,5.3834,5.3834,5.3901,5.4297,5.5078,5.4991,5.5366,5.6105,5.6105,5.6079,5.601,5.6002,5.6033,5.6021,5.6125,5.6158,5.6158,5.6259,5.6295,5.6372,5.7149,5.7347,5.7075,5.6295,5.6023,5.6023,5.6023,5.6061,5.6295,5.7072,5.7386,5.7577,5.8311,5.8506,5.8506,5.8506,5.8583,5.8661,5.8661,5.8735,5.8813,5.8813,5.9399,5.9943,5.9943,6.0561,6.1105,6.1105,6.1183,6.126,6.126,6.1392,6.1411,6.1154,6.1105,6.1105,6.1105,6.1183,6.1288,6.1358,6.1458,6.1564,6.1671,6.1716,6.1719,6.1719,6.1719,6.1642,6.1568,6.1568,6.1491,6.1418,6.14,6.1405,6.1405,6.1364,6.1319,6.1319,6.1436,6.1043,4.0762,4.0796,4.0788,4.0788,4.1182,4.1589,4.1642,4.2378,4.3073,4.3107,4.383,4.4465,4.4465,4.5596,4.6494,4.6494,4.7509,4.829,4.829,4.9032,4.9695,5.0046,5.0672,5.1063,5.1063,5.1414,5.196,5.2858,5.3249,5.3639,5.399,5.4498,5.4743,5.4681,5.5156,5.5584,5.5886,5.5872,5.6276,5.7097,5.7097,5.7327,5.7731,5.7731,5.7744,5.7768,5.7768,5.7768,5.7768,5.7768,5.7768,5.7806,5.8156,5.8311,5.8234,5.7884,5.7768,5.7768,5.7768,5.7768,5.7806,5.8195,5.8311,5.835,5.87,5.8813,5.8813,5.8813,5.9166,5.9555,5.9555,5.994,6.0328,6.0328,6.06,6.0872,6.0872,6.1144,6.1426,6.1431,6.148,6.1453,6.1451,6.1479,6.1487,6.1462,6.1459,6.1459,6.1459,6.1459,6.1481,6.1536,6.156,6.1593,6.1676,6.1719,6.1719,6.1719,6.1719,6.1719,6.1719,6.1719,6.1719,6.1719,6.1695,6.1701,6.1701,6.1671,6.1674,6.1674,6.1674,6.1479,4.0898,4.106,4.1256,4.1256,4.1883,4.2564,4.265,4.3362,4.3997,4.403,4.4738,4.544,4.5674,4.6767,4.7665,4.7899,4.8602,4.915,4.915,4.989,5.0554,5.0788,5.1921,5.2898,5.3367,5.3211,5.3406,5.4303,5.4342,5.4464,5.4669,5.5295,5.5697,5.5896,5.6477,5.6891,5.709,5.7072,5.7344,5.7936,5.7936,5.8243,5.8813,5.8813,5.8813,5.8813,5.8813,5.8813,5.8813,5.8813,5.8813,5.8813,5.905,5.9166,5.9205,5.9435,5.9202,5.8813,5.8813,5.8813,5.8852,5.9088,5.9166,5.9205,5.9435,5.9512,5.9512,5.9512,5.9982,6.0448,6.0448,6.0911,6.1416,6.1416,6.1391,6.1447,6.1447,6.1421,6.145,6.1498,6.1507,6.1481,6.1483,6.1502,6.1511,6.1511,6.1521,6.1558,6.1493,6.1502,6.1562,6.1593,6.1605,6.1658,6.1716,6.1719,6.1719,6.1719,6.1719,6.1719,6.1719,6.1719,6.1719,6.1719,6.1719,6.1719,6.1719,6.1719,6.1719,6.1719,6.1719,6.1719,4.1056,4.1691,4.2353,4.2353,4.3017,4.3643,4.3644,4.4346,4.497,4.4972,4.5636,4.6534,4.7353,4.7548,4.786,4.8642,4.95,5.0046,5.0046,5.0827,5.1687,5.2508,5.2664,5.3367,5.5045,5.4459,5.4303,5.5202,5.5241,5.5608,5.6367,5.6445,5.6833,5.7583,5.7601,5.7985,5.8838,5.8773,5.8746,5.8742,5.8742,5.8781,5.8813,5.8813,5.8813,5.8813,5.8813,5.8813,5.8813,5.8813,5.8813,5.8891,5.971,6.006,6.0176,6.1027,6.025,5.8813,5.8813,5.8813,5.8933,5.9788,6.006,6.0215,6.1066,6.1338,6.1338,6.1338,6.1338,6.1377,6.1377,6.1377,6.1416,6.1416,6.1431,6.1517,6.1517,6.1487,6.1486,6.1488,6.1488,6.1488,6.149,6.1569,6.1595,6.1595,6.166,6.1657,6.1502,6.1571,6.1595,6.1597,6.1663,6.1718,6.1719,6.1719,6.1719,6.1719,6.1719,6.1719,6.1719,6.1719,6.1719,6.1719,6.1719,6.1719,6.1719,6.1719,6.1719,6.1719,6.1719,6.1719,4.2511,4.263,4.2551,4.3138,4.3918,4.4543,4.4543,4.5246,4.587,4.587,4.6573,4.7236,4.7548,4.8523,4.9343,4.9617,5.0398,5.0944,5.0944,5.1726,5.2352,5.2664,5.3718,5.4655,5.5241,5.5045,5.5201,5.6098,5.6121,5.6483,5.7305,5.7336,5.7659,5.8453,5.8462,5.8569,5.8845,5.8798,5.9088,5.9671,6.025,6.0522,6.0522,6.0522,6.0522,6.0522,6.0522,6.0522,6.0522,6.0522,6.0522,6.0561,6.0833,6.095,6.0989,6.1299,6.1027,6.0522,6.0522,6.0522,6.0561,6.0872,6.095,6.1027,6.1299,6.1416,6.1416,6.1416,6.1416,6.1416,6.1416,6.1411,6.1486,6.1486,6.1498,6.1502,6.1502,6.1517,6.15,6.1571,6.1576,6.1584,6.1646,6.166,6.1667,6.1667,6.1674,6.1674,6.1652,6.166,6.1667,6.1667,6.1675,6.1719,6.1719,6.1719,6.1719,6.1719,6.1719,6.1719,6.1719,6.1719,6.1719,6.1719,6.1719,6.1719,6.1719,6.1719,6.1719,6.1719,6.1719,6.1719,4.3021,4.3294,4.3449,4.4036,4.4816,4.544,4.544,4.6144,4.6768,4.6768,4.7431,4.8134,4.8446,4.9382,5.0202,5.0515,5.1297,5.1843,5.1843,5.2625,5.3289,5.3601,5.4616,5.5436,5.5747,5.6035,5.6432,5.6978,5.699,5.7303,5.8144,5.8154,5.849,5.929,5.9324,5.9443,5.9745,5.9745,6.0017,6.0565,6.1144,6.1416,6.1416,6.1416,6.1416,6.1416,6.1416,6.1416,6.1416,6.1416,6.1416,6.1416,6.1416,6.1416,6.1416,6.1416,6.1416,6.1416,6.1416,6.1416,6.1416,6.1416,6.1416,6.1416,6.1416,6.1416,6.1381,6.1447,6.1454,6.1421,6.1447,6.1484,6.1515,6.1515,6.152,6.1556,6.1556,6.1567,6.1586,6.1649,6.1652,6.166,6.1676,6.1719,6.1719,6.1719,6.1719,6.1719,6.1719,6.1719,6.1719,6.1719,6.1719,6.1719,6.1719,6.1719,6.1719,6.1719,6.1719,6.1719,6.1719,6.1719,6.1719,6.1719,6.1719,6.1719,6.1719,6.1719,6.1719,6.1719,6.1719,6.1719,4.2786,4.3761,4.5011,4.505,4.5675,4.6301,4.6379,4.7002,4.7626,4.7665,4.829,4.9111,4.9967,5.0124,5.0437,5.1258,5.2118,5.2703,5.2703,5.3483,5.4381,5.5202,5.5358,5.567,5.6491,5.7339,5.7812,5.7851,5.7851,5.8185,5.8923,5.8946,5.9327,6.0144,6.0176,6.0565,6.1377,6.1416,6.1416,6.1416,6.1416,6.1416,6.1416,6.1416,6.1416,6.1416,6.1416,6.1416,6.1416,6.1416,6.1416,6.1416,6.1416,6.1416,6.1416,6.1416,6.1416,6.1416,6.1416,6.1416,6.1416,6.1416,6.1416,6.1416,6.1416,6.1416,6.1437,6.1466,6.1484,6.1501,6.1517,6.1493,6.1495,6.1495,6.1569,6.1598,6.1598,6.1661,6.1719,6.1719,6.1719,6.1719,6.1719,6.1719,6.1719,6.1719,6.1719,6.1719,6.1719,6.1719,6.1719,6.1719,6.1719,6.1719,6.1719,6.1719,6.1719,6.1719,6.1719,6.1719,6.1719,6.1719,6.1719,6.1719,6.1719,6.1719,6.1719,6.1719,6.1719,6.1719,6.1719,6.1719,4.5012,4.5168,4.5167,4.5792,4.6144,4.6456,4.7119,4.7431,4.7782,4.8369,4.9188,4.9851,5.0046,5.0632,5.114,5.1375,5.2118,5.2703,5.2703,5.3991,5.5045,5.528,5.5864,5.6344,5.652,5.7304,5.8039,5.8595,5.8625,5.8999,5.981,5.981,6.0174,6.1027,6.1066,6.1183,6.1416,6.1416,6.1416,6.1416,6.1416,6.1416,6.1416,6.1416,6.1416,6.1416,6.1416,6.1416,6.1416,6.1416,6.1416,6.1416,6.1416,6.1416,6.1416,6.1416,6.1416,6.1416,6.1416,6.1416,6.1416,6.1416,6.1416,6.1416,6.1416,6.1415,6.146,6.1517,6.1515,6.1512,6.1488,6.1556,6.158,6.158,6.1648,6.167,6.167,6.1675,6.1719,6.1719,6.1719,6.1719,6.1719,6.1719,6.1719,6.1719,6.1719,6.1719,6.1719,6.1719,6.1719,6.1719,6.1719,6.1719,6.1719,6.1719,6.1719,6.1719,6.1719,6.1719,6.1719,6.1719,6.1719,6.1719,6.1719,6.1719,6.1719,6.1719,6.1719,6.1719,6.1719,6.1719,4.5558,4.5636,4.5675,4.6184,4.6573,4.7002,4.7509,4.8172,4.8836,4.9266,5.0047,5.0671,5.0671,5.1062,5.1531,5.1921,5.2703,5.3406,5.3796,5.5006,5.5871,5.5848,5.6278,5.6677,5.6987,5.7793,5.8616,5.9427,5.9457,5.9828,6.0672,6.0683,6.0872,6.1377,6.1416,6.1416,6.1416,6.1416,6.1416,6.1416,6.1416,6.1416,6.1416,6.1416,6.1416,6.1416,6.1416,6.1416,6.1416,6.1416,6.1416,6.1416,6.1416,6.1416,6.1416,6.1416,6.1416,6.1416,6.1416,6.1437,6.1457,6.1426,6.1437,6.1425,6.1425,6.1472,6.1528,6.1551,6.1541,6.1564,6.1582,6.1604,6.1657,6.1657,6.1668,6.1719,6.1719,6.1719,6.1719,6.1719,6.1719,6.1719,6.1719,6.1719,6.1719,6.1719,6.1719,6.1719,6.1719,6.1719,6.1719,6.1719,6.1719,6.1719,6.1719,6.1719,6.1719,6.1719,6.1719,6.1719,6.1719,6.1719,6.1719,6.1719,6.1719,6.1719,6.1719,6.1719,6.1719,6.1719,6.1719,6.1719,4.5362,4.5714,4.6301,4.6301,4.6963,4.7626,4.7743,4.8953,5.0124,5.0241,5.0866,5.1414,5.1414,5.1414,5.1687,5.2547,5.3444,5.4303,5.5163,5.6026,5.6587,5.6523,5.6484,5.6791,5.7613,5.8412,5.9258,6.0103,6.0295,6.0642,6.1345,6.1416,6.1416,6.1416,6.1416,6.1416,6.1416,6.1416,6.1416,6.1416,6.1416,6.1416,6.1416,6.1416,6.1416,6.1416,6.1416,6.1416,6.1416,6.1416,6.1416,6.1416,6.1416,6.1416,6.1416,6.1416,6.1416,6.1416,6.1416,6.1425,6.1472,6.1411,6.1441,6.1495,6.1495,6.1497,6.1547,6.1586,6.16,6.1649,6.1674,6.1719,6.1719,6.1719,6.1719,6.1719,6.1719,6.1719,6.1719,6.1719,6.1719,6.1719,6.1719,6.1719,6.1719,6.1719,6.1719,6.1719,6.1719,6.1719,6.1719,6.1719,6.1719,6.1719,6.1719,6.1719,6.1719,6.1719,6.1719,6.1719,6.1719,6.1719,6.1719,6.1719,6.1719,6.1719,6.1719,6.1719,6.1719,6.1719,6.1719,6.1719,4.6105,4.6184,4.6301,4.6301,4.6963,4.7782,4.8447,4.9383,0.0,5.1022,5.1297,5.1414,5.1414,5.1414,5.1687,5.2547,5.3444,5.4303,5.5163,5.6006,5.6523,5.6484,5.6437,5.6715,5.7543,5.8416,5.9228,6.0067,6.0793,6.1246,6.1377,6.1416,6.1416,6.1416,6.1416,6.1416,6.1416,6.1416,6.1416,6.1416,6.1416,6.1416,6.1416,6.1416,6.1416,6.1416,6.1416,6.1416,6.1416,6.1416,6.1416,6.1416,6.1416,6.1416,6.1416,6.1416,6.1416,6.1416,6.1416,6.1425,6.152,6.1508,6.1509,6.1515,6.1515,6.1552,6.1588,6.1595,6.1655,6.1674,6.1718,6.1719,6.1719,6.1719,6.1719,6.1719,6.1719,6.1719,6.1719,6.1719,6.1719,6.1719,6.1719,6.1719,6.1719,6.1719,6.1719,6.1719,6.1719,6.1719,6.1719,6.1719,6.1719,6.1719,6.1719,6.1719,6.1719,6.1719,6.1719,6.1719,6.1719,6.1719,6.1719,6.1719,6.1719,6.1719,6.1719,6.1719,6.1719,6.1719,6.1719,6.1719,4.6301,4.6301,4.6418,4.6846,4.7626,4.8446,4.9305,0.0,0.0,5.1297,5.1414,5.1414,5.1414,5.1765,5.2352,5.3249,5.4108,5.4966,5.5864,5.631,5.6521,5.6478,5.6812,5.7388,5.8145,5.9024,5.9856,6.0724,6.1144,6.1416,6.1416,6.1416,6.1416,6.1416,6.1416,6.1416,6.1416,6.1416,6.1416,6.1416,6.1416,6.1416,6.1416,6.1416,6.1416,6.1416,6.1416,6.1416,6.1416,6.1416,6.1437,6.1434,6.1434,6.1457,6.1448,6.1448,6.1448,6.1448,6.1448,6.1487,6.1532,6.1532,6.155,6.1567,6.1567,6.1595,6.166,6.166,6.167,6.1719,6.1719,6.1719,6.1719,6.1719,6.1719,6.1719,6.1719,6.1719,6.1719,6.1719,6.1719,6.1719,6.1719,6.1719,6.1719,6.1719,6.1719,6.1719,6.1719,6.1719,6.1719,6.1719,6.1719,6.1719,6.1719,6.1719,6.1719,6.1719,6.1719,6.1719,6.1719,6.1719,6.1719,6.1719,6.1719,6.1719,6.1719,6.1719,6.1719,6.1719,6.1719,6.1719,4.6301,4.6456,4.6729,4.7431,4.8368,4.9266,4.9928,5.0788,5.1414,5.1414,5.1414,5.1414,5.1414,5.2118,5.2976,5.3873,5.4732,5.5592,5.6488,5.6574,5.6597,5.6653,5.7258,5.8059,5.8995,5.971,6.0448,6.1338,6.1416,6.1416,6.1416,6.1416,6.1416,6.1416,6.1416,6.1416,6.1416,6.1416,6.1416,6.1416,6.1416,6.1416,6.1416,6.1416,6.1416,6.1416,6.1416,6.1423,6.144,6.144,6.1444,6.1501,6.1501,6.1492,6.149,6.149,6.149,6.149,6.149,6.1521,6.1597,6.1597,6.1602,6.1607,6.1607,6.1663,6.1719,6.1719,6.1719,6.1719,6.1719,6.1719,6.1719,6.1719,6.1719,6.1719,6.1719,6.1719,6.1719,6.1719,6.1719,6.1719,6.1719,6.1719,6.1719,6.1719,6.1719,6.1719,6.1719,6.1719,6.1719,6.1719,6.1719,6.1719,6.1719,6.1719,6.1719,6.1719,6.1719,6.1719,6.1719,6.1719,6.1719,6.1719,6.1719,6.1719,6.1719,6.1719,6.1797,6.1992,6.1992,6.207,4.6301,4.6885,4.7509,4.7587,4.8796,5.0007,5.0085,0.0,5.1414,5.1414,5.1414,5.1414,5.1414,5.2118,5.2976,0.0,0.0,5.5592,5.6488,5.6554,5.6796,5.7507,5.7608,5.8221,5.9843,6.006,6.0448,6.1338,6.1416,6.1416,6.1416,6.1416,6.1416,6.1416,6.1416,6.1416,6.1416,6.1416,6.1416,6.1416,6.1416,6.1416,6.1416,6.1416,6.1416,6.1416,6.1416,6.1415,6.1472,6.1472,6.147,6.1483,6.1483,6.1486,6.149,6.149,6.149,6.149,6.149,6.1521,6.1597,6.1597,6.1655,6.1676,6.1676,6.1716,6.1719,6.1719,6.1719,6.1719,6.1719,6.1719,6.1719,6.1719,6.1719,6.1719,6.1719,6.1719,6.1719,6.1719,6.1719,6.1719,6.1719,6.1719,6.1719,6.1719,6.1719,6.1719,6.1719,6.1719,6.1719,6.1719,6.1719,6.1719,6.1719,6.1719,6.1719,6.1719,6.1719,6.1719,6.1719,6.1719,6.1719,6.1719,6.1719,6.1719,6.1719,6.1719,6.2109,6.2891,6.2891,6.3282,4.6301,4.6924,4.7704,4.8212,4.9227,5.0241,5.0749,0.0,5.1414,5.1414,5.1414,5.157,5.2078,5.2897,5.3756,0.0,0.0,0.0,5.6479,5.6912,5.7316,5.7609,5.8546,5.9418,6.0034,6.0565,6.1027,6.1377,6.1416,6.1416,6.1416,6.1416,6.1416,6.1416,6.1416,6.1416,6.1416,6.1416,6.1416,6.1416,6.1416,6.1416,6.1416,6.1421,6.1441,6.1444,6.1445,6.1476,6.1497,6.1497,6.1529,6.1573,6.1573,6.1586,6.1605,6.1605,6.1605,6.1605,6.1605,6.1652,6.1664,6.1664,6.1671,6.1719,6.1719,6.1719,6.1719,6.1719,6.1719,6.1719,6.1719,6.1719,6.1719,6.1719,6.1719,6.1719,6.1719,6.1719,6.1719,6.1719,6.1719,6.1719,6.1719,6.1719,6.1719,6.1719,6.1719,6.1719,6.1719,6.1719,6.1719,6.1719,6.1719,6.1719,6.1719,6.1719,6.1719,6.1719,6.1719,6.1719,6.1719,6.2187,6.2461,6.2461,6.3008,6.3243,6.3243,6.3243,6.3438,6.379,6.379,6.3985,4.6301,4.712,4.8095,4.8642,4.9656,5.0632,0.0,0.0,5.1414,5.1414,5.1414,5.1687,5.2547,5.3405,5.4303,0.0,0.0,5.6484,5.6484,5.7174,5.7753,5.7951,5.9301,6.0274,6.0462,6.1027,6.1416,6.1416,6.1416,6.1416,6.1416,6.1416,6.1416,6.1416,6.1416,6.1416,6.1416,6.1416,6.1426,6.1447,6.1447,6.1421,6.1441,6.149,6.1509,6.1512,6.1512,6.15,6.1513,6.1513,6.1576,6.1612,6.1612,6.1663,6.1719,6.1719,6.1719,6.1719,6.1719,6.1719,6.1719,6.1719,6.1719,6.1719,6.1719,6.1719,6.1719,6.1719,6.1719,6.1719,6.1719,6.1719,6.1719,6.1719,6.1719,6.1719,6.1719,6.1719,6.1719,6.1719,6.1719,6.1719,6.1719,6.1719,6.1797,6.2031,6.207,6.2187,6.2422,6.2461,6.2461,6.2461,6.2461,6.2343,6.2109,6.207,6.2187,6.2461,6.2461,6.2461,6.2461,6.3047,6.3399,6.3399,6.3985,6.4298,6.4298,6.4298,6.4415,6.4688,6.4688,6.4805,4.6301,4.751,4.8798,4.8798,5.0087,5.1375,5.1414,5.1414,5.1414,5.1414,5.1414,5.1687,5.2547,5.3405,5.4303,5.5163,0.0,0.0,5.6484,5.7174,5.7987,5.8806,5.9652,6.0505,6.1313,6.1377,6.1416,6.1416,6.1416,6.1416,6.1416,6.1416,6.1416,6.1416,6.1416,6.1416,6.1416,6.1416,6.1415,6.1481,6.1481,6.1512,6.1488,6.149,6.149,6.149,6.149,6.1556,6.1597,6.1597,6.1654,6.1718,6.1718,6.1718,6.1719,6.1719,6.1719,6.1719,6.1719,6.1719,6.1719,6.1719,6.1719,6.1719,6.1719,6.1719,6.1719,6.1719,6.1719,6.1719,6.1719,6.1719,6.1719,6.1719,6.1719,6.1719,6.1719,6.1719,6.1719,6.1719,6.1719,6.1719,6.1719,6.1719,6.1992,6.2852,6.3008,6.3282,6.4142,6.4259,6.4259,6.4259,6.4259,6.3907,6.3047,6.3008,6.336,6.422,6.4259,6.4259,6.4259,6.4298,6.4298,6.4298,6.4298,6.4298,6.4298,6.4298,6.4727,6.5585,6.5585,6.6014,4.6301,4.751,4.8798,4.8798,5.0126,5.1414,5.1414,5.1414,5.1414,5.1414,5.1882,5.2547,5.3444,5.4303,5.5171,5.5972,5.6287,0.0,5.7165,5.7947,5.8765,5.9622,6.0472,6.1114,6.1381,6.1416,6.1437,6.1447,6.145,6.1472,6.1476,6.1476,6.1456,6.1453,6.145,6.1472,6.1476,6.1476,6.1487,6.1505,6.1505,6.1512,6.1493,6.1564,6.1576,6.1578,6.1604,6.1658,6.1667,6.1667,6.1672,6.1719,6.1719,6.1719,6.1719,6.1719,6.1719,6.1719,6.1719,6.1719,6.1719,6.1719,6.1719,6.1719,6.1719,6.1719,6.1719,6.1719,6.1719,6.1719,6.1719,6.1719,6.1719,6.1719,6.1719,6.1719,6.1719,6.2187,6.2579,6.2579,6.3086,6.3477,6.3477,6.3477,6.3556,6.3868,6.3907,6.3985,6.4259,6.4298,6.4298,6.4298,6.4298,6.4181,6.3907,6.3907,6.4025,6.4298,6.4298,6.4298,6.4298,6.4883,6.5194,6.5194,6.5742,6.6016,6.6016,6.6016,6.6133,6.6406,6.6406,6.6562,4.6688,4.778,4.887,4.9226,5.0357,5.1409,5.1413,5.1414,5.1414,5.1414,5.2078,5.2975,5.3828,5.4687,5.5522,5.6366,5.6438,5.6674,5.751,5.8348,5.9293,6.0487,6.111,6.1457,6.1457,6.1457,6.1475,6.1515,6.1518,6.1495,6.1488,6.149,6.1525,6.1549,6.1528,6.1495,6.149,6.149,6.15,6.1556,6.1556,6.1564,6.158,6.1605,6.1654,6.1655,6.1672,6.1719,0.0,6.1719,6.1719,6.1719,6.1719,6.1719,6.1719,6.1719,6.1719,6.1719,6.1719,6.1719,6.1719,6.1719,6.1719,6.1758,6.2109,6.1953,6.1719,6.1719,6.1719,6.1797,6.2109,6.2187,6.2265,6.2618,6.2696,6.2696,6.2696,6.3125,6.3477,6.3477,6.3946,6.4298,6.4298,6.4298,6.4415,6.4727,6.4805,6.4883,6.5196,6.5235,6.5235,6.5235,6.5235,6.5235,6.5235,6.4961,6.4922,6.5235,6.5235,6.5235,6.5235,6.5742,6.6053,6.6053,6.6523,6.6796,6.6796,6.6796,6.6796,6.6796,6.6796,6.6796,0.0,4.824,4.9015,4.9885,5.0741,5.14,5.141,5.1412,0.0,5.1491,5.2195,5.305,5.3934,5.4752,5.5551,5.6363,5.6482,5.6809,5.766,5.852,5.9685,6.1291,6.149,6.149,6.149,6.149,6.1493,6.1495,6.1495,6.1497,6.15,6.15,6.1521,6.1598,6.1562,6.15,6.15,6.15,6.1562,6.16,6.16,6.1655,6.1719,6.1719,6.1719,6.1719,6.1719,6.1719,6.1719,6.1719,6.1719,6.1719,6.1719,6.1719,6.1719,6.1719,6.1719,6.1719,6.1719,6.1758,6.1797,6.1875,6.1875,6.2031,6.2852,6.2461,6.1797,6.1875,6.1875,6.207,6.2891,6.3086,6.3282,6.4103,6.4298,6.4298,6.4298,6.4337,6.4376,6.4376,6.4454,6.4493,6.4493,6.4493,6.4766,6.5546,6.5702,6.5975,6.6718,6.6796,6.6796,6.6796,6.6796,6.6796,6.6796,6.6131,6.6014,6.6757,6.6796,6.6796,6.6796,6.6796,6.6796,6.6796,6.6796,6.6796,6.6796,6.6796,6.6796,6.6796,6.6796,6.6796,4.8102,0.0,4.9002,4.9874,5.0766,5.1382,0.0,5.1394,5.1597,5.226,5.3086,5.3948,5.4755,5.5611,5.6258,5.6484,5.6992,5.7693,5.8572,5.9968,6.105,6.1449,6.149,6.149,6.149,6.149,6.1506,6.158,6.1582,6.1595,6.1658,6.166,6.1663,6.1671,6.1664,6.166,6.166,6.166,6.1664,6.1671,6.1671,6.1674,6.1719,6.1719,6.1719,6.1719,6.1719,6.1719,6.1719,6.1719,6.1719,6.1719,6.1719,6.1719,6.1719,6.1719,6.1719,6.1719,6.1719,6.2148,6.2813,6.3477,6.3673,6.3712,6.3946,6.3399,6.2813,6.3517,6.3673,6.3751,6.3946,6.3985,6.4064,6.4259,6.4298,6.4298,6.4298,6.4805,6.5273,6.5273,6.5781,6.6211,6.6211,6.6211,6.6289,6.6484,6.6523,6.6601,6.6796,6.6796,6.6796,6.6796,6.6796,6.6796,6.6796,6.664,6.6601,6.6796,6.6796,6.6796,6.6796,6.6796,6.6796,6.6796,6.6796,6.6796,6.6796,6.6796,6.6796,6.6796,6.6796,6.6796,4.8433,4.8788,4.9103,5.0367,5.1025,5.1366,5.1373,5.1693,5.209,5.2556,5.3656,5.4672,5.5124,5.5901,5.6472,5.6441,5.7146,5.8123,5.9404,6.0761,6.159,6.159,6.159,6.159,6.159,6.159,6.1598,6.1657,6.1658,6.1664,6.1718,6.1719,6.1719,6.1719,6.1719,6.1719,6.1719,6.1719,6.1719,6.1719,6.1719,6.1719,6.1719,6.1719,6.1719,6.1719,6.1719,6.1719,6.1719,6.1719,6.1719,6.1719,6.1719,6.1719,6.1758,6.2148,6.2304,6.2343,6.2735,6.3204,6.3673,6.4142,6.4298,6.4376,6.4766,6.457,6.4219,6.4298,6.4298,6.4376,6.4805,6.4883,6.5001,6.5352,6.5469,6.5469,6.5469,6.582,6.6131,6.6131,6.6484,6.6796,6.6796,6.6796,6.6796,6.6796,6.6796,6.6796,6.6796,6.6796,6.6796,6.6796,6.6796,6.6796,6.6796,6.6796,6.6796,6.6796,6.6796,6.6796,6.6796,6.6796,6.6796,6.6796,6.6796,6.6796,6.6796,6.6796,6.6796,6.6796,6.6796,6.6796,4.8573,4.8888,4.9361,5.0977,5.1359,5.1351,5.1559,5.211,5.2695,5.2929,5.418,5.523,5.5367,5.5987,5.6517,5.661,5.7457,5.8668,6.0301,6.1203,6.1719,6.1719,6.1719,6.1719,6.1719,6.1719,6.1719,6.1719,6.1719,6.1719,6.1719,6.1719,6.1719,6.1719,6.1719,6.1719,6.1719,6.1719,6.1719,6.1719,6.1719,6.1719,6.1719,6.1719,6.1719,6.1719,6.1719,6.1797,6.1914,6.1914,6.1992,6.2109,6.2109,6.2109,6.2187,6.293,6.3204,6.3321,6.4181,6.4493,6.4532,6.4649,6.4688,6.4805,6.5546,6.578,6.5624,6.4883,6.4688,6.4844,6.5585,6.578,6.5975,6.664,6.6796,6.6796,6.6796,6.6796,6.6796,6.6796,6.6796,6.6796,6.6796,6.6796,6.6796,6.6796,6.6796,6.6796,6.6796,6.6796,6.6796,6.6796,6.6796,6.6796,6.6796,6.6796,6.6796,6.6796,6.6796,6.6796,6.6796,6.6796,6.6796,6.6796,6.6796,6.6796,6.6796,6.6796,6.6796,6.6796,6.6796,6.6796,4.8557,4.9297,5.0043,5.1078,5.1301,5.1482,5.2263,5.2512,5.3029,5.4511,5.4991,5.5425,5.6147,5.6416,5.6743,5.7483,5.8939,6.0349,6.1322,6.1618,6.1719,6.1719,6.1719,6.1719,6.1719,6.1719,6.1719,6.1719,6.1719,6.1719,6.1719,6.1719,6.1719,6.1719,6.1719,6.1719,6.1719,6.1719,6.1719,6.1719,6.1719,6.1719,6.1719,6.1719,6.1719,6.1719,6.1719,6.2109,6.2813,6.2813,6.3243,6.3907,6.3907,6.3907,6.3907,6.4064,6.4103,6.422,6.5116,6.539,6.5507,6.6172,6.6406,6.6445,6.6562,6.6601,6.6601,6.6445,6.6406,6.6445,6.6562,6.6601,6.664,6.6757,6.6796,6.6796,6.6796,6.6796,6.6796,6.6796,6.6796,6.6796,6.6796,6.6796,6.6796,6.6796,6.6796,6.6796,6.6796,6.6796,6.6796,6.6796,6.6796,6.6796,6.6796,6.6796,6.6796,6.6796,6.6796,6.6796,6.6796,6.6796,6.6796,6.6796,6.6796,6.6796,6.6796,6.6796,6.6796,6.6796,6.6796,6.6796,4.867,4.9722,5.0815,5.1214,5.1289,5.1513,5.2409,5.2962,5.3672,5.4956,5.5551,5.6024,5.6443,5.6868,5.7599,5.8991,5.9881,6.0698,6.1587,6.169,6.1719,6.1719,6.1719,6.1719,6.1719,6.1719,6.1719,6.1719,6.1719,6.1719,6.1719,6.1719,6.1719,6.1719,6.1719,6.1719,6.1719,6.1719,6.1719,6.1719,6.1719,6.1719,6.1719,6.1719,6.1953,6.2383,6.2383,6.2891,6.3712,6.3712,6.3946,6.4298,6.4298,6.4298,6.4376,6.4844,6.5274,6.5703,6.6094,6.6249,6.6327,6.6679,6.6796,6.6796,6.6796,6.6796,6.6796,6.6796,6.6796,6.6796,6.6796,6.6796,6.6796,6.6796,6.6796,6.6796,6.6796,6.6796,6.6796,6.6796,6.6796,6.6796,6.6796,6.6796,6.6796,6.6796,6.6796,6.6796,6.6796,6.6796,6.6796,6.6796,6.6796,6.6796,6.6796,6.6796,6.6796,6.6796,6.6796,6.6796,6.6796,6.6796,6.6796,6.6796,6.6796,6.6796,6.6796,6.6796,6.6796,6.6796,6.6796,6.6796,4.9021,5.0151,5.1359,5.1552,5.1591,5.1824,5.2721,5.3578,5.4435,5.5331,5.6037,5.6546,5.6741,5.7611,5.8786,6.0182,6.0586,6.093,6.1606,6.1719,6.1719,6.1719,6.1719,6.1719,6.1719,6.1719,6.1719,6.1719,6.1719,6.1719,6.1719,6.1719,6.1719,6.1719,6.1719,6.1719,6.1719,6.1719,6.1719,6.1719,6.1719,6.1797,6.1992,6.1992,6.2461,6.3282,6.3282,6.379,6.461,6.461,6.4727,6.4883,6.4883,6.4883,6.4961,6.5624,6.6288,6.6796,6.6796,6.6796,6.6796,6.6796,6.6796,6.6796,6.6796,6.6796,6.6796,6.6796,6.6796,6.6796,6.6796,6.6796,6.6796,6.6796,6.6796,6.6796,6.6796,6.6796,6.6796,6.6796,6.6796,6.6796,6.6796,6.6796,6.6796,6.6796,6.6796,6.6796,6.6796,6.6796,6.6796,6.6796,6.6796,6.6796,6.6796,6.6796,6.6874,6.7109,6.6913,6.6796,6.6796,6.6796,6.6796,6.6796,6.6796,6.6796,6.6796,6.6796,6.6796,6.6796,6.6992,6.7109,4.9722,5.0579,5.1474,5.2292,5.2526,5.2721,5.3617,5.4474,5.5331,5.6232,5.6468,5.6741,5.7479,5.8971,6.0189,6.0379,6.1093,6.1634,6.1684,6.1719,6.1719,6.1719,6.1719,6.1719,6.1719,6.1719,6.1719,6.1719,6.1719,6.1719,6.1719,6.1719,6.1719,6.1719,6.1719,6.1719,6.1719,6.1719,6.1719,6.1719,6.1719,6.2109,6.2891,6.2891,6.3399,6.422,6.422,6.4688,6.5507,6.5507,6.5936,6.6601,6.6601,6.6601,6.664,6.6679,6.6757,6.6796,6.6796,6.6796,6.6796,6.6796,6.6796,6.6796,6.6796,6.6796,6.6796,6.6796,6.6796,6.6796,6.6796,6.6796,6.6796,6.6796,6.6796,6.6796,6.6796,6.6796,6.6796,6.6796,6.6796,6.6796,6.6796,6.6796,6.6796,6.6796,6.6796,6.6796,6.6796,6.6796,6.6796,6.6796,6.6796,6.6796,6.6796,6.6796,6.7146,6.7966,6.7264,6.6796,6.6796,6.6796,6.6796,6.6796,6.6796,6.6796,6.6796,6.6796,6.6796,6.6835,6.7615,6.8005,4.9917,5.0657,5.1515,5.237,5.2993,5.3656,5.4513,5.4942,5.5448,5.631,5.6507,5.6894,5.8258,5.9508,6.0528,6.1044,6.1444,6.1695,6.1681,6.1719,6.1719,6.1719,6.1719,6.1719,6.1719,6.1719,6.1719,6.1719,6.1719,6.1719,6.1719,6.1719,6.1719,6.1719,6.1719,6.1719,6.1719,6.1719,6.1953,6.25,6.25,6.2696,6.3008,6.3556,6.4298,6.5116,6.5116,6.5585,6.6366,6.6366,6.6523,6.6796,6.6796,6.6796,6.6796,6.6796,6.6796,6.6796,6.6796,6.6796,6.6796,6.6796,6.6796,6.6796,6.6796,6.6796,6.6796,6.6796,6.6796,6.6796,6.6796,6.6796,6.6796,6.6796,6.6796,6.6796,6.6796,6.6796,6.6796,6.6796,6.6796,6.6796,6.6796,6.6796,6.6796,6.6796,6.6796,6.6796,6.6796,6.6796,6.6796,6.6796,6.7264,6.7849,6.8358,6.8436,6.8553,6.8903,6.8083,6.7849,6.8397,6.8436,6.8436,6.8436,6.8436,6.8436,6.8436,6.8436,6.8436,6.8436,6.8747,6.8903,5.0346,5.1047,5.1902,5.2799,5.3656,5.4552,5.5409,5.5606,5.5762,5.6388,5.6933,5.7719,5.9143,6.0155,6.0969,6.1559,6.1672,6.1719,6.1719,6.1719,6.1719,6.1719,6.1719,6.1719,6.1719,6.1719,6.1719,6.1719,6.1719,6.1719,6.1719,6.1719,6.1719,6.1719,6.1719,6.1719,6.1719,6.1953,6.2422,6.3008,6.3555,6.3828,6.3828,6.4454,6.5157,6.5975,6.5975,6.6288,6.6796,6.6796,6.6796,6.6796,6.6796,6.6796,6.6796,6.6796,6.6796,6.6796,6.6796,6.6796,6.6796,6.6796,6.6796,6.6796,6.6796,6.6796,6.6796,6.6796,6.6796,6.6796,6.6796,6.6796,6.6796,6.6796,6.6796,6.6796,6.6796,6.6796,6.6796,6.6796,6.6796,6.6796,6.6796,6.6796,6.6796,6.6796,6.6796,6.6913,6.7185,6.7224,6.7304,6.7577,6.8161,6.8747,6.9334,6.9412,6.9528,6.9801,6.9255,6.9059,6.9373,6.9412,6.9412,6.9412,6.9412,6.9412,6.9412,6.9412,6.9412,6.9412,6.9684,6.9801,5.1086,5.1941,5.2799,5.3695,5.4552,5.5448,5.631,5.6507,5.6507,5.6507,5.7832,5.9293,6.0132,6.1029,6.1636,6.1679,6.1702,6.1719,6.1719,6.1719,6.1719,6.1719,6.1719,6.1719,6.1719,6.1719,6.1719,6.1719,6.1719,6.1719,6.1719,6.1719,6.1719,6.1719,6.1719,6.1719,6.1719,6.2579,6.3008,6.3047,6.4765,6.5585,6.5585,6.5624,6.6053,6.6796,6.6796,6.6796,6.6796,6.6796,6.6796,6.6796,6.6796,6.6796,6.6796,6.6796,6.6796,6.6796,6.6796,6.6796,6.6796,6.6796,6.6796,6.6796,6.6796,6.6796,6.6796,6.6796,6.6796,6.6796,6.6796,6.6796,6.6796,6.6796,6.6796,6.6796,6.6796,6.6796,6.6796,6.6796,6.6796,6.6796,6.6796,6.6796,6.6796,6.6796,6.6835,6.7148,6.8005,6.8121,6.8435,6.9334,6.9412,6.9412,6.9412,6.9412,6.9801,7.0659,7.0698,7.0348,6.9451,6.9412,6.9412,6.9412,6.9412,6.9412,6.9412,6.9412,6.9412,6.9451,7.0309,7.0698,5.198,5.2409,5.2954,5.4435,5.502,5.5448,5.631,5.6933,5.7533,5.8123,5.9144,6.0016,6.0328,6.109,6.1679,6.1717,6.1702,6.1719,6.1719,6.1719,6.1719,6.1719,6.1719,6.1719,6.1719,6.1719,6.1719,6.1719,6.1719,6.1719,6.1719,6.1719,6.1719,6.1719,6.1719,6.1992,6.2618,6.2852,6.3633,6.4843,6.5351,6.5585,6.5624,6.617,6.6562,6.6796,6.6796,6.6796,6.6796,6.6796,6.6796,6.6796,6.6796,6.6796,6.6796,6.6796,6.6796,6.6796,6.6796,6.6796,6.6796,6.6796,6.6796,6.6796,6.6796,6.6796,6.6796,6.6796,6.6796,6.6796,6.6796,6.6796,6.6796,6.6796,6.6796,6.6796,6.6796,6.6796,6.6796,6.6796,6.6796,6.6796,6.6796,6.7303,6.7693,6.7693,6.8239,6.8709,6.8981,6.902,6.9333,7.023,7.0309,7.0543,7.1167,7.1245,7.1324,7.1597,7.1597,7.1519,7.1245,7.1245,7.1245,7.1245,7.1245,7.1245,7.1245,7.1245,7.1245,7.1245,7.148,7.1597,5.237,5.2838,5.3461,5.4864,5.5448,5.6043,5.7201,5.7617,5.7968,5.8805,5.9672,6.0431,6.0856,6.1367,6.1715,6.1709,6.1694,6.1719,6.1719,6.1719,6.1719,6.1719,6.1719,6.1719,6.1719,6.1719,6.1719,6.1719,6.1719,6.1719,6.1719,6.1719,6.1719,6.1719,6.2031,6.2461,6.3008,6.3672,6.457,6.5585,6.5936,6.6092,6.6092,6.6562,6.6796,6.6796,6.6796,6.6796,6.6796,6.6796,6.6796,6.6796,6.6796,6.6796,6.6796,6.6796,6.6796,6.6796,6.6796,6.6796,6.6796,6.6796,6.6796,6.6796,6.6796,6.6796,6.6796,6.6796,6.6796,6.6796,6.6796,6.6796,6.6796,6.6796,6.6796,6.6796,6.6796,6.6796,6.6796,6.6796,6.707,6.7303,6.7303,6.8044,6.863,6.863,6.9372,6.9918,6.9918,7.023,7.0621,7.1167,7.1206,7.1441,7.1948,7.1987,7.1987,7.1987,7.1987,7.1987,7.1987,7.1987,7.1987,7.1987,7.1987,7.1987,7.1987,7.1987,7.1987,7.1987,7.1987,7.1987,5.2448,5.3305,5.4123,5.5098,5.5963,5.7038,5.8532,5.8393,5.818,5.9051,5.9878,6.0679,6.1523,6.1715,6.171,6.1686,6.1719,6.1719,6.1719,6.1719,6.1719,6.1719,6.1719,6.1719,6.1719,6.1719,6.1719,6.1719,6.1719,6.1719,6.1719,6.1719,6.1719,6.1719,6.254,6.3047,6.3125,6.4765,6.5624,6.5702,6.6445,6.6796,6.6796,6.6796,6.6796,6.6796,6.6796,6.6796,6.6796,6.6796,6.6796,6.6796,6.6796,6.6796,6.6796,6.6796,6.6796,6.6796,6.6796,6.6796,6.6796,6.6796,6.6796,6.6796,6.6796,6.6796,6.6796,6.6796,6.6796,6.6796,6.6796,6.6874,6.6913,6.6913,6.6874,6.6835,6.6913,6.6913,6.6952,6.7031,6.7693,6.8239,6.8239,6.8942,6.9568,6.9607,7.0309,7.0815,7.0815,7.1519,7.1987,7.1987,7.1987,7.1987,7.1987,7.1987,7.1987,7.1987,7.1987,7.1987,7.1987,7.1987,7.1987,7.1987,7.1987,7.1987,7.1987,7.1987,7.1987,7.1987,7.1987,7.1987,5.3188,5.3773,5.4279,5.5842,5.6897,5.7594,5.7994,5.8988,6.0062,6.0936,6.1289,6.1445,6.1659,6.1692,6.1689,6.1681,6.1719,6.1719,6.1719,6.1719,6.1719,6.1719,6.1719,6.1719,6.1719,6.1719,6.1719,6.1719,6.1719,6.1719,6.1719,6.1719,6.1719,6.1719,6.254,6.3321,6.4025,6.5077,6.5936,6.6523,6.6718,6.6796,6.6796,6.6796,6.6796,6.6796,6.6796,6.6796,6.6796,6.6796,6.6796,6.6796,6.6796,6.6796,6.6796,6.6796,6.6796,6.6796,6.6796,6.6796,6.6796,6.6796,6.6796,6.6796,6.6796,6.6796,6.6796,6.6796,6.6796,6.6796,6.6796,6.7303,6.781,6.781,6.7303,6.6992,6.7654,6.781,6.8005,6.8709,6.8983,6.9137,6.9137,6.984,7.066,7.1324,7.1597,7.1714,7.1714,7.187,7.1987,7.1987,7.1987,7.1987,7.1987,7.1987,7.1987,7.1987,7.1987,7.1987,7.1987,7.1987,7.1987,7.1987,7.1987,7.1987,7.1987,7.1987,7.1987,7.1987,7.1987,7.1987,5.3539,5.4201,5.4825,5.6154,5.7179,5.7924,5.8332,5.9446,6.0664,6.1513,6.1712,6.1713,6.1687,6.1719,6.1719,6.1719,6.1719,6.1719,6.1719,6.1719,6.1719,6.1719,6.1719,6.1719,6.1719,6.1719,6.1719,6.1719,6.1719,6.1719,6.1719,6.1719,6.1875,6.2304,6.3164,6.4025,6.4922,6.5741,6.6406,6.6796,6.6796,6.6796,6.6796,6.6796,6.6796,6.6796,6.6796,6.6796,6.6796,6.6796,6.6796,6.6796,6.6796,6.6796,6.6796,6.6796,6.6796,6.6796,6.6796,6.6796,6.6796,6.6796,6.6796,6.6796,6.6796,6.6796,6.6796,6.6796,6.7109,6.742,6.742,6.8083,6.8708,6.8708,6.8396,6.8163,6.863,6.8708,6.8864,6.9295,6.9723,7.0035,7.0035,7.0738,7.148,7.1948,7.1987,7.1987,7.1987,7.1987,7.1987,7.1987,7.1987,7.1987,7.1987,7.1987,7.1987,7.1987,7.1987,7.1987,7.1987,7.1987,7.1987,7.1987,7.1987,7.1987,7.1987,7.1987,7.1987,7.1987,7.1987,7.1987,5.3656,5.4669,5.5645,5.6505,5.7374,5.8241,5.9129,6.0,6.0814,6.153,6.1702,6.1709,6.1686,6.1719,6.1719,6.1719,6.1719,6.1719,6.1719,6.1719,6.1719,6.1719,6.1719,6.1719,6.1719,6.1719,6.1719,6.1719,6.1719,6.1719,6.1719,6.1719,6.2109,6.2969,6.3868,6.4727,6.5585,6.6406,6.6796,6.6796,6.6796,6.6796,6.6796,6.6796,6.6796,6.6796,6.6796,6.6796,6.6796,6.6796,6.6796,6.6796,6.6796,6.6796,6.6796,6.6796,6.6796,6.6796,6.6796,6.6796,6.6796,6.6796,6.6796,6.6796,6.6796,6.6913,6.7031,6.7031,6.7654,6.8318,6.8318,6.8981,6.9606,6.9606,6.9723,6.9802,6.9645,6.9606,6.9684,6.9802,7.0426,7.0932,7.0932,7.1519,7.1987,7.1987,7.1987,7.1987,7.1987,7.1987,7.1987,7.1987,7.1987,7.1987,7.1987,7.2143,7.2221,7.2221,7.2339,7.2417,7.2417,7.2417,7.2417,7.2417,7.23,7.23,7.2417,7.2417,7.2417,7.2417,7.2417,7.2417,5.3656,5.51,5.6505,5.7323,5.8191,5.9099,6.0027,6.0898,6.1557,6.1688,6.1683,6.1686,6.168,6.1719,6.1719,6.1719,6.1719,6.1719,6.1719,6.1719,6.1719,6.1719,6.1719,6.1719,6.1719,6.1719,6.1719,6.1719,6.1719,6.1719,6.1719,6.1719,6.2109,6.2969,6.3868,6.4727,6.5585,6.6406,6.6796,6.6796,6.6796,6.6796,6.6796,6.6796,6.6796,6.6796,6.6796,6.6796,6.6796,6.6796,6.6796,6.6796,6.6796,6.6796,6.6796,6.6796,6.6796,6.6796,6.6796,6.6796,6.6796,6.6796,6.6796,6.6796,6.6796,6.7342,6.7927,6.7927,6.8552,6.9215,6.9215,6.9879,7.0541,7.0541,7.1089,7.1441,7.0699,7.0541,7.0738,7.1519,7.1753,7.1831,7.1831,7.1909,7.1987,7.1987,7.1987,7.1987,7.1987,7.1987,7.1987,7.1987,7.1987,7.1987,7.1987,7.269,7.3118,7.3118,7.3783,7.4173,7.4173,7.4173,7.4173,7.4173,7.3469,7.3469,7.4173,7.4173,7.4173,7.4173,7.4173,7.4173,5.4983,5.592,5.6702,5.7518,5.8347,5.9255,6.0183,6.1054,6.1713,6.1688,6.1719,6.1719,6.1719,6.1719,6.1719,6.1719,6.1719,6.1719,6.1719,6.1719,6.1719,6.1719,6.1719,6.1719,6.1719,6.1719,6.1719,6.1719,6.1719,6.1719,6.1719,6.2148,6.2813,6.3712,6.4571,6.5429,6.6249,6.6601,6.6796,6.6796,6.6796,6.6796,6.6796,6.6796,6.6796,6.6796,6.6796,6.6796,6.6796,6.6796,6.6796,6.6796,6.6796,6.6796,6.6796,6.6796,6.6796,6.6796,6.6796,6.6796,6.6796,6.6796,6.7148,6.7537,6.7537,6.8122,6.8825,6.8825,6.945,7.0113,7.0113,7.0777,7.1441,7.1441,7.1714,7.1909,7.1519,7.1441,7.1558,7.1948,7.1987,7.1987,7.1987,7.1987,7.1987,7.1987,7.1987,7.1987,7.1987,7.1987,7.2182,7.269,7.2729,7.2924,7.3354,7.3744,7.3978,7.3978,7.429,7.4486,7.4486,7.4486,7.472,7.5229,7.4408,7.4134,7.4486,7.4486,7.4486,7.4486,7.4486,7.4486,5.6076,5.6663,5.7011,5.783,5.8687,5.9553,6.0493,6.1209,6.1677,6.1689,6.1719,6.1719,6.1719,6.1719,6.1719,6.1719,6.1719,6.1719,6.1719,6.1719,6.1719,6.1719,6.1719,6.1719,6.1719,6.1719,6.1719,6.1719,6.1719,6.1797,6.2031,6.2657,6.3516,6.461,6.5273,6.5975,6.6796,6.6796,6.6796,6.6796,6.6796,6.6796,6.6796,6.6796,6.6796,6.6796,6.6796,6.6796,6.6796,6.6796,6.6796,6.6796,6.6796,6.6796,6.6796,6.6796,6.6796,6.6796,6.6796,6.6796,6.6835,6.707,6.7576,6.8121,6.8357,6.9059,6.9723,6.9723,7.0348,7.101,7.101,7.1519,7.1987,7.1987,7.1987,7.1987,7.1987,7.1987,7.1987,7.1987,7.1987,7.1987,7.1987,7.1987,7.1987,7.1987,7.1987,7.2065,7.23,7.2339,7.2651,7.3508,7.3586,7.386,7.4447,7.4681,7.4837,7.4837,7.5032,7.5149,7.5149,7.5149,7.5462,7.6127,7.5501,7.5149,7.5149,7.5149,7.5149,7.5149,7.5149,7.5149,5.6232,5.705,5.7869,5.8726,5.9585,6.0442,6.1348,6.1554,6.1639,6.1694,6.1719,6.1719,6.1719,6.1719,6.1719,6.1719,6.1719,6.1719,6.1719,6.1719,6.1719,6.1719,6.1719,6.1719,6.1719,6.1719,6.1719,6.1719,6.1719,6.207,6.2891,6.2969,6.3789,6.5468,6.5585,6.5975,6.6796,6.6796,6.6796,6.6796,6.6796,6.6796,6.6796,6.6796,6.6796,6.6796,6.6796,6.6796,6.6796,6.6796,6.6796,6.6796,6.6796,6.6796,6.6796,6.6796,6.6796,6.6796,6.6796,6.6796,6.6952,6.7771,6.8043,6.8239,6.9098,6.9957,7.0619,7.0619,7.1245,7.1948,7.1948,7.1987,7.1987,7.1987,7.1987,7.1987,7.1987,7.1987,7.1987,7.1987,7.1987,7.1987,7.1987,7.1987,7.1987,7.1987,7.1987,7.23,7.3118,7.3235,7.3547,7.4369,7.4447,7.4447,7.4486,7.5268,7.5736,7.5736,7.6516,7.6945,7.6945,7.6945,7.6984,7.7023,7.6984,7.6945,7.6945,7.6945,7.6945,7.6945,7.6945,7.6945,5.6427,5.7089,5.7908,5.8765,5.9661,6.0514,6.1386,6.1591,6.1639,6.1694,6.1719,6.1719,6.1719,6.1719,6.1719,6.1719,6.1719,6.1719,6.1719,6.1719,6.1719,6.1719,6.1719,6.1719,6.1719,6.1719,6.1719,6.1719,6.1719,6.207,6.2969,6.3517,6.4375,6.5546,6.6092,6.6523,6.6796,6.6796,6.6796,6.6796,6.6796,6.6796,6.6796,6.6796,6.6796,6.6796,6.6796,6.6796,6.6796,6.6796,6.6796,6.6796,6.6796,6.6796,6.6796,6.6796,6.6796,6.6874,6.7459,6.7615,6.7771,6.8669,6.9294,6.9839,7.0152,7.0855,7.1519,7.1519,7.1753,7.1987,7.1987,7.1987,7.1987,7.1987,7.1987,7.1987,7.1987,7.1987,7.1987,7.1987,7.1987,7.1987,7.1987,7.1987,7.1987,7.1987,7.2495,7.2962,7.3274,7.3743,7.4408,7.5229,7.5346,7.5541,7.6125,7.6438,7.6633,7.6633,7.6945,7.7101,7.7101,7.7101,7.7101,7.7101,7.7101,7.7101,7.7101,7.7101,7.7101,7.7101,7.7101,7.7101,5.6443,5.7247,5.8211,5.8812,5.983,6.0878,6.1449,6.1618,6.1632,6.1707,6.1697,6.1694,6.1682,6.1719,6.1719,6.1719,6.1719,6.1719,6.1719,6.1719,6.1719,6.1719,6.1719,6.1719,6.1719,6.1719,6.1719,6.1719,6.1953,6.254,6.3399,6.4259,6.5118,6.5975,6.6523,6.6796,6.6796,6.6796,6.6796,6.6796,6.6796,6.6796,6.6796,6.6796,6.6796,6.6796,6.6796,6.6796,6.6796,6.6796,6.6796,6.6796,6.6796,6.6796,6.6835,6.7148,6.7224,6.7342,6.8239,6.8552,6.8669,6.9567,7.023,7.0737,7.105,7.1558,7.1987,7.1987,7.1987,7.1987,7.1987,7.1987,7.1987,7.1987,7.1987,7.1987,7.1987,7.1987,7.1987,7.1987,7.1987,7.1987,7.1987,7.2221,7.2456,7.2456,7.3158,7.3821,7.4095,7.4603,7.5266,7.6127,7.6244,7.6477,7.7062,7.7101,7.7101,7.7101,7.7101,7.7101,7.7101,7.7101,7.7101,7.7101,7.7101,7.7101,7.7101,7.7101,7.7101,7.7101,7.7101,7.7101,0.0,0.0,0.0,5.8862,6.02,6.152,6.1598,6.1619,6.1604,6.168,6.1717,6.1713,6.1687,6.1719,6.1719,6.1719,6.1719,6.1719,6.1719,6.1719,6.1719,6.1719,6.1719,6.1719,6.1719,6.1719,6.1719,6.1719,6.25,6.3399,6.4259,6.5155,6.5975,6.6796,6.6796,6.6796,6.6796,6.6796,6.6796,6.6796,6.6796,6.6796,6.6796,6.6796,6.6796,6.6796,6.6796,6.6796,6.6796,6.6796,6.6796,6.6796,6.6796,6.6835,6.6952,6.7771,6.8121,6.8279,6.9137,6.9451,6.9567,7.0465,7.0737,7.0893,7.1753,7.1987,7.1987,7.1987,7.1987,7.1987,7.1987,7.1987,7.1987,7.1987,7.1987,7.1987,7.1987,7.1987,7.1987,7.1987,7.1987,7.2026,7.2026,7.2729,7.3313,7.3313,7.4017,7.4837,7.5697,7.5814,7.6166,7.7023,7.7101,7.7101,7.7101,7.7101,7.7101,7.7101,7.7101,7.7101,7.7101,7.7101,7.7101,7.7101,7.7101,7.7101,7.7101,7.7101,7.7101,7.7101,7.7101,7.7101,5.6242,0.0,0.0,0.0,0.0,0.0,6.1517,6.1541,6.1541,6.168,6.1717,6.1713,6.1687,6.1719,6.1719,6.1719,6.1719,6.1719,6.1719,6.1719,6.1719,6.1719,6.1719,6.1719,6.1719,6.1719,6.1719,6.1719,6.25,6.3399,6.4259,6.5664,6.6562,6.6796,6.6796,6.6796,6.6796,6.6796,6.6796,6.6796,6.6796,6.6796,6.6796,6.6796,6.6796,6.6796,6.6796,6.6796,6.6796,6.6796,6.6796,6.6796,6.6796,6.7185,6.7771,6.8005,6.8513,6.9176,7.0035,7.0348,7.0465,7.1363,7.1636,7.1675,7.1948,7.1987,7.1987,7.1987,7.1987,7.1987,7.1987,7.1987,7.1987,7.1987,7.1987,7.1987,7.1987,7.1987,7.1987,7.1987,7.1987,7.2182,7.2845,7.3157,7.3508,7.4095,7.4876,7.5541,7.5775,7.6361,7.6828,7.7062,7.7101,7.7101,7.7101,7.7101,7.7101,7.7101,7.7101,7.7101,7.7101,7.7101,7.7101,7.7101,7.7101,7.7101,7.7101,7.7101,7.7101,7.7101,7.7101,7.7101,0.0,0.0,0.0,5.9191,0.0,0.0,6.145,6.1517,6.1532,6.1636,6.1679,6.1679,6.1689,6.1719,6.1719,6.1719,6.1719,6.1719,6.1719,6.1719,6.1719,6.1719,6.1719,6.1719,6.1719,6.1719,6.1836,6.2226,6.3047,6.4064,6.5274,6.6289,6.6796,6.6796,6.6796,6.6796,6.6796,6.6796,6.6796,6.6796,6.6796,6.6796,6.6796,6.6796,6.6796,6.6796,6.6796,6.6992,6.7342,6.7342,6.7342,6.7342,6.7342,6.7888,6.8708,6.9058,6.9528,7.0074,7.0933,7.1245,7.1324,7.1831,7.1987,7.1987,7.1987,7.1987,7.1987,7.1987,7.1987,7.1987,7.1987,7.1987,7.1987,7.1987,7.1987,7.1987,7.1987,7.23,7.2534,7.2534,7.2534,7.2807,7.3664,7.4095,7.4486,7.4954,7.5775,7.6322,7.6322,7.6789,7.7101,7.7101,7.7101,7.7101,7.7101,7.7101,7.7101,7.7101,7.7101,7.7101,7.7101,7.7101,7.7101,7.7101,7.7101,7.7101,7.7101,7.7101,7.7101,7.7101,7.7101,7.7101,0.0,0.0,0.0,0.0,6.0591,0.0,6.1431,6.146,6.1489,6.1566,6.1583,6.1595,6.1668,6.1658,6.1657,6.169,6.169,6.1687,6.168,6.1719,6.1719,6.1719,6.1719,6.1719,6.1719,6.1719,6.207,6.293,6.3907,6.5118,6.6718,6.6796,6.6796,6.6796,6.6796,6.6796,6.6796,6.6796,6.6796,6.6796,6.6796,6.6796,6.6796,6.6796,6.6796,6.6796,6.6913,6.7381,6.8121,6.82,6.8239,6.8239,6.8239,6.8786,6.9645,7.0424,7.0776,7.0971,7.1714,7.1987,7.1987,7.1987,7.1987,7.1987,7.1987,7.1987,7.1987,7.1987,7.1987,7.1987,7.1987,7.1987,7.1987,7.1987,7.1987,7.2026,7.2104,7.2768,7.3352,7.3547,7.3508,7.3703,7.4486,7.5307,7.5814,7.5932,7.6594,7.7101,7.7101,7.7101,7.7101,7.7101,7.7101,7.7101,7.7101,7.7101,7.7101,7.7101,7.7101,7.7101,7.7101,7.7101,7.7101,7.7101,7.7101,7.7101,7.7101,7.7101,7.7101,7.7101,7.7101,7.7101,0.0,0.0,0.0,0.0,6.0531,0.0,6.1248,6.1272,6.1296,6.1398,6.1426,6.1452,6.1477,6.1447,6.15,6.1601,6.1601,6.1638,6.1687,6.1719,6.1719,6.1719,6.1719,6.1719,6.1719,6.1719,6.207,6.293,6.4453,6.578,6.6757,6.6796,6.6796,6.6796,6.6796,6.6796,6.6796,6.6796,6.6796,6.6796,6.6796,6.6796,6.6796,6.6796,6.6796,6.6835,6.7537,6.7927,6.816,6.8864,6.9137,6.9137,6.9137,6.9684,7.0463,7.0659,7.1128,7.1753,7.1948,7.1987,7.1987,7.1987,7.1987,7.1987,7.1987,7.1987,7.1987,7.1987,7.1987,7.1987,7.1987,7.1987,7.1987,7.1987,7.1987,7.2182,7.2884,7.3196,7.3703,7.5034,7.4759,7.4525,7.5385,7.5697,7.6049,7.675,7.6984,7.7101,7.7101,7.7101,7.7101,7.7101,7.7101,7.7101,7.7101,7.7101,7.7101,7.7101,7.7101,7.7101,7.7101,7.7101,7.7101,7.7101,7.7101,7.7101,7.7101,7.7101,7.7101,7.7101,7.7101,7.7101,0.0,0.0,0.0,6.0383,6.0809,0.0,0.0,6.1181,6.1244,6.1384,6.1414,6.14,6.1391,6.1402,6.1426,6.1592,6.1598,6.1601,6.1696,6.1683,6.1719,6.1719,6.1719,6.1719,6.1719,6.1719,6.2226,6.3556,6.5234,6.6366,6.6796,6.6796,6.6796,6.6796,6.6796,6.6796,6.6796,6.6796,6.6796,6.6796,6.6796,6.6796,6.6796,6.6796,6.7031,6.7459,6.7927,6.859,6.9448,6.9879,7.0309,7.066,7.023,7.0582,7.1363,7.1363,7.1636,7.1987,7.1987,7.1987,7.1987,7.1987,7.1987,7.1987,7.1987,7.1987,7.1987,7.1987,7.1987,7.1987,7.1987,7.1987,7.2104,7.2534,7.2651,7.2885,7.3705,7.4251,7.4798,7.5658,7.5813,7.593,7.636,7.6438,7.6594,7.7023,7.7101,7.7101,7.7101,7.7101,7.7101,7.7101,7.7101,7.7101,7.7101,7.7101,7.7101,7.7101,7.7101,7.7101,7.7101,7.7101,7.7101,7.7101,7.7101,7.7101,7.7101,7.7101,7.7101,7.7101,7.7101,7.7101,5.9769,5.9996,6.0306,6.0925,6.1118,6.1098,0.0,0.0,0.0,6.1324,6.1352,6.1337,6.1327,6.1337,6.1331,6.1287,6.1427,6.152,6.1439,6.1579,6.1682,6.1719,6.1719,6.1719,6.1719,6.1992,6.2852,6.4415,6.5937,6.6796,6.6796,6.6796,6.6796,6.6796,6.6796,6.6796,6.6796,6.6796,6.6796,6.6796,6.6796,6.6874,6.707,6.707,6.7537,6.8357,6.8511,6.9409,7.0698,7.0893,7.1363,7.1948,7.1245,7.1363,7.1987,7.1987,7.1987,7.1987,7.1987,7.1987,7.1987,7.1987,7.1987,7.1987,7.1987,7.1987,7.1987,7.1987,7.1987,7.1987,7.1987,7.2104,7.2417,7.3118,7.343,7.3743,7.4564,7.5307,7.5853,7.601,7.6633,7.7101,7.7101,7.7101,7.7101,7.7101,7.7101,7.7101,7.7101,7.7101,7.7101,7.7101,7.7101,7.7101,7.7101,7.7101,7.7101,7.7101,7.7101,7.7101,7.7101,7.7101,7.7101,7.7101,7.7101,7.7101,7.7101,7.7101,7.7101,7.7101,7.7101,7.7101,6.0074,6.0422,6.1002,6.1079,6.1118,6.1079,6.1093,0.0,6.1102,6.113,0.0,6.1143,6.1118,0.0,0.0,6.0299,6.0871,6.1187,6.054,6.1168,6.1693,6.1681,6.1719,6.1719,6.1719,6.3086,6.4415,6.539,6.6289,6.6796,6.6796,6.6796,6.6796,6.6796,6.6796,6.6796,6.6796,6.6796,6.6796,6.6796,6.6796,6.7185,6.7966,6.7966,6.8435,6.9294,7.0074,7.0502,7.0776,7.1519,7.1909,7.1987,7.187,7.1909,7.1987,7.1987,7.1987,7.1987,7.1987,7.1987,7.1987,7.1987,7.1987,7.1987,7.1987,7.1987,7.1987,7.1987,7.1987,7.1987,7.1987,7.2573,7.3196,7.3274,7.3821,7.4603,7.5463,7.5736,7.6049,7.6789,7.7023,7.7101,7.7101,7.7101,7.7101,7.7101,7.7101,7.7101,7.7101,7.7101,7.7101,7.7101,7.7101,7.7101,7.7101,7.7101,7.7101,7.7101,7.7101,7.7101,7.7101,7.7101,7.7101,7.7101,7.7101,7.7101,7.7101,7.7101,7.7101,7.7101,7.7101,7.7101,6.0692,6.0888,6.1152,6.1093,6.1121,6.1147,6.1093,6.1118,6.1118,6.1118,0.0,0.0,0.0,0.0,0.0,0.0,6.1139,6.1322,6.1074,6.1445,6.1702,6.1692,6.1684,6.1914,6.2422,6.3556,6.4649,6.5546,6.6366,6.6796,6.6796,6.6796,6.6796,6.6796,6.6796,6.6796,6.6796,6.6796,6.6796,6.6796,6.7303,6.7732,6.8121,6.863,6.9333,7.0152,7.0541,7.0971,7.148,7.1831,7.1987,7.1987,7.1987,7.1987,7.1987,7.1987,7.1987,7.1987,7.1987,7.1987,7.1987,7.1987,7.1987,7.1987,7.1987,7.1987,7.1987,7.1987,7.1987,7.2104,7.2612,7.304,7.3547,7.4525,7.4993,7.5502,7.636,7.6555,7.6672,7.7023,7.7101,7.7101,7.7101,7.7101,7.7101,7.7101,7.7101,7.7101,7.7101,7.7101,7.7101,7.7101,7.7101,7.7101,7.7101,7.7101,7.7101,7.7101,7.7101,7.7101,7.7101,7.7101,7.7101,7.7101,7.7101,7.7101,7.7101,7.7101,7.7101,7.7101,7.7101,7.7101,6.1121,6.1169,6.116,6.1102,6.1134,6.1165,6.1093,6.1118,6.1118,6.1118,6.1118,0.0,0.0,0.0,0.0,0.0,0.0,6.1343,6.124,6.1483,6.1709,6.1699,6.1688,6.2031,6.293,6.379,6.4649,6.5546,6.6366,6.6796,6.6796,6.6796,6.6796,6.6796,6.6796,6.6796,6.6796,6.6796,6.6796,6.6796,6.7693,6.8239,6.8474,6.9372,7.023,7.105,7.105,7.1402,7.1987,7.1987,7.1987,7.1987,7.1987,7.1987,7.1987,7.1987,7.1987,7.1987,7.1987,7.1987,7.1987,7.1987,7.1987,7.1987,7.1987,7.1987,7.1987,7.1987,7.1987,7.2182,7.3079,7.3469,7.4017,7.5463,7.5971,7.6322,7.6945,7.7101,7.7101,7.7101,7.7101,7.7101,7.7101,7.7101,7.7101,7.7101,7.7101,7.7101,7.7101,7.7101,7.7101,7.7101,7.7101,7.7101,7.7101,7.7101,7.7101,7.7101,7.7101,7.7101,7.7101,7.7101,7.7101,7.7101,7.7101,7.7101,7.7101,7.7101,7.7101,7.7101,7.7101,7.7101,6.1216,6.1181,6.116,6.1102,6.1118,6.1079,6.1118,6.1118,6.1118,6.1118,0.0,0.0,0.0,0.0,0.0,0.0,0.0,0.0,0.0,6.1078,6.1714,6.17,6.1688,6.2031,6.293,6.379,6.4649,6.5546,6.6366,6.6796,6.6796,6.6796,6.6796,6.6796,6.6796,6.6796,6.6796,6.6796,6.6796,6.6796,6.7693,6.8552,6.9373,7.027,7.1128,7.1948,7.1948,7.1987,7.1987,7.1987,7.1987,7.1987,7.1987,7.1987,7.1987,7.1987,7.1987,7.1987,7.1987,7.1987,7.1987,7.1987,7.1987,7.1987,7.1987,7.1987,7.1987,7.1987,7.1987,7.2182,7.3079,7.3861,7.4681,7.558,7.6438,7.7062,7.7101,7.7101,7.7101,7.7101,7.7101,7.7101,7.7101,7.7101,7.7101,7.7101,7.7101,7.7101,7.7101,7.7101,7.7101,7.7101,7.7101,7.7101,7.7101,7.7101,7.7101,7.7101,7.7101,7.7101,7.7101,7.7101,7.7101,7.7101,7.7101,7.7101,7.7101,7.7101,7.7101,7.7101,7.7101,7.7101,6.113,6.1174,6.116,6.1102,6.113,6.1156,6.1093,6.1118,6.1118,6.1118,0.0,0.0,0.0,0.0,0.0,0.0,0.0,0.0,0.0,6.1388,6.1716,6.1713,6.1702,6.2278,6.3722,6.4146,6.4883,6.6289,6.664,6.6796,6.6796,6.6796,6.6796,6.6796,6.6796,6.6796,6.6796,6.6796,6.7109,6.7654,6.8552,6.9411,7.0309,7.1167,7.1714,7.1987,7.1987,7.1987,7.1987,7.1987,7.1987,7.1987,7.1987,7.1987,7.1987,7.1987,7.1987,7.1987,7.1987,7.1987,7.1987,7.1987,7.1987,7.1987,7.1987,7.1987,7.1987,7.1987,7.2417,7.304,7.3861,7.472,7.558,7.6438,7.6906,7.7101,7.7101,7.7101,7.7101,7.7101,7.7101,7.7101,7.7101,7.7101,7.7101,7.7101,7.7101,7.7101,7.7101,7.7101,7.7101,7.7101,7.7101,7.7101,7.7101,7.7101,7.7101,7.7101,7.7101,7.7101,7.7101,7.7101,7.7101,7.7101,7.7101,7.7101,7.7101,7.7101,7.7101,7.7101,7.7101,7.7101,6.113,6.1178,6.116,6.1102,6.1178,6.1197,6.1107,6.1134,6.1182,6.1182,0.0,0.0,0.0,0.0,0.0,0.0,0.0,0.0,0.0,6.1633,6.1718,6.1718,6.1709,6.2246,6.3693,6.4115,6.4889,6.6256,6.6646,6.68,6.6796,6.6796,6.6796,6.6796,6.6796,6.6796,6.6796,6.7109,6.7537,6.8121,6.9294,7.0152,7.0737,7.1597,7.1987,7.1987,7.1987,7.1987,7.1987,7.1987,7.1987,7.1987,7.1987,7.1987,7.1987,7.1987,7.1987,7.1987,7.1987,7.1987,7.1987,7.1987,7.1987,7.1987,7.1987,7.1987,7.1948,7.1636,7.2376,7.343,7.3939,7.4915,7.601,7.6906,7.7101,7.7101,7.7101,7.7101,7.7101,7.7101,7.7101,7.7101,7.7101,7.7101,7.7101,7.7101,7.7101,7.7101,7.7101,7.7101,7.7101,7.7101,7.7101,7.7101,7.7101,7.7101,7.7101,7.7101,7.7101,7.7101,7.7101,7.7101,7.7101,7.7101,7.7101,7.7101,7.7101,7.7101,7.7101,7.7101,7.7101,7.7101]}]]